[[{"header":{"parameterUnit":"m.s-1","parameterCategory":1,"la1":30.6,"la2":28.766,"lo1":-90.7593,"lo2":-88.6598,"dy":0.0162,"dx":0.0183,"nx":116,"ny":114,"refTime":"2024-03-20T12:00:00:Z","depth":0,"parameterNumber":2,"parameterNumberName":"U-component_of_WINDS"},"data":[0.0,0.0,0.0,0.0,0.0,0.0,0.0,0.0,0.0,0.0,0.0,0.0,0.0,0.0,0.0,0.0,0.0,0.0,0.0,0.0,0.0,0.0,0.0,0.0,0.0,0.0,0.0,0.0,0.0,0.0,0.0,0.0,0.0,0.0,0.0,0.0,0.0,0.0,0.0,0.0,0.0,0.0,0.0,0.0,0.0,0.0,0.0,0.0,0.0,0.0,0.0,0.0,0.0,0.0,0.0,0.0,0.0,0.0,0.0,0.0,0.0,0.0,0.0,0.0,0.0,0.0,0.0,0.0,0.0,0.0,0.0,0.0,0.0,0.0,0.0,0.0,0.0,0.0,0.0,0.0,0.0,0.0,0.0,0.0,0.0,0.0,0.0,0.0,0.0,0.0,0.0,0.0,0.0,0.0,0.0,0.0,0.0,0.0,0.0,0.0,0.0,0.0,0.0,0.0,0.0,0.0,0.0,0.0,0.0,0.0,0.0,0.0,0.0,0.0,0.0,0.0,0.0,0.0,0.0,0.0,0.0,0.0,0.0,0.0,0.0,0.0,0.0,0.0,0.0,0.0,0.0,0.0,0.0,0.0,0.0,0.0,0.0,0.0,0.0,0.0,0.0,0.0,0.0,0.0,0.0,0.0,0.0,0.0,0.0,0.0,0.0,0.0,0.0,0.0,0.0,0.0,0.0,0.0,0.0,0.0,0.0,0.0,0.0,0.0,0.0,0.0,0.0,0.0,0.0,0.0,0.0,0.0,0.0,0.0,0.0,0.0,0.0,0.0,0.0,0.0,0.0,0.0,0.0,0.0,0.0,0.0,0.0,0.0,0.0,0.0,0.0,0.0,0.0,0.0,0.0,0.0,0.0,0.0,0.0,0.0,0.0,0.0,0.0,0.0,0.0,0.0,0.0,0.0,0.0,0.0,0.0,0.0,0.0,0.0,0.0,0.0,0.0,0.0,0.0,0.0,0.0,0.0,0.0,0.0,0.0,0.0,0.0,0.0,0.0,0.0,0.0,0.0,0.0,0.0,0.0,0.0,0.0,0.0,0.0,0.0,0.0,0.0,0.0,0.0,0.0,0.0,0.0,0.0,0.0,0.0,0.0,0.0,0.0,0.0,0.0,0.0,0.0,0.0,0.0,0.0,0.0,0.0,0.0,0.0,0.0,0.0,0.0,0.0,0.0,0.0,0.0,0.0,0.0,0.0,0.0,0.0,0.0,0.0,0.0,0.0,0.0,0.0,0.0,0.0,0.0,0.0,0.0,0.0,0.0,0.0,0.0,0.0,0.0,0.0,0.0,0.0,0.0,0.0,0.0,0.0,0.0,0.0,0.0,0.0,0.0,0.0,0.0,0.0,0.0,0.0,0.0,0.0,0.0,0.0,0.0,0.0,0.0,0.0,0.0,0.0,0.0,0.0,0.0,0.0,0.0,0.0,0.0,0.0,0.0,0.0,0.0,0.0,0.0,0.0,0.0,0.0,0.0,0.0,0.0,0.0,0.0,0.0,0.0,0.0,0.0,0.0,0.0,0.0,0.0,0.0,0.0,0.0,0.0,0.0,0.0,0.0,0.0,0.0,0.0,0.0,0.0,0.0,0.0,0.0,0.0,0.0,0.0,0.0,0.0,0.0,0.0,0.0,0.0,0.0,0.0,0.0,0.0,0.0,0.0,0.0,0.0,0.0,0.0,0.0,0.0,0.0,0.0,0.0,0.0,0.0,0.0,0.0,0.0,0.0,0.0,0.0,0.0,0.0,0.0,0.0,0.0,0.0,0.0,0.0,0.0,0.0,0.0,0.0,0.0,0.0,0.0,0.0,0.0,0.0,0.0,0.0,0.0,0.0,0.0,0.0,0.0,0.0,0.0,0.0,0.0,0.0,0.0,0.0,0.0,0.0,0.0,0.0,0.0,0.0,0.0,0.0,0.0,0.0,0.0,0.0,0.0,0.0,0.0,0.0,0.0,0.0,0.0,0.0,0.0,0.0,0.0,0.0,0.0,0.0,0.0,0.0,0.0,0.0,0.0,0.0,0.0,0.0,0.0,0.0,0.0,0.0,0.0,0.0,0.0,0.0,0.0,0.0,0.0,0.0,0.0,0.0,0.0,0.0,0.0,0.0,0.0,0.0,0.0,0.0,0.0,0.0,0.0,0.0,0.0,0.0,0.0,0.0,0.0,0.0,0.0,0.0,0.0,0.0,0.0,0.0,0.0,0.0,0.0,0.0,0.0,0.0,0.0,0.0,0.0,0.0,0.0,0.0,0.0,0.0,0.0,0.0,0.0,0.0,0.0,0.0,0.0,0.0,0.0,0.0,0.0,0.0,0.0,0.0,0.0,0.0,0.0,0.0,0.0,0.0,0.0,0.0,0.0,0.0,0.0,0.0,0.0,0.0,0.0,0.0,0.0,0.0,0.0,0.0,0.0,0.0,0.0,0.0,0.0,0.0,0.0,0.0,0.0,0.0,0.0,0.0,0.0,0.0,0.0,0.0,0.0,0.0,0.0,0.0,0.0,0.0,0.0,0.0,0.0,0.0,0.0,0.0,0.0,0.0,0.0,0.0,0.0,0.0,0.0,0.0,0.0,0.0,0.0,0.0,0.0,0.0,0.0,0.0,0.0,0.0,0.0,0.0,0.0,0.0,0.0,0.0,0.0,0.0,0.0,0.0,0.0,0.0,0.0,0.0,0.0,0.0,0.0,0.0,0.0,0.0,0.0,0.0,0.0,0.0,0.0,0.0,0.0,0.0,0.0,0.0,0.0,0.0,0.0,0.0,0.0,0.0,0.0,0.0,0.0,0.0,0.0,0.0,0.0,0.0,0.0,0.0,0.0,0.0,0.0,0.0,0.0,0.0,0.0,0.0,0.0,0.0,0.0,0.0,0.0,0.0,0.0,0.0,0.0,0.0,0.0,0.0,0.0,0.0,0.0,0.0,0.0,0.0,0.0,0.0,0.0,0.0,0.0,0.0,0.0,0.0,0.0,0.0,0.0,0.0,0.0,0.0,0.0,0.0,0.0,0.0,0.0,0.0,0.0,0.0,0.0,0.0,0.0,0.0,0.0,0.0,0.0,0.0,0.0,0.0,0.0,0.0,0.0,0.0,0.0,0.0,0.0,0.0,0.0,0.0,0.0,0.0,0.0,0.0,0.0,0.0,0.0,0.0,0.0,0.0,0.0,0.0,0.0,0.0,0.0,0.0,0.0,0.0,0.0,0.0,0.0,0.0,0.0,0.0,0.0,0.0,0.0,0.0,0.0,0.0,0.0,0.0,0.0,0.0,0.0,0.0,0.0,0.0,0.0,0.0,0.0,0.0,0.0,0.0,0.0,0.0,0.0,0.0,0.0,0.0,0.0,0.0,0.0,0.0,0.0,0.0,0.0,0.0,0.0,0.0,0.0,0.0,0.0,0.0,0.0,0.0,0.0,0.0,0.0,0.0,0.0,0.0,0.0,0.0,0.0,0.0,0.0,0.0,0.0,0.0,0.0,0.0,0.0,0.0,0.0,0.0,0.0,0.0,0.0,0.0,0.0,0.0,0.0,0.0,0.0,0.0,0.0,0.0,0.0,0.0,0.0,0.0,0.0,0.0,0.0,0.0,0.0,0.0,0.0,0.0,0.0,0.0,0.0,0.0,0.0,0.0,0.0,0.0,0.0,0.0,0.0,0.0,0.0,0.0,0.0,0.0,0.0,0.0,0.0,0.0,0.0,0.0,0.0,0.0,0.0,0.0,0.0,0.0,0.0,0.0,0.0,0.0,0.0,0.0,0.0,0.0,0.0,0.0,0.0,0.0,0.0,0.0,0.0,0.0,0.0,0.0,0.0,0.0,0.0,0.0,0.0,0.0,0.0,0.0,0.0,0.0,0.0,0.0,0.0,0.0,0.0,0.0,0.0,0.0,0.0,0.0,0.0,0.0,0.0,0.0,0.0,0.0,0.0,0.0,0.0,0.0,0.0,0.0,0.0,0.0,0.0,0.0,0.0,0.0,0.0,0.0,0.0,0.0,0.0,0.0,0.0,0.0,0.0,0.0,0.0,0.0,0.0,0.0,0.0,0.0,0.0,0.0,0.0,0.0,0.0,0.0,0.0,0.0,0.0,0.0,0.0,0.0,0.0,0.0,0.0,0.0,0.0,0.0,0.0,0.0,0.0,0.0,0.0,0.0,0.0,0.0,0.0,0.0,0.0,0.0,0.0,0.0,0.0,0.0,0.0,0.0,0.0,0.0,0.0,0.0,0.0,0.0,0.0,0.0,0.0,0.0,0.0,0.0,0.0,0.0,0.0,0.0,0.0,0.0,0.0,0.0,0.0,0.0,0.0,0.0,0.0,0.0,0.0,0.0,0.0,0.0,0.0,0.0,0.0,0.0,0.0,0.0,0.0,0.0,0.0,0.0,0.0,0.0,0.0,0.0,0.0,0.0,0.0,0.0,0.0,0.0,0.0,0.0,0.0,0.0,0.0,0.0,0.0,0.0,0.0,0.0,0.0,0.0,0.0,0.0,0.0,0.0,0.0,0.0,0.0,0.0,0.0,0.0,0.0,0.0,0.0,0.0,0.0,0.0,0.0,0.0,0.0,0.0,0.0,0.0,0.0,0.0,0.0,0.0,0.0,0.0,0.0,0.0,0.0,0.0,0.0,0.0,0.0,0.0,0.0,0.0,0.0,0.0,0.0,0.0,0.0,0.0,0.0,0.0,0.0,0.0,0.0,0.0,0.0,0.0,0.0,0.0,0.0,0.0,0.0,0.0,0.0,0.0,0.0,0.0,0.0,0.0,0.0,0.0,0.0,0.0,0.0,0.0,0.0,0.0,0.0,0.0,0.0,0.0,0.0,0.0,0.0,0.0,0.0,0.0,0.0,0.0,0.0,0.0,0.0,0.0,0.0,0.0,0.0,0.0,0.0,0.0,0.0,0.0,0.0,0.0,0.0,0.0,0.0,0.0,0.0,0.0,0.0,0.0,0.0,0.0,0.0,0.0,0.0,0.0,0.0,0.0,0.0,0.0,0.0,0.0,0.0,0.0,0.0,0.0,0.0,0.0,0.0,0.0,0.0,0.0,0.0,0.0,0.0,0.0,0.0,0.0,0.0,0.0,0.0,0.0,0.0,0.0,0.0,0.0,0.0,0.0,0.0,0.0,0.0,0.0,0.0,0.0,0.0,0.0,0.0,0.0,0.0,0.0,0.0,0.0,0.0,0.0,0.0,0.0,0.0,0.0,0.0,0.0,0.0,0.0,0.0,0.0,0.0,0.0,0.0,0.0,0.0,0.0,0.0,0.0,0.0,0.0,0.0,0.0,0.0,0.0,0.0,0.0,0.0,0.0,0.0,0.0,0.0,0.0,0.0,0.0,0.0,0.0,0.0,0.0,0.0,0.0,0.0,0.0,0.0,0.0,0.0,0.0,0.0,0.0,0.0,0.0,0.0,0.0,0.0,0.0,0.0,0.0,0.0,0.0,0.0,0.0,0.0,0.0,0.0,0.0,0.0,0.0,0.0,0.0,0.0,0.0,0.0,0.0,0.0,0.0,0.0,0.0,0.0,0.0,0.0,0.0,0.0,0.0,0.0,0.0,0.0,0.0,0.0,0.0,0.0,0.0,0.0,0.0,0.0,0.0,0.0,0.0,0.0,0.0,0.0,0.0,0.0,0.0,0.0,0.0,0.0,0.0,0.0,0.0,0.0,0.0,0.0,0.0,0.0,0.0,0.0,0.0,0.0,0.0,0.0,0.0,0.0,0.0,0.0,0.0,0.0,0.0,0.0,0.0,0.0,0.0,0.0,0.0,0.0,0.0,0.0,0.0,0.0,0.0,0.0,0.0,0.0,0.0,0.0,0.0,0.0,0.0,0.0,0.0,0.0,0.0,0.0,0.0,0.0,0.0,0.0,0.0,0.0,0.0,0.0,0.0,0.0,0.0,0.0,0.0,0.0,0.0,0.0,0.0,0.0,0.0,0.0,0.0,0.0,0.0,0.0,0.0,0.0,0.0,0.0,0.0,0.0,0.0,0.0,0.0,0.0,0.0,0.0,0.0,0.0,0.0,0.0,0.0,0.0,0.0,0.0,0.0,0.0,0.0,0.0,0.0,0.0,0.0,0.0,0.0,-4.1023,-4.1085,0.0,0.0,0.0,0.0,0.0,0.0,0.0,0.0,0.0,0.0,0.0,0.0,0.0,0.0,0.0,0.0,0.0,0.0,0.0,0.0,0.0,0.0,0.0,0.0,0.0,0.0,-0.6703,-0.7778,-0.8627,-0.9453,-1.0207,-1.1031,-1.1848,-1.2645,-1.3462,-1.4258,-1.4816,-1.5188,-1.6245,-1.7129,-1.793,-1.793,-1.8402,-1.9309,0.0,0.0,0.0,0.0,0.0,0.0,0.0,0.0,0.0,0.0,0.0,0.0,0.0,0.0,0.0,0.0,0.0,0.0,0.0,0.0,0.0,0.0,0.0,0.0,0.0,0.0,0.0,0.0,0.0,0.0,0.0,0.0,0.0,0.0,0.0,0.0,0.0,0.0,0.0,0.0,0.0,0.0,0.0,0.0,0.0,0.0,0.0,0.0,0.0,0.0,0.0,0.0,0.0,0.0,0.0,0.0,0.0,0.0,0.0,0.0,0.0,0.0,0.0,0.0,0.0,0.0,0.0,0.0,0.0,0.0,-4.1924,-4.1718,0.0,0.0,0.0,0.0,0.0,0.0,0.0,0.0,0.0,0.0,0.0,0.0,0.0,0.0,0.0,0.0,0.0,0.0,0.0,0.0,0.0,0.0,0.0,-0.5229,-0.624,-0.6395,-0.7855,-0.8856,-0.9074,-1.0357,-1.118,-1.1329,-1.2732,-1.3535,-1.368,-1.5188,-1.5965,-1.5982,-1.7292,-1.8494,-1.9435,-1.9737,-1.9868,-2.0047,-2.0789,0.0,0.0,0.0,0.0,0.0,0.0,0.0,0.0,0.0,0.0,0.0,0.0,0.0,0.0,0.0,0.0,0.0,0.0,0.0,0.0,0.0,0.0,0.0,0.0,0.0,0.0,0.0,0.0,0.0,0.0,0.0,0.0,0.0,0.0,0.0,0.0,0.0,0.0,0.0,0.0,0.0,0.0,0.0,0.0,0.0,0.0,0.0,0.0,0.0,0.0,0.0,0.0,0.0,0.0,0.0,0.0,0.0,0.0,0.0,0.0,0.0,0.0,0.0,-4.5817,-4.5813,-4.5679,-4.5531,-4.5138,-4.4543,-4.384,-4.3251,-4.2811,-4.2524,0.0,0.0,0.0,0.0,0.0,0.0,0.0,0.0,0.0,0.0,0.0,0.0,0.0,0.0,0.0,0.0,0.0,0.0,0.0,0.0,0.0,-0.5229,-0.6472,-0.7234,-0.8161,-0.9301,-1.0657,-1.0956,-1.1416,-1.2083,-1.3025,-1.381,-1.4458,-1.579,-1.6594,-1.6769,-1.829,-1.93,-1.9939,-2.1274,-2.228,-2.2983,-2.1655,-2.1993,-2.34,0.0,0.0,0.0,0.0,0.0,0.0,0.0,0.0,0.0,0.0,0.0,0.0,0.0,0.0,0.0,0.0,0.0,0.0,0.0,0.0,0.0,0.0,0.0,0.0,0.0,0.0,0.0,0.0,0.0,0.0,0.0,0.0,0.0,0.0,0.0,0.0,0.0,0.0,0.0,0.0,0.0,-4.1973,-4.2033,0.0,0.0,0.0,0.0,0.0,0.0,0.0,0.0,0.0,0.0,0.0,0.0,0.0,-4.5312,-4.6758,-4.7734,-4.8281,-4.8398,-4.91,-4.9058,-4.835,-4.7603,-4.7595,-4.8135,-4.8017,0.0,-4.4528,-4.3036,0.0,0.0,0.0,0.0,0.0,0.0,0.0,0.0,0.0,0.0,0.0,0.0,0.0,0.0,0.0,0.0,0.0,0.0,0.0,0.0,0.0,-0.6152,-0.7613,-0.8559,-0.9575,-1.0584,-1.1576,-1.2029,-1.2272,-1.2318,-1.3462,-1.4243,-1.4601,-1.6298,-1.7674,-1.8616,-1.9349,-2.008,-2.0909,-2.1572,-2.2536,-2.3607,-2.325,-2.3544,-2.436,-2.4544,0.0,0.0,0.0,0.0,0.0,0.0,0.0,0.0,0.0,0.0,0.0,0.0,0.0,0.0,0.0,0.0,0.0,0.0,0.0,0.0,0.0,0.0,0.0,0.0,0.0,0.0,0.0,0.0,0.0,0.0,0.0,0.0,0.0,0.0,0.0,0.0,0.0,0.0,0.0,-4.1841,-4.2509,-4.1568,-4.2377,-4.2656,0.0,0.0,0.0,0.0,0.0,0.0,0.0,0.0,0.0,-4.6599,-4.746,-4.8281,-4.9062,-4.9883,-5.0547,-5.1054,-5.1404,-5.1363,-5.1003,-5.0647,-5.0133,-4.954,-4.954,-4.9185,-4.84,-4.6197,-4.4616,-4.3461,0.0,0.0,0.0,0.0,-4.1237,-4.1646,0.0,0.0,0.0,0.0,0.0,0.0,0.0,0.0,0.0,0.0,0.0,0.0,-0.5425,-0.7288,-0.8982,-1.0213,-1.1109,-1.1813,-1.2258,-1.2896,-1.3078,-1.2613,-1.4099,-1.4887,-1.4887,-1.6985,-1.8874,-2.0398,-2.0491,-2.1075,-2.2037,-2.2302,-2.3299,-2.4779,-2.5538,-2.5827,-2.5693,-2.5961,-2.5761,-2.5217,0.0,0.0,0.0,0.0,0.0,0.0,0.0,0.0,0.0,0.0,0.0,0.0,0.0,0.0,0.0,0.0,0.0,0.0,0.0,0.0,0.0,0.0,0.0,0.0,0.0,0.0,0.0,0.0,0.0,0.0,0.0,0.0,0.0,0.0,0.0,0.0,0.0,-4.266,-4.3384,-4.1496,-4.3413,-4.4157,0.0,0.0,0.0,0.0,0.0,0.0,-4.6903,-4.7769,-4.8748,-4.9843,-5.0703,-5.1484,-5.2148,-5.2539,-5.3047,-5.3709,-5.3708,-5.3585,-5.338,-5.3377,-5.2671,-5.1414,-5.118,-5.1336,-5.1492,-4.8426,-4.6293,-4.4787,-4.3226,-4.2338,-4.1915,-4.1915,-4.2469,-4.3199,0.0,0.0,0.0,0.0,0.0,0.0,0.0,0.0,0.0,0.0,0.0,-0.543,-0.6403,-0.8518,-1.0523,-1.2099,-1.23,-1.2531,-1.3068,-1.3346,-1.3492,-1.3462,-1.4903,-1.5771,-1.5771,-1.7984,-1.994,-2.1559,-2.1923,-2.2505,-2.3303,-2.4288,-2.587,-2.7898,-2.895,-2.8975,-2.8037,-2.7048,-2.7003,-2.7448,-2.6414,0.0,0.0,0.0,0.0,0.0,0.0,0.0,0.0,0.0,0.0,0.0,0.0,0.0,0.0,0.0,0.0,0.0,0.0,0.0,0.0,0.0,0.0,0.0,0.0,0.0,0.0,0.0,0.0,0.0,0.0,0.0,0.0,0.0,0.0,0.0,0.0,0.0,0.0,-4.2525,-4.5913,0.0,0.0,0.0,0.0,-4.724,-4.8072,-4.8632,-4.8671,-4.9492,-5.0739,-5.2458,-5.3359,-5.5,-5.75,-5.6719,-5.6367,-5.6404,-5.64,-5.5966,-5.5176,-5.5166,-5.5123,-5.5005,-5.4147,-5.3366,-5.2312,-4.8035,-4.7162,-4.8215,-4.4826,-4.4026,-4.4695,-4.4695,-4.5241,-4.5974,0.0,0.0,0.0,0.0,0.0,0.0,0.0,0.0,-0.3682,-0.36,-0.4988,-0.6125,-0.6661,-0.9026,-1.1028,-1.2181,-1.3105,-1.3951,-1.4824,-1.4525,-1.4439,-1.4615,-1.5392,-1.6422,-1.7786,-1.8328,-1.9673,-2.1892,-2.1713,-2.244,-2.3856,-2.4223,-2.5539,-2.7616,-2.8019,-2.846,-2.8938,-2.9008,-2.8492,-2.7638,-2.7229,-2.7097,0.0,0.0,0.0,0.0,0.0,0.0,0.0,0.0,0.0,0.0,0.0,0.0,0.0,0.0,0.0,0.0,0.0,0.0,0.0,0.0,0.0,0.0,0.0,0.0,0.0,0.0,0.0,0.0,0.0,0.0,0.0,0.0,0.0,0.0,0.0,0.0,0.0,-4.6523,-4.9729,0.0,-4.9198,-4.9635,-5.0051,-5.0025,-5.1325,-5.2343,-5.2836,-5.4229,-5.527,-5.584,-5.6152,-5.6503,-5.686,-5.6548,-5.638,-5.6329,-5.6347,-5.6168,-5.587,-5.5852,-5.5522,-5.5015,-5.4704,-5.4117,-5.3189,-5.0509,-4.8847,-4.7747,-4.5371,-4.4267,-4.4072,-4.4072,-4.4618,-4.5358,0.0,0.0,0.0,0.0,0.0,0.0,0.0,0.0,-0.494,-0.4691,-0.5701,-0.6695,-0.7483,-0.9993,-1.189,-1.2729,-1.4087,-1.4942,-1.519,-1.5116,-1.5002,-1.4998,-1.6275,-1.7803,-1.9766,-1.9839,-2.0724,-2.2539,-2.2317,-2.2826,-2.4108,-2.442,-2.5565,-2.7591,-2.8007,-2.899,-3.0326,-3.1221,-3.0311,-2.833,-2.8818,-2.9008,-2.8948,0.0,0.0,0.0,0.0,0.0,0.0,0.0,0.0,0.0,0.0,0.0,0.0,0.0,0.0,0.0,0.0,0.0,0.0,0.0,0.0,0.0,0.0,0.0,0.0,0.0,0.0,0.0,0.0,0.0,0.0,0.0,0.0,0.0,0.0,-4.709,-4.9399,-4.9157,-5.2697,-5.4329,-5.2376,-5.301,-5.3542,-5.3511,-5.4842,-5.5876,-5.6341,-5.7446,-5.8195,-5.8442,-5.8442,-5.8178,-5.7633,-5.7312,-5.6991,-5.6651,-5.6347,-5.6197,-5.6173,-5.611,-5.5825,-5.5268,-5.5035,-5.4463,-5.3604,-5.1862,-4.9819,-4.7681,-4.63,-4.5599,-4.5326,-4.5007,-4.5475,-4.6137,0.0,0.0,0.0,0.0,0.0,0.0,0.0,-0.4956,-0.5034,-0.5234,-0.5779,-0.6888,-0.8757,-1.1424,-1.3329,-1.4004,-1.5153,-1.5337,-1.426,-1.5018,-1.5273,-1.4737,-1.7569,-1.9912,-2.145,-2.2387,-2.3105,-2.3689,-2.3722,-2.3816,-2.4204,-2.4969,-2.6308,-2.8192,-2.946,-3.0838,-3.2173,-3.3545,-3.237,-2.9741,-3.1362,-3.1734,-3.1358,0.0,0.0,0.0,0.0,0.0,0.0,0.0,0.0,0.0,0.0,0.0,0.0,0.0,0.0,0.0,0.0,0.0,0.0,0.0,0.0,0.0,0.0,0.0,0.0,0.0,0.0,0.0,0.0,0.0,0.0,0.0,0.0,0.0,-4.4831,-4.8599,-5.1014,-5.0338,-5.4749,-5.6831,-5.4378,-5.639,-5.7848,-5.7762,-5.8488,-5.8944,-5.8936,-5.8909,-5.9254,-6.0071,-6.0087,-6.0117,-6.0126,-5.9202,-5.8315,-5.7437,-5.6586,-5.6161,-5.6084,-5.6084,-5.6084,-5.6045,-5.5255,-5.4453,-5.3482,-5.1774,-5.008,-4.8451,-4.7743,-4.799,-4.8652,-4.782,-4.8047,-4.8514,0.0,0.0,0.0,0.0,0.0,0.0,-0.1253,-0.3448,-0.5018,-0.5079,-0.5448,-0.6356,-0.8244,-1.0591,-1.2371,-1.3193,-1.4787,-1.5865,-1.6159,-1.5777,-1.601,-1.7111,-1.8486,-1.9902,-2.153,-2.1645,-2.2459,-2.4002,-2.358,-2.4062,-2.5467,-2.5708,-2.6717,-2.8342,-2.9073,-3.0219,-3.1717,-3.3589,-3.4167,-3.3848,-3.4176,-3.4053,-3.3745,0.0,0.0,0.0,0.0,0.0,0.0,0.0,0.0,0.0,0.0,0.0,0.0,0.0,0.0,0.0,0.0,0.0,0.0,0.0,0.0,0.0,0.0,0.0,0.0,0.0,0.0,0.0,0.0,0.0,0.0,0.0,-4.5442,-4.6773,-4.8289,-5.1131,-5.3682,-5.5319,-5.8492,-6.0236,-5.9534,-5.96,-5.9648,-5.9522,-5.9703,-5.9786,-5.971,-6.0211,-6.036,-5.9963,-5.994,-5.9375,-5.8095,-5.7792,-5.7202,-5.6338,-5.6054,-5.5864,-5.5808,-5.5808,-5.5808,-5.5808,-5.5576,-5.5032,-5.4258,-5.3197,-5.2133,-5.0984,-4.838,-4.7466,-4.7621,-4.7525,-4.7657,-4.7696,0.0,0.0,0.0,0.0,0.0,0.0,-0.0,-0.1642,-0.3452,-0.4909,-0.5053,-0.5697,-0.7506,-0.9589,-1.1123,-1.1538,-1.368,-1.5021,-1.5021,-1.5431,-1.6843,-1.9602,-2.0254,-2.1292,-2.2651,-2.2835,-2.336,-2.4136,-2.3837,-2.4461,-2.5887,-2.6258,-2.7188,-2.8666,-2.9566,-3.0983,-3.2707,-3.445,-3.5839,-3.6783,-3.7219,-3.6938,-3.6286,-3.6274,-3.6787,-3.7368,-3.7002,-3.7889,-3.9063,-3.8712,0.0,0.0,0.0,0.0,0.0,0.0,0.0,0.0,0.0,0.0,0.0,0.0,0.0,0.0,0.0,0.0,0.0,0.0,0.0,0.0,0.0,0.0,0.0,0.0,-4.7734,-4.9388,-5.2219,-5.3924,-5.5823,-5.8409,-6.0438,-6.1593,-6.1598,-6.1172,-6.0852,-6.0762,-6.072,-6.0643,-6.0499,-6.0915,-6.0941,-6.0422,-6.0383,-5.9764,-5.841,-5.7911,-5.7294,-5.6445,-5.5979,-5.5745,-5.5703,-5.5703,-5.5703,-5.5703,-5.5768,-5.5114,-5.3994,-5.358,-5.25,-5.092,0.0,0.0,0.0,0.0,-4.6956,-4.6878,0.0,0.0,0.0,0.0,0.0,0.0,-0.0,-0.0,-0.1181,-0.4579,-0.4713,-0.5165,-0.6746,-0.8475,-0.9477,-0.9485,-1.1888,-1.314,-1.2194,-1.4359,-1.7405,-2.1147,-2.2004,-2.2855,-2.3844,-2.4762,-2.4927,-2.4367,-2.4638,-2.5194,-2.5922,-2.67,-2.7751,-2.9126,-3.0645,-3.2412,-3.4312,-3.5809,-3.7276,-3.8731,-4.0007,-3.9783,-3.8654,-3.8214,-3.8874,-3.9952,-3.9422,-4.0135,-4.1475,-4.2,0.0,0.0,0.0,0.0,0.0,0.0,0.0,0.0,0.0,0.0,0.0,0.0,0.0,0.0,0.0,0.0,0.0,0.0,0.0,0.0,0.0,0.0,0.0,0.0,-5.0091,-5.1792,-5.5969,-5.6563,-5.7494,-6.0015,-6.1086,-6.1607,-6.1594,-6.159,-6.1568,-6.1478,-6.1421,-6.1337,-6.1203,-6.1134,0.0,0.0,0.0,-6.0692,-5.9919,-5.9012,-5.8142,-5.7332,-5.6421,-5.5955,-5.5861,-5.5976,-5.592,-5.5748,-5.5977,-5.5091,-5.3514,-5.3426,-5.1904,-4.9466,-4.8844,-4.8564,-4.8301,-4.6863,-4.6332,-4.6332,0.0,0.0,0.0,0.0,0.0,0.0,-0.0,-0.0,-0.0706,-0.2753,-0.4426,-0.5662,-0.6054,-0.7203,-0.8089,-0.8492,-0.9543,-1.0586,-1.1303,-1.3697,-1.5926,-1.7583,-2.0093,-2.1768,-2.2594,-2.4452,-2.5546,-2.5816,-2.6245,-2.6767,-2.7318,-2.7773,-2.8578,-2.9553,-3.1129,-3.2742,-3.4356,-3.6343,-3.7999,-3.9415,-4.0675,-4.0516,-3.9625,-4.0067,-4.0523,-4.1086,-4.2014,-4.3281,-4.4574,-4.489,-4.5356,-4.5507,-4.3985,-4.2917,0.0,0.0,0.0,0.0,0.0,0.0,0.0,0.0,0.0,0.0,0.0,0.0,0.0,0.0,0.0,0.0,0.0,0.0,0.0,-4.9625,-5.1664,-5.41,-5.703,-5.7502,-5.8208,-6.0093,-6.1139,-6.1629,-6.1541,-6.1534,-6.1452,-6.1328,-6.1289,-6.1203,-6.1116,-6.1118,-6.1118,-6.1118,-6.1041,-6.0635,-5.9824,-5.9511,-5.8929,-5.8081,-5.7879,0.0,-5.6925,-5.7621,-5.7246,-5.6054,-5.6795,-5.6509,-5.5433,-5.4103,-5.2069,-4.9751,-4.8934,-4.8223,-4.7689,-4.7345,-4.7267,-4.715,0.0,0.0,0.0,0.0,0.0,0.0,-0.0,-0.0,-0.0315,-0.1114,-0.3612,-0.5513,-0.5917,-0.5567,-0.5496,-0.5866,-0.7382,-0.9402,-1.1836,-1.3034,-1.4759,-1.7358,-1.9223,-2.0553,-2.1279,-2.2994,-2.4063,-2.4501,-2.5108,-2.6126,-2.7581,-2.7736,-2.8644,-3.0027,-3.1611,-3.3056,-3.4356,-3.649,-3.8306,-3.985,-4.0802,-4.1321,-4.1557,-4.1782,-4.1971,-4.2364,-4.4069,-4.5565,-4.6892,-4.768,-4.7939,-4.7759,-4.6783,-4.5497,-4.394,0.0,0.0,0.0,0.0,0.0,0.0,0.0,0.0,0.0,0.0,0.0,0.0,0.0,0.0,-4.5297,-4.579,0.0,-4.9847,-5.2071,-5.3541,-5.52,-5.7399,-5.7751,-5.8265,-5.9559,-6.049,-6.1008,-6.0956,-6.1291,-6.1491,-6.1403,-6.1331,-6.1303,-6.1264,-6.1229,-6.1181,-6.1181,-6.1116,-6.0848,-6.0461,-5.9959,-5.9534,-5.9108,-5.8681,-5.8308,-5.7978,-5.8405,-5.8178,-5.7392,-5.7453,-5.6986,-5.5993,-5.3913,-5.2047,-5.0477,-4.9676,-4.8599,-4.7515,-4.7515,-4.7235,-4.68,0.0,0.0,0.0,0.0,0.0,0.0,0.0,-0.0,-0.0,-0.0,-0.2651,-0.4756,-0.5331,-0.4058,-0.3286,-0.3785,-0.5567,-0.7959,-1.1232,-1.1365,-1.2857,-1.6311,-1.7571,-1.8551,-1.9276,-2.0702,-2.1725,-2.2073,-2.2947,-2.4335,-2.6208,-2.6793,-2.7955,-2.9706,-3.1578,-3.3023,-3.4209,-3.644,-3.8309,-3.9959,-4.0902,-4.2044,-4.3178,-4.3366,-4.345,-4.3721,-4.5479,-4.6791,-4.7839,-4.9197,-4.9184,-4.8677,-4.8677,-4.757,-4.5875,-4.3798,-4.3322,0.0,0.0,0.0,0.0,0.0,0.0,0.0,0.0,-4.3365,-4.406,-4.46,-4.5834,-4.7323,-4.916,-5.0209,-5.1645,-5.4246,-5.5069,-5.5843,-5.7251,-5.7524,-5.7846,-5.8548,-5.9673,-6.0463,-6.061,-6.1174,-6.1504,-6.1471,-6.1432,-6.1401,-6.1412,-6.1367,-6.1305,-6.1305,-6.1213,-6.1131,-6.1131,-6.0499,-6.0166,-6.0127,-5.9502,-5.9115,-5.8985,-5.9179,-5.9075,-5.876,-5.7983,-5.7039,-5.5841,-5.3697,-5.2271,-5.1406,-5.0639,-4.9391,-4.7963,-4.7606,-4.693,-4.6215,0.0,0.0,0.0,0.0,0.0,0.0,0.0,0.0,-0.0,-0.0,-0.1636,-0.2843,-0.2873,-0.3053,-0.3445,-0.4143,-0.4238,-0.4836,-0.6208,-0.7226,-0.836,-0.9921,-1.3164,-1.4944,-1.511,-1.7729,-1.9255,-1.9255,-2.0937,-2.1877,-2.2223,-2.4525,-2.6135,-2.705,-3.0143,-3.2359,-3.3875,-3.6207,-3.8065,-3.9624,-4.1443,-4.2398,-4.2945,-4.4695,-4.5117,-4.4869,-4.5605,-4.5927,-4.615,-4.7493,-4.7916,-4.7844,-4.7844,-4.8254,-4.7979,-4.427,-4.3323,-4.2766,-3.9867,-4.0089,-4.1585,-4.3272,-4.3867,-4.446,0.0,-4.6373,-4.6304,-4.568,-4.8114,-4.9969,-4.8839,-5.1748,-5.4246,-5.3991,-5.522,-5.6355,-5.6588,-5.6704,-5.6762,-5.6883,-5.8953,-6.0691,-6.1399,-6.155,-6.1525,-6.1431,-6.1412,-6.1403,-6.1412,-6.1403,-6.1393,-6.1393,-6.1323,-6.1289,-6.1292,-6.1201,-6.1097,-6.1056,-6.0953,-6.0592,-6.0069,-6.0809,-6.0426,-5.9006,-5.8158,-5.687,-5.5304,-5.4255,-5.3318,-5.2459,-5.1596,-5.0645,-4.9613,-4.808,-4.693,-4.6215,0.0,0.0,0.0,0.0,0.0,0.0,0.0,0.0,0.0,-0.0,-0.0639,-0.1047,-0.1037,-0.1214,-0.2285,-0.4542,-0.4563,-0.4115,-0.3306,-0.4425,-0.5721,-0.7253,-0.9968,-1.172,-1.2302,-1.4174,-1.5863,-1.7353,-1.8007,-1.9405,-2.1499,-2.2366,-2.417,-2.6506,-2.8335,-3.0225,-3.2396,-3.4722,-3.6896,-3.8886,-4.0286,-4.2019,-4.3852,-4.4139,-4.447,-4.4769,-4.4947,-4.4964,0.0,-4.545,-4.6005,-4.6557,-4.6989,-4.6815,-4.5913,-4.3324,-4.2662,-4.2529,-4.1213,-4.1619,-4.2587,-4.3293,-4.4594,-4.5918,-4.6701,-4.7311,-4.7764,-4.7998,-4.9591,-5.1083,-5.1477,-5.2977,-5.4414,-5.513,-5.5891,-5.6402,-5.6478,-5.6548,-5.6762,-5.7231,-5.8683,-5.979,-6.0116,-6.0579,-6.103,-6.1538,-6.1549,-6.1543,-6.1573,-6.1549,-6.153,-6.153,-6.1392,-6.1354,-6.1383,-6.1442,-6.1442,-6.1432,-6.0954,-6.0598,-6.0314,-6.0158,-5.9469,-5.8324,-5.7972,-5.7153,-5.5942,-5.4576,-5.3795,-5.3327,-5.1956,-5.0889,-4.9931,-4.8704,-4.771,-4.6878,0.0,0.0,0.0,0.0,0.0,0.0,0.0,0.0,0.0,0.0,-0.0,-0.0,-0.0,-0.0,-0.095,-0.341,-0.403,-0.3588,-0.1944,-0.212,-0.3297,-0.5391,-0.6995,-0.832,-0.9424,-1.089,-1.2612,-1.4629,-1.4687,-1.6079,-1.8712,-1.9402,-2.1402,-2.4579,-2.6345,-2.8732,-3.1612,-3.3896,-3.6163,-3.8297,-3.9086,-4.1052,-4.3485,-4.2569,-4.288,-4.3802,-4.4049,-4.3736,-4.3176,-4.2921,-4.3322,-4.4089,-4.4815,-4.4673,-4.3834,-4.2262,-4.1658,-4.157,-4.19,-4.2561,-4.3293,-4.3809,-4.5553,-4.7165,-4.7216,-4.8172,-4.9087,-4.932,-5.041,-5.1707,-5.277,-5.3586,-5.449,-5.5774,-5.6416,-5.673,-5.653,-5.6748,-5.7074,-5.743,-5.8027,-5.858,-5.9095,-6.0076,-6.085,-6.1328,-6.1516,-6.1631,-6.1719,-6.1633,-6.1623,-6.1623,-6.1543,-6.1471,-6.1471,-6.1335,-6.1264,-6.1257,-6.0422,-6.0041,-6.0002,-5.9378,-5.8636,-5.7816,-5.7816,-5.7348,-5.645,-5.4732,-5.399,-5.3834,-5.2073,-5.1011,-5.0366,-4.9463,-4.8464,-4.7384,0.0,0.0,0.0,0.0,0.0,0.0,0.0,0.0,0.0,0.0,0.0,0.0,0.0,-0.0,-0.0081,-0.0162,-0.1641,-0.258,-0.2442,-0.042,-0.0676,-0.3727,-0.3959,-0.4548,-0.5646,-0.8346,-0.979,-1.0156,-1.1088,-1.1591,-1.1815,-1.498,-1.7609,-1.9948,-2.4258,-2.8381,-3.2355,-3.419,-3.6147,-3.811,-3.8223,-3.9296,-4.0813,-4.0061,-4.0696,-4.2079,-4.2861,-4.2159,-4.0704,-3.9974,-3.9753,-3.9935,-4.0737,-4.2083,-4.303,-4.1421,-4.0161,-3.9639,-4.125,-4.2146,-4.3221,-4.5665,-4.72,-4.8066,-4.8158,-4.9556,-5.0356,-4.8763,-5.0463,-5.2045,-5.1309,-5.3297,-5.5083,-5.513,-5.662,-5.7473,-5.6719,-5.727,-5.7469,-5.6735,-5.6666,-5.7337,-5.9021,-6.0702,-6.1327,-6.0508,-6.1211,-6.1719,-6.1719,-6.1719,-6.1719,-6.1719,-6.1678,-6.1674,-6.1707,-6.0842,-6.044,-6.0432,-5.9534,-5.9143,-5.9143,-5.9104,-5.8636,-5.7816,-5.7816,-5.7348,-5.645,-5.4732,-5.399,-5.3834,-5.2064,-5.1396,-5.1245,-5.0395,-4.8967,-4.7384,0.0,0.0,0.0,0.0,0.0,0.0,0.0,0.0,0.0,0.0,0.0,0.0,0.0,0.0,0.0,0.0,-0.0524,-0.0824,-0.0864,-0.0103,-0.0219,-0.1262,-0.2175,-0.2747,-0.3169,-0.5921,-0.7915,-0.9068,-0.9484,-1.0075,-1.0832,-1.3609,-1.617,-1.8606,-2.1775,-2.5161,-2.8458,-3.047,-3.3254,-3.6353,-3.6026,-3.7357,-3.9464,-3.8423,-3.8525,-3.9189,0.0,-3.9109,-3.8402,-3.7823,-3.8032,-3.8782,-3.9786,-4.0207,-4.0147,-3.9135,-3.895,-3.937,-4.0659,-4.2396,-4.4386,-4.6762,-4.8443,-4.9757,-5.0601,-5.1266,-5.1293,-4.9664,-4.9588,-4.9795,-4.9554,-5.1152,-5.2718,-5.3338,-5.5425,-5.7043,-5.7343,-5.7629,-5.7711,-5.7441,-5.8428,-5.8903,-5.8396,-5.9374,-6.039,-6.1211,-6.1523,-6.1719,-6.1719,-6.2265,-6.2305,-6.1719,-6.2265,-6.2029,-6.0856,-6.0532,-6.0096,-5.9546,-5.864,-5.7972,-5.7426,-5.7426,-5.727,-5.6957,-5.6372,-5.5981,-5.5591,-5.3873,-5.3107,-5.2964,-5.1831,-5.1366,-5.1211,-5.0351,-4.9293,-4.8189,0.0,0.0,0.0,0.0,0.0,0.0,0.0,0.0,0.0,0.0,0.0,0.0,0.0,0.0,0.0,0.0,0.0,-0.0,-0.0,-0.0,-0.0,-0.0,-0.0811,-0.1314,-0.134,-0.3094,-0.4998,-0.7027,-0.7165,-0.8103,-0.9843,-1.1456,-1.3517,-1.5859,-1.8794,-2.1996,-2.5192,-2.7019,-2.9864,-3.3121,-3.2852,-3.4175,-3.6343,-3.5469,-3.5823,0.0,-3.6337,-3.644,-3.6759,-3.6577,-3.7032,-3.7809,-3.8551,-3.8841,-3.8826,-3.8682,-3.9007,-3.9769,-4.1437,-4.31,-4.5047,-4.7732,-4.931,-5.0581,-5.201,-5.2221,-5.1631,-5.0061,-4.9149,-4.8444,-4.7884,-4.8942,-5.019,-5.1096,-5.3175,-5.5182,-5.6688,-5.6891,-5.7249,-5.8192,-5.9018,-5.9335,-5.8827,-5.9297,-6.0078,-6.1133,-6.1523,-6.1836,-6.2148,-6.2695,-6.2734,-6.2187,-6.2421,-6.1833,-6.0426,-5.979,-5.9042,-5.8219,-5.7625,-5.7113,-5.6606,-5.6294,-5.6138,-5.6098,-5.5176,-5.4789,-5.4674,-5.3238,-5.2656,-5.2536,-5.1675,-5.1357,-5.1229,-5.0686,-5.0146,-4.945,0.0,0.0,0.0,0.0,0.0,0.0,0.0,0.0,0.0,0.0,0.0,0.0,0.0,0.0,0.0,0.0,0.0,0.0,-0.0,-0.0095,-0.0099,-0.0,-0.0,-0.0,-0.0,-0.0113,-0.1354,-0.4125,-0.4263,-0.5702,-0.8273,-0.8477,-0.9774,-1.2075,-1.5574,-1.9085,-2.2483,-2.4106,-2.6225,-2.8653,-2.8791,-3.0,-3.1604,-3.128,-3.2783,-3.4848,-3.3603,-3.4186,-3.5727,-3.6136,-3.6644,-3.7047,-3.7112,-3.801,-3.9217,-4.0015,-4.0304,-4.0859,-4.3287,-4.4229,-4.5284,-4.8633,-4.9787,-5.0545,-5.2332,-5.2252,-5.1375,-4.9814,-4.8865,-4.7826,-4.6221,-4.6761,-4.778,-4.8644,-5.0386,-5.2511,-5.5059,-5.5414,-5.6356,-5.8826,-5.8435,-5.8592,-6.0234,-6.043,-6.0508,-6.0586,-6.1328,-6.2148,-6.2969,-6.3047,-6.3047,-6.3008,-6.2148,-6.1246,-6.0342,-5.8616,-5.736,-5.6606,-5.6606,-5.661,-5.6571,-5.5673,-5.5287,-5.5248,-5.4256,-5.3867,-5.3828,-5.2953,-5.2589,-5.2507,-5.1683,-5.1332,-5.1288,-5.1302,-5.1269,-5.091,0.0,0.0,0.0,0.0,0.0,0.0,0.0,0.0,0.0,0.0,0.0,0.0,0.0,0.0,0.0,0.0,0.0,0.0,-0.0454,-0.0844,-0.0868,-0.0494,-0.0209,-0.0216,-0.0544,-0.1011,-0.1144,-0.1148,-0.3796,-0.4948,-0.4596,-0.7011,-0.8817,-1.0341,-1.3844,-1.6228,-1.8058,-2.07,-2.3009,-2.487,-2.5882,-2.7205,-2.8688,-2.9031,-3.0459,-3.2347,-3.2221,-3.3335,-3.4964,-3.5946,-3.7469,-3.8915,-3.9013,-3.9853,-4.0866,-4.1141,-4.1653,-4.2314,-4.2969,-4.4587,-4.6457,-4.8296,-5.0241,-5.1706,-5.192,-5.1431,-5.031,-4.8188,-4.6158,-4.4478,-4.3533,-4.563,-4.7796,-4.8669,-5.1886,-5.4981,-5.6894,-5.7218,-5.7496,-5.8162,-5.8593,-5.9258,-6.0312,-6.0976,-6.1914,-6.3203,-6.289,-6.2773,-6.3008,-6.3633,-6.3672,-6.3008,-6.2148,-6.0973,-5.9444,-5.775,-5.6805,-5.6606,-5.6554,-5.6521,-5.6482,-5.5584,-5.515,-5.5072,-5.3581,-5.3305,-5.3849,-5.294,-5.2562,-5.248,-5.2285,-5.1818,-5.1211,-5.1239,-5.0438,-4.9286,0.0,0.0,0.0,0.0,0.0,0.0,0.0,0.0,0.0,0.0,0.0,0.0,0.0,0.0,0.0,0.0,0.0,0.0,0.0,-0.1099,-0.1305,-0.1035,-0.0779,-0.0598,-0.0703,-0.1232,-0.1252,-0.0631,-0.2524,-0.3706,-0.4405,-0.6165,-0.7663,-0.8962,-1.1919,-1.3725,-1.4713,-1.7635,-1.9649,0.0,0.0,-2.3846,-2.5378,-2.6519,-2.8212,-3.0131,-3.0984,-3.2788,-3.5086,-3.6671,-3.8174,-3.9589,-4.0672,-4.1464,-4.2142,-4.2643,-4.3082,-4.3557,-4.4059,-4.5234,-4.6702,-4.8272,-4.977,-5.0778,-5.0418,-5.0112,-4.9144,-4.6422,-4.4622,-4.3241,-4.2468,-4.4231,-4.6249,-4.751,-5.0409,-5.3461,-5.6315,-5.6401,-5.6756,-5.8281,-5.8906,-5.9531,-6.0312,-6.0859,-6.1836,-6.3594,-6.3281,-6.3164,-6.3555,-6.3279,-6.2885,-6.2416,-6.1509,-6.022,-5.8468,-5.7147,-5.6523,-5.6523,-5.6481,-5.6478,-5.64,-5.5134,-5.458,-5.4498,-5.2723,-5.2239,-5.2668,-5.2207,-5.1966,-5.1921,-5.1921,-5.1647,-5.1202,-5.1197,-5.0586,-4.9604,0.0,0.0,0.0,0.0,0.0,0.0,0.0,0.0,0.0,0.0,0.0,0.0,0.0,0.0,0.0,0.0,0.0,0.0,0.0,0.0,-0.1452,-0.1382,-0.1359,-0.1176,-0.0829,-0.118,-0.1455,-0.148,-0.1274,-0.2737,-0.577,-0.5948,-0.6613,-0.7913,-1.0139,-1.1432,-1.2219,-1.4915,-1.6551,-1.743,-1.8939,-2.0514,-2.2126,0.0,-2.607,-2.8018,-2.97,-3.2231,-3.5137,-3.7463,-3.8819,-3.9926,-4.2078,-4.2936,-4.3274,-4.4195,-4.449,-4.4747,-4.5663,-4.5993,-4.6507,-4.8266,-4.8915,-4.8958,-4.8503,-4.8362,-4.7566,-4.4722,-4.3543,-4.2797,-4.2152,-4.2933,-4.4344,-4.6303,-4.8106,-5.073,-5.5033,-5.4879,-5.5506,-5.8632,-5.9023,-5.9375,-6.0271,-6.0506,-6.1327,-6.3162,-6.3083,-6.3357,-6.4257,-6.256,-6.152,-6.1403,-6.0605,-5.9404,-5.7783,-5.7076,-5.6743,-5.6743,-5.6631,-5.6558,-5.6514,-5.4791,-5.405,-5.3967,-5.2154,-5.1421,-5.1529,-5.1403,-5.1358,-5.1358,-5.1346,-5.1256,-5.1178,-5.1127,-5.0985,-5.0571,0.0,0.0,0.0,0.0,0.0,0.0,0.0,0.0,0.0,0.0,0.056,0.1932,0.0,0.0,0.0,0.0,0.0,0.0,0.0,0.0,0.0,-0.1444,-0.1438,-0.1348,-0.1262,-0.1371,-0.1475,-0.1388,-0.2605,-0.3946,-0.5447,-0.6603,-0.7232,-0.7223,-0.9261,-1.0211,-1.0484,-1.3374,-1.457,-1.4681,-1.7413,-1.8894,-1.9674,-2.2083,0.0,0.0,-2.8311,-3.0483,-3.2614,-3.6058,-3.9201,-4.1812,-4.3135,-4.4377,-4.5359,-4.5285,-4.5442,-4.5663,-4.5919,-4.647,-4.7095,-4.764,-4.8301,-4.8617,-4.7664,-4.5924,-4.4298,-4.3497,-4.1647,-4.0393,-4.1084,-4.252,-4.466,-4.7907,-4.9871,-5.2494,-5.6832,-5.6718,-5.6599,-5.7832,-5.8043,-5.8665,-6.0113,-6.0929,-6.2379,-6.47,-6.3569,-6.3169,-6.4154,-6.2467,-6.1097,-6.0378,-6.0192,-5.9654,-5.8694,-5.8559,-5.8499,-5.8548,-5.7758,-5.7377,-5.7338,-5.5579,-5.4797,-5.4719,-5.2947,-5.2597,-5.3219,-5.2496,-5.2173,-5.2161,-5.2084,-5.1615,-5.102,-5.0851,-5.0339,-4.9705,0.0,0.0,0.0,0.0,0.0,0.0,0.0,-0.154,-0.1572,-0.1633,-0.0706,-0.0,0.0194,0.0191,0.0,0.0,0.0,0.0,0.0,0.0,0.0,0.0,-0.1474,-0.1475,-0.1459,-0.1489,-0.1505,-0.141,0.0,-0.4013,-0.509,-0.6289,-0.7075,-0.753,-0.9624,-1.0518,-1.0416,-1.3205,-1.4256,-1.433,-1.6408,-1.7727,-1.8567,-2.07,0.0,0.0,-2.7525,-2.947,-3.1454,-3.4486,-3.7552,-4.0413,-4.2706,-4.4118,-4.4976,-4.5036,-4.5106,-4.5344,-4.5911,-4.6104,-4.6344,-4.7305,-4.7316,-4.6609,-4.4786,-4.358,-4.2389,-4.0607,-3.9735,-3.9623,-4.0645,-4.2322,-4.4401,-4.6982,-4.8845,-5.1367,-5.5254,-5.5794,-5.6411,-5.8163,-5.9173,-6.0204,-6.1373,-6.1915,-6.2859,-6.4491,-6.2569,-6.2318,-6.463,-6.2601,-6.111,-6.0628,-5.9749,-5.9529,-6.0048,-5.9204,-5.881,-5.8831,-5.7992,-5.7592,-5.7542,-5.5773,-5.5009,-5.4932,-5.365,-5.33,-5.3611,-5.2667,-5.2291,-5.2239,-5.1657,-5.1183,-5.0819,-5.0731,-5.0411,-4.9952,0.0,0.0,0.0,0.0,0.0,0.0,0.0,-0.1592,-0.1635,-0.173,-0.1737,-0.1704,-0.1628,-0.1587,-0.156,0.0,0.0,0.0,0.0,0.0,0.0,0.0,0.0,0.0,-0.1491,0.0,0.0,-0.1811,-0.3007,0.0,0.0,0.0,0.0,0.0,-1.0201,-1.1058,-1.0891,-1.3417,-1.4461,0.0,0.0,-1.681,-1.8036,0.0,0.0,0.0,0.0,-2.8717,-3.0623,-3.2931,-3.5208,-3.7526,-4.0459,-4.2454,-4.3799,-4.4249,-4.4451,-4.4809,-4.6049,-4.6103,-4.6023,-4.7284,-4.654,-4.4857,-4.2396,-4.1622,-4.074,-3.8308,-3.835,-3.9191,-4.0397,-4.1884,-4.3578,-4.5667,-4.7189,-4.962,-5.3805,-5.4749,-5.6129,-5.9131,-6.0612,-6.1734,-6.2573,-6.2663,-6.3025,-6.387,-6.2172,-6.2041,-6.4286,-6.256,-6.1585,-6.166,-6.0383,-6.0306,-6.164,-6.0411,-5.9591,-5.9258,-5.8478,-5.7962,-5.7535,-5.5954,-5.5203,-5.5164,-5.4258,-5.3857,-5.3804,-5.2825,-5.2446,-5.2353,-5.1524,-5.1182,-5.1182,-5.1163,-5.099,-5.0636,0.0,0.0,0.0,0.0,0.0,0.0,0.0,-0.1658,-0.1734,-0.1854,-0.1844,-0.1814,-0.1778,-0.1723,-0.1666,0.0,0.0,0.0,0.0,0.0,0.0,0.0,0.0,0.0,0.0,0.0,0.0,-0.2949,-0.4068,0.0,0.0,0.0,0.0,0.0,0.0,-1.1424,-1.1377,-1.3397,0.0,0.0,0.0,0.0,0.0,0.0,0.0,0.0,0.0,-2.8042,-2.9483,-3.1459,-3.2782,-3.3878,-3.5488,-3.8926,-4.2532,-4.3522,-4.4009,-4.4759,-4.6815,-4.74,-4.751,-4.7773,-4.6646,-4.4886,-4.2619,-4.0382,-3.8795,-3.8537,-3.8156,-3.835,-4.0046,-4.0681,-4.205,-4.5451,-4.6185,-4.8624,-5.5155,-5.5459,-5.6514,-6.0618,-6.1273,-6.1666,-6.2352,-6.2548,-6.2929,-6.3669,-6.4213,-6.3632,-6.1599,-6.2006,-6.2646,-6.3439,-6.3284,-6.3303,-6.3476,-6.3374,-6.2555,-6.105,-6.024,-5.905,-5.7573,-5.6412,-5.5901,-5.5846,-5.4877,-5.4437,-5.436,-5.3551,-5.3204,-5.3185,-5.2895,-5.2773,-5.2773,-5.2656,-5.2165,-5.1491,0.0,0.0,0.0,0.0,0.0,0.0,-0.161,-0.1652,-0.1722,-0.1843,-0.1849,-0.1843,-0.1849,-0.1812,-0.1741,0.0,0.0,0.0,0.0,0.0,0.0,0.0,0.0,0.0,0.0,0.0,-0.2759,-0.3153,-0.4954,0.0,0.0,0.0,0.0,0.0,0.0,-1.1803,-1.1798,-1.374,0.0,0.0,0.0,0.0,0.0,0.0,0.0,0.0,0.0,0.0,-2.8079,-2.9101,-3.0391,-3.161,-3.2043,-3.4271,-3.7235,-4.0007,-4.1204,-4.2105,-4.426,-4.5589,-4.6507,-4.7298,-4.6049,-4.421,-4.2659,-4.0126,-3.8125,-3.8077,-3.785,-3.8146,-3.9699,-4.0241,-4.1253,-4.3656,-4.4253,-4.6113,-5.0938,-5.2119,-5.4129,-5.8428,-5.9876,-6.1197,-6.2994,-6.3243,-6.3377,-6.369,-6.4019,-6.3882,-6.3191,-6.3668,-6.4135,-6.4483,-6.398,-6.3961,-6.4484,-6.3322,-6.2182,-6.1095,-5.963,-5.8353,-5.7284,-5.6286,-5.5882,-5.5882,-5.5461,-5.5287,-5.5172,-5.3763,-5.3433,-5.378,-5.2609,-5.2464,-5.2862,-5.2829,-5.2614,-5.227,0.0,0.0,0.0,0.0,0.0,-0.1575,-0.1622,-0.1663,-0.1727,-0.1839,-0.1862,-0.1872,-0.1884,-0.1858,-0.1794,-0.168,0.0,0.0,0.0,0.0,0.0,0.0,0.0,0.0,0.0,0.0,-0.3823,-0.4225,-0.5861,-0.6865,0.0,0.0,-0.8678,-0.8924,0.0,0.0,0.0,0.0,0.0,0.0,0.0,0.0,0.0,0.0,0.0,0.0,0.0,0.0,0.0,0.0,0.0,-2.9835,-3.0192,-3.1082,-3.2852,-3.6991,-3.8667,-3.9747,-4.2304,-4.3926,-4.5177,-4.6438,-4.5146,-4.3208,-4.2129,-3.9718,-3.7677,-3.747,-3.7572,-3.8074,-3.9336,-3.9886,-4.0748,-4.2451,-4.2986,-4.4496,-4.8218,-4.979,-5.2152,-5.6481,-5.8015,-5.9841,-6.2665,-6.3302,-6.3626,-6.3792,-6.3769,-6.4085,-6.4692,-6.4946,-6.5103,-6.5103,-6.4486,-6.4332,-6.4717,-6.333,-6.2021,-6.0882,-5.9249,-5.8,-5.7062,-5.6174,-5.573,-5.5768,-5.5707,-5.5686,-5.557,-5.4326,-5.4127,-5.445,-5.293,-5.2843,-5.3531,-5.3263,-5.3137,-5.2908,0.0,0.0,0.0,0.0,0.0,0.0,-0.1648,-0.1711,-0.1782,-0.1873,-0.1911,-0.1919,-0.1889,-0.1858,-0.1827,-0.1795,0.0,0.0,0.0,0.0,0.0,0.0,0.0,0.0,0.0,0.0,-0.5427,-0.6731,-0.6952,-0.7655,-0.8825,-0.8996,-0.8989,-0.8924,0.0,0.0,0.0,0.0,0.0,0.0,0.0,0.0,0.0,0.0,0.0,0.0,0.0,0.0,0.0,0.0,0.0,0.0,0.0,-3.008,-3.0639,-3.5217,-3.7024,-3.8253,-4.1678,-4.3103,-4.3979,-4.5351,-4.4021,-4.2125,-4.0879,-3.8916,-3.7218,-3.6883,-3.7257,-3.7968,-3.8859,-3.9524,-4.0473,-4.221,-4.2718,-4.4414,-4.8682,-4.9534,-5.1293,-5.5509,-5.6051,-5.7366,-6.0809,-6.2381,-6.3425,-6.3962,-6.4,-6.4382,-6.5261,-6.5299,-6.5299,-6.5299,-6.5299,-6.484,-6.4029,-6.4078,-6.2897,-6.0608,-5.9796,-5.8578,-5.7081,-5.6049,-5.5577,-5.5615,-5.5465,-5.5403,-5.5403,-5.5365,-5.5365,-5.5288,-5.4409,-5.46,-5.5288,-5.4409,-5.3884,-5.348,0.0,0.0,0.0,0.0,0.0,0.0,0.0,-0.1633,-0.1692,-0.178,-0.1801,-0.1835,-0.1909,-0.187,-0.1853,-0.1885,0.0,0.0,0.0,0.0,0.0,0.0,0.0,0.0,0.0,0.0,-0.6545,-0.7053,-0.8123,-0.8909,-0.9476,-0.9415,-0.9851,-1.0689,-1.2021,-1.3017,0.0,0.0,0.0,0.0,0.0,0.0,-1.9239,0.0,0.0,0.0,0.0,0.0,0.0,0.0,0.0,0.0,0.0,0.0,0.0,-3.2148,-3.3993,-3.5639,-3.7993,-3.9486,-4.0723,-4.215,-4.1221,-3.9901,-3.9685,-3.8121,-3.6786,-3.6929,-3.7496,-3.8125,-3.8626,-3.9212,-4.0231,-4.2002,-4.2536,-4.3579,-4.6146,-4.8046,-5.0483,-5.4127,-5.8117,-6.1006,-6.2106,-6.3138,-6.382,-6.4,-6.4573,-6.4908,-6.4947,-6.4947,-6.5047,-6.5299,-6.5299,-6.4879,-6.4029,-6.2704,-6.1149,-5.9349,-5.7853,-5.666,-5.5721,-5.5555,-5.5465,-5.5465,-5.5428,-5.5403,-5.5365,-5.4753,-5.4699,-5.4914,-5.4078,-5.4124,-5.4623,-5.4358,-5.4182,-5.3898,0.0,0.0,0.0,0.0,0.0,0.0,0.0,-0.1614,-0.1654,-0.171,-0.1735,-0.1783,-0.187,-0.1846,-0.2083,-0.2644,0.0,0.0,0.0,0.0,0.0,0.0,0.0,0.0,0.0,-0.6975,-0.7891,-0.8203,-0.921,-0.98,-1.0055,-1.0007,-1.0492,-1.1482,-1.2439,-1.3408,0.0,0.0,0.0,0.0,0.0,0.0,-1.9315,0.0,0.0,0.0,0.0,0.0,0.0,0.0,0.0,0.0,0.0,0.0,0.0,0.0,-3.1411,-3.2488,-3.5123,-3.6722,-3.7888,-3.9326,-3.8743,-3.7936,-3.8388,-3.7456,-3.6568,-3.6741,-3.7395,-3.7929,-3.8165,-3.8744,-3.9773,-4.16,-4.2181,-4.3118,-4.5239,-4.748,-5.0212,-5.3913,-5.8443,-6.1467,-6.2033,-6.3137,-6.3905,-6.4115,-6.4609,-6.4848,-6.4595,-6.4181,-6.3879,-6.3789,-6.393,-6.3546,-6.2743,-6.088,-5.9299,-5.7959,-5.6576,-5.5637,-5.5163,-5.5055,-5.5,-5.5,-5.5,-5.5,0.0,-5.405,-5.3897,-5.4056,-5.2885,-5.2837,-5.3357,-5.3357,-5.3256,-5.3003,0.0,0.0,0.0,0.0,0.0,0.0,0.0,0.0,-0.1763,-0.1766,-0.1818,-0.1868,-0.1789,-0.1795,-0.229,-0.3714,0.0,0.0,0.0,0.0,0.0,0.0,0.0,0.0,0.0,-0.8282,-0.9168,-1.0007,-1.0186,-1.0421,-1.0493,-1.0748,-1.1061,-1.163,-1.2725,-1.3577,0.0,0.0,0.0,0.0,-1.8286,-1.9118,0.0,0.0,0.0,0.0,0.0,0.0,0.0,0.0,0.0,0.0,0.0,0.0,0.0,0.0,0.0,0.0,0.0,-3.445,-3.5278,-3.6689,-3.6506,-3.6226,-3.6994,-3.676,0.0,-3.6471,-3.7013,-3.7469,-3.7469,-3.8165,-3.9289,-4.1028,-4.1781,-4.3077,-4.5698,-4.7897,-5.0698,-5.476,-5.7596,-5.9612,-6.077,-6.2473,-6.3652,-6.4059,-6.4131,-6.4131,-6.4056,-6.2981,-6.1991,-6.1214,-6.1384,-6.1091,-6.034,-5.8728,-5.7454,-5.6444,-5.5803,-5.5353,-5.5169,-5.4528,-5.4296,-5.4296,-5.4296,-5.4296,-5.4259,-5.3503,-5.3128,-5.2907,-5.1367,-5.111,-5.1748,-5.1753,-5.1516,-5.1231,0.0,0.0,0.0,0.0,0.0,0.0,0.0,0.0,0.0,0.0,-0.2116,-0.2051,-0.2087,-0.1915,-0.2078,0.0,0.0,0.0,0.0,0.0,0.0,0.0,0.0,0.0,0.0,-0.9384,-0.9869,-1.0194,-1.0596,-1.0948,-1.1037,-1.193,-1.2625,-1.3101,-1.4163,-1.4924,0.0,0.0,0.0,0.0,-1.8856,-1.9918,0.0,0.0,0.0,0.0,-2.3299,-2.3907,0.0,0.0,0.0,0.0,0.0,0.0,0.0,0.0,-2.8565,-2.812,-2.9948,0.0,-3.1752,-3.3345,-3.3575,-3.3824,0.0,-3.5301,-3.5325,-3.6299,-3.6839,-3.7097,-3.7097,-3.8187,-3.9564,-4.1077,-4.189,-4.317,-4.5453,-5.0018,-5.393,-5.6191,-5.9809,-6.1505,-5.9852,-6.2103,-6.3173,-6.2081,-6.2308,-6.225,-6.1663,-6.1352,-6.0826,-6.0011,-5.8837,-5.8095,-5.7951,-5.6948,-5.598,-5.5124,-5.4465,-5.4168,-5.413,-5.4161,-5.419,-5.4296,-5.4296,-5.4296,-5.4296,-5.4108,-5.3449,-5.2603,-5.2194,-5.164,-5.1043,-5.1005,-5.1003,-5.0851,0.0,0.0,0.0,0.0,0.0,0.0,0.0,0.0,0.0,0.0,0.0,0.0,0.0,0.0,0.0,0.0,0.0,0.0,0.0,0.0,0.0,0.0,0.0,-0.948,-0.9648,-1.0023,-1.0343,-1.0715,-1.1004,-1.1256,-1.1346,-1.1837,-1.2597,-1.3572,-1.5044,-1.5738,0.0,0.0,0.0,-1.8241,-1.9255,0.0,0.0,0.0,0.0,0.0,-2.3144,-2.3387,0.0,-2.3993,-2.4744,-2.5902,0.0,0.0,0.0,0.0,-2.8421,-2.8014,-2.8966,-2.9859,-3.0852,-3.1931,-3.2573,-3.3215,-3.4108,-3.4471,-3.4787,-3.5504,-3.6103,-3.6609,-3.6915,-3.7831,-3.9045,-4.0709,-4.1758,-4.3573,-4.7062,-5.0426,-5.3781,-5.7075,-5.9626,-6.0895,-6.026,-6.1837,-6.2406,-6.1143,-6.13,-6.1283,-6.0839,-6.025,-5.9605,-5.8804,-5.7042,-5.6426,-5.7106,-5.5881,-5.4986,-5.4412,-5.4142,-5.3514,-5.2733,-5.2934,-5.2864,-5.2605,-5.268,-5.2865,-5.32,-5.2865,-5.253,-5.219,-5.1451,-5.0664,-4.9893,-4.9893,-4.9513,-4.9016,0.0,0.0,0.0,0.0,0.0,0.0,0.0,0.0,0.0,0.0,0.0,0.0,0.0,0.0,0.0,0.0,0.0,0.0,0.0,0.0,0.0,0.0,0.0,-0.9981,-1.0178,-1.0304,-1.0659,-1.1265,-1.1419,-1.1516,-1.1541,-1.1753,-1.2702,-1.4245,-1.5639,-1.6334,0.0,0.0,-1.7478,-1.8753,-1.9654,0.0,0.0,0.0,0.0,0.0,0.0,0.0,0.0,-2.3406,-2.4145,-2.5147,-2.6235,0.0,0.0,0.0,0.0,0.0,-2.8944,-3.0025,-3.1132,-3.1667,-3.2488,-3.3264,-3.3618,-3.4165,-3.4627,-3.4956,-3.5559,-3.6276,-3.7104,-3.7723,-3.8692,-4.0453,-4.2078,-4.4874,-4.9932,-5.0898,-5.2752,-5.7379,-5.8532,-5.9339,-6.0343,-6.1226,-6.1338,-6.0416,-6.0407,-6.0361,-6.025,-5.9197,-5.8202,-5.7397,-5.5656,-5.528,-5.6397,-5.4969,-5.4179,-5.4062,-5.3961,-5.3024,-5.1375,-5.1559,-5.1164,-5.0399,-5.0602,-5.1119,-5.1694,-5.0999,-5.1146,-5.1584,-5.0122,-4.9258,-4.88,-4.8627,-4.8003,-4.739,0.0,0.0,0.0,0.0,0.0,0.0,0.0,0.0,0.0,0.0,0.0,0.0,0.0,0.0,0.0,0.0,0.0,0.0,0.0,0.0,0.0,0.0,-1.0437,-1.0442,-1.0875,-1.0761,-1.094,-1.1459,-1.1484,-1.1581,-1.1856,-1.4,-1.584,-1.7279,-1.7062,-1.6938,-1.6966,-1.6999,-1.7838,-1.9349,-1.9945,0.0,0.0,0.0,0.0,0.0,0.0,0.0,0.0,-2.3513,-2.3841,-2.4529,-2.5421,0.0,0.0,0.0,0.0,0.0,-2.902,-3.0116,-3.1253,-3.1716,-3.2054,-3.2775,-3.4698,-3.4713,-3.4798,-3.6432,-3.6659,-3.697,-3.8185,-3.9302,-4.0319,-4.1357,-4.4587,-4.8717,-5.3763,-5.4553,-5.5233,-5.6964,-5.848,-5.8665,-5.681,-5.8934,-5.9846,-5.838,-5.8604,-5.8478,-5.7788,-5.6939,-5.6128,-5.5366,-5.4496,-5.3862,-5.3441,-5.3049,-5.3126,-5.3769,-5.2582,-5.161,-5.0796,-5.0865,-5.034,-4.9352,-4.9892,-5.0326,-5.0629,-5.0522,-5.0522,-5.0558,-4.9625,-4.9209,-4.8972,-4.766,-4.79,-4.8984,0.0,0.0,0.0,0.0,0.0,0.0,0.0,0.0,0.0,0.0,0.0,0.0,0.0,0.0,0.0,0.0,0.0,0.0,0.0,0.0,0.0,-1.1253,-1.1045,-1.0891,-1.0964,-1.0972,-1.12,-1.1646,-1.1841,-1.1979,-1.2176,-1.4341,-1.5919,-1.7134,-1.7387,-1.7541,-1.7485,-1.7635,-1.8604,-1.9968,0.0,0.0,0.0,0.0,0.0,0.0,0.0,0.0,0.0,0.0,-2.4034,-2.4358,-2.5337,0.0,0.0,0.0,0.0,0.0,-2.953,-3.0213,-3.1018,-3.2017,-3.2945,-3.3888,-3.5044,-3.5029,-3.5177,-3.6451,-3.6551,-3.6921,-3.8683,-4.0079,-4.1963,-4.4952,-4.7265,-4.9968,-5.3605,-5.3531,-5.3976,-5.6418,-5.7253,-5.7427,-5.694,-5.8019,-5.8383,-5.7546,-5.7361,-5.7083,-5.6724,-5.5985,-5.5255,-5.4545,-5.3424,-5.2679,-5.236,-5.1414,-5.1337,-5.2136,-5.1063,-4.9968,-4.8848,-4.891,-4.8484,-4.769,-4.8064,-4.8826,-4.9745,-4.9745,-5.0245,-5.0994,-5.0174,-4.9657,-4.9215,-4.7362,-4.6911,-4.7296,0.0,0.0,0.0,0.0,0.0,0.0,0.0,0.0,0.0,0.0,0.0,0.0,0.0,0.0,0.0,0.0,0.0,0.0,0.0,0.0,-0.9466,-1.1382,-1.1362,-1.1248,-1.1159,-1.1281,-1.1549,-1.1963,-1.228,-1.2537,-1.2978,-1.4488,-1.5735,-1.6587,-1.7654,-1.8096,-1.8124,-1.8236,-1.8979,-2.0006,0.0,0.0,0.0,0.0,0.0,0.0,0.0,0.0,0.0,0.0,0.0,0.0,0.0,0.0,0.0,-2.7891,-2.8791,-2.9624,-3.0088,-3.0394,-3.088,-3.2163,-3.3477,-3.4695,-3.5507,-3.574,-3.6075,-3.703,-3.7191,-3.7673,-3.9434,-4.1044,-4.3523,-4.7905,-4.9372,-5.0926,-5.3789,-5.3106,-5.3513,-5.6595,-5.6407,-5.6428,-5.7384,-5.7191,-5.6918,-5.6776,-5.6366,-5.5984,-5.5806,-5.5114,-5.4256,-5.3458,-5.2096,-5.1269,-5.0974,-4.9622,-4.9466,-5.0559,-4.9802,-4.8767,-4.7385,-4.7487,-4.7116,-4.6379,-4.6447,-4.7298,-4.8537,-4.8749,-4.967,-5.0873,-5.0272,-4.9661,-4.8993,-4.7622,-4.6631,-4.6148,0.0,0.0,0.0,0.0,0.0,0.0,0.0,0.0,0.0,0.0,0.0,0.0,0.0,0.0,0.0,0.0,0.0,0.0,0.0,0.0,-1.1264,-1.15,-1.1484,-1.1557,-1.1711,-1.1727,-1.1987,-1.2507,-1.2702,-1.3492,-1.4699,-1.5728,-1.6618,-1.7322,-1.8296,-1.8729,-1.873,-1.8423,-1.8581,-1.8932,-1.9317,0.0,0.0,0.0,0.0,0.0,0.0,0.0,0.0,0.0,0.0,0.0,0.0,0.0,-2.6069,-2.6894,-2.7971,-2.9106,-3.0139,-3.0753,-3.1241,-3.1759,-3.2589,-3.396,-3.6519,-3.7187,-3.7797,-3.9688,-4.0108,-4.0364,-4.108,-4.2749,-4.5076,-4.8293,-5.0227,-5.278,-5.6771,-5.6664,-5.6685,-5.8164,-5.7035,-5.6255,-5.6599,-5.5977,-5.5555,-5.5519,-5.5519,-5.5109,-5.4371,-5.3598,-5.2509,-5.1068,-5.0376,-4.9366,-4.7914,-4.7318,-4.7911,-4.9749,-4.9159,-4.8432,-4.7568,-4.7622,-4.7059,-4.593,-4.5944,-4.6186,-4.6576,-4.7444,-4.8294,-4.8985,-4.8951,-4.8446,-4.7893,-4.8459,-4.8183,-4.7562,0.0,0.0,0.0,0.0,0.0,0.0,0.0,0.0,0.0,0.0,0.0,0.0,0.0,0.0,0.0,0.0,0.0,0.0,0.0,0.0,-1.071,-1.1663,-1.1671,-1.1703,-1.1776,-1.1882,-1.2247,-1.2889,-1.2988,-1.3917,-1.5238,-1.5418,-1.6299,-1.7728,-1.809,-1.8534,-1.9081,-1.8964,-1.8979,-1.914,-1.945,-1.9638,0.0,0.0,0.0,0.0,0.0,0.0,0.0,0.0,-2.4464,-2.455,-2.455,-2.5105,-2.5902,-2.6423,-2.7335,-2.8358,-2.9049,-2.9732,-3.0467,-3.1133,-3.1897,-3.3301,-3.64,-3.7594,-3.8361,-3.9535,-4.037,-4.1403,-4.3072,-4.5408,-4.7704,-4.9426,-5.2096,-5.472,-5.6707,-5.6639,-5.6748,-5.7443,-5.6536,-5.5889,-5.5799,-5.5183,-5.4948,-5.5402,-5.459,-5.3783,-5.3018,-5.1346,-5.0032,-4.9045,-4.749,-4.6447,-4.5833,-4.5175,-4.4809,-4.4606,-4.6146,-4.6453,-4.5759,-4.6237,-4.601,-4.5239,-4.528,-4.5696,-4.6344,-4.7334,-4.8148,-4.8872,-4.9355,-4.8541,-4.7135,-4.8358,-4.8003,-4.7101,0.0,0.0,0.0,0.0,0.0,0.0,0.0,0.0,0.0,0.0,0.0,0.0,0.0,0.0,0.0,0.0,0.0,0.0,-0.7547,-0.8845,-1.0162,-1.1598,-1.1654,-1.1744,-1.1979,-1.2151,-1.2537,-1.3144,-1.3618,-1.4205,-1.4886,-1.5034,-1.5982,-1.7804,-1.7882,-1.8493,-1.9564,-1.936,-1.9155,-1.9037,-1.9384,-1.9423,0.0,0.0,0.0,0.0,0.0,0.0,0.0,0.0,-2.4272,-2.455,-2.455,-2.4935,-2.5484,-2.5749,-2.653,-2.7537,-2.8218,-2.9076,-2.9856,-3.0794,-3.1676,-3.3238,-3.6388,-3.7895,-3.9026,-4.0375,-4.0995,-4.1882,-4.3807,-4.5853,-4.7761,-4.921,-5.2507,-5.5104,-5.5743,-5.5816,-5.5905,-5.6201,-5.5172,-5.4578,-5.5022,-5.3621,-5.3014,-5.3694,-5.2204,-5.1002,-5.0255,-4.8798,-4.7512,-4.6586,-4.5437,-4.4496,-4.4019,-4.3779,-4.2972,-4.1545,-4.3694,-4.4374,-4.3671,-4.4206,-4.4198,-4.3809,-4.3979,-4.4553,-4.5354,-4.6544,-4.751,-4.8226,-4.8771,-4.792,-4.6447,-4.7257,-4.698,-4.6327,0.0,0.0,0.0,0.0,0.0,0.0,0.0,0.0,0.0,0.0,0.0,0.0,0.0,0.0,0.0,0.0,0.0,0.0,-0.7317,-0.8705,-1.0062,-1.1109,-1.1403,-1.1782,-1.2513,-1.2699,-1.2978,-1.3367,-1.4219,-1.4399,-1.3788,-1.4842,-1.6042,-1.7406,-1.7734,-1.8727,-2.0194,-1.955,-1.8906,-1.8335,-1.8657,-1.84,-1.7852,0.0,0.0,0.0,0.0,0.0,0.0,0.0,-2.3734,-2.4464,-2.455,-2.455,-2.4617,-2.5027,-2.5634,-2.6453,-2.7932,-2.887,-2.9679,-3.0748,-3.1995,-3.3711,-3.6529,-3.8285,-4.007,-4.2783,-4.2273,-4.1751,-4.31,-4.3479,-4.4548,-4.74,-5.0876,-5.3518,-5.4344,-5.4419,-5.4568,-5.4715,-5.2998,-5.2436,-5.4051,-5.1128,-4.9393,-5.0124,-4.8226,-4.6708,-4.5893,-4.5861,-4.5211,-4.3718,-4.4302,-4.3978,-4.2553,-4.3202,-4.2813,-4.1452,-4.2194,-4.2255,-4.1606,-4.1606,-4.1606,-4.1606,-4.1907,-4.2452,-4.3207,-4.4962,-4.6113,-4.6775,-4.6775,-4.6407,-4.5678,-4.4981,-4.5119,-4.5616,0.0,0.0,0.0,0.0,0.0,0.0,0.0,0.0,0.0,0.0,0.0,0.0,0.0,0.0,0.0,0.0,0.0,0.0,-0.7327,-0.8667,-0.9824,-1.1101,-1.1637,-1.1846,-1.1938,-1.2864,-1.3618,-1.4146,-1.4205,-1.4189,-1.3967,-1.4211,-1.4939,-1.5776,-1.699,-1.784,-1.8658,-1.9132,-1.9126,-1.8929,-1.8795,-1.8852,-1.8966,0.0,0.0,0.0,0.0,0.0,0.0,0.0,0.0,0.0,-2.4272,-2.4843,-2.527,-2.521,-2.5815,-2.6558,-2.6837,-2.7883,-2.9277,-3.0443,-3.2071,-3.4153,-3.6716,-3.7947,-3.9583,-4.326,-4.3337,-4.3166,-4.448,-4.5603,-4.6545,-4.6951,-4.9209,-5.1182,-5.1898,-5.1623,-5.1456,-5.1761,-5.0375,-4.9583,-4.9871,-4.8486,-4.7697,-4.7893,-4.6841,-4.5893,-4.5179,-4.4581,-4.4129,-4.3654,-4.3363,-4.3025,-4.255,-4.1799,-4.0716,-3.9405,-3.9124,-3.9912,-4.1545,-4.2093,-4.2061,-4.1545,-4.2248,-4.2201,-4.1756,-4.3502,-4.4948,-4.6046,-4.6076,-4.5332,-4.4428,-4.5722,-4.6024,-4.5799,0.0,0.0,0.0,0.0,0.0,0.0,0.0,0.0,0.0,0.0,-0.388,-0.3899,0.0,0.0,0.0,-0.3861,-0.4448,0.0,-0.7426,-0.8274,-0.9518,-1.146,-1.1808,-1.2,-1.2142,-1.325,-1.3899,-1.4178,-1.4024,-1.3964,-1.3882,-1.3882,-1.455,-1.5634,-1.6984,-1.7852,-1.849,-1.927,-1.9509,-1.9179,-1.9205,-1.9323,-1.9486,0.0,0.0,0.0,0.0,0.0,0.0,0.0,0.0,0.0,-2.3994,-2.4492,-2.4732,-2.4872,-2.546,-2.6191,-2.6472,-2.7378,-2.8736,-3.0667,-3.2479,-3.4517,-3.7429,-3.9311,-4.1405,-4.481,-4.4556,-4.4068,-4.5486,-4.6042,-4.6333,-4.6562,-4.82,-4.9456,-4.9647,-4.9423,-4.912,-4.9062,-4.7933,-4.7252,-4.7373,-4.6072,-4.5391,-4.5681,-4.4509,-4.3699,-4.3504,-4.3126,-4.2994,-4.3178,-4.2785,-4.2478,-4.2185,-4.1086,-3.9985,-3.8908,-3.8231,-3.8745,-4.0324,-4.0227,-3.9941,-3.9561,-4.1023,-4.1372,-4.1142,-4.2842,-4.3847,-4.4399,-4.4528,-4.3848,-4.2976,-4.4561,-4.5111,-4.5062,0.0,0.0,-0.3796,-0.385,0.0,0.0,0.0,0.0,0.0,-0.3867,-0.3913,-0.4052,0.0,0.0,0.0,-0.4108,-0.3989,-0.4947,-0.7578,-0.7795,-0.9044,-1.1664,-1.1907,-1.2214,-1.2958,-1.3676,-1.3882,-1.3693,-1.3882,-1.3873,-1.3665,-1.3703,-1.465,-1.6258,-1.7225,-1.8158,-1.9137,-1.9671,-1.9643,-1.931,-1.9918,-1.9876,-1.9693,-2.0233,0.0,0.0,0.0,0.0,0.0,0.0,0.0,0.0,-2.357,-2.3742,-2.3674,-2.4346,-2.4892,-2.5507,-2.6595,-2.7266,-2.8303,-3.1343,-3.3294,-3.5277,-3.8649,-4.1635,-4.4356,-4.6515,-4.5585,-4.4863,-4.6202,-4.5424,-4.498,-4.6303,-4.7619,-4.8202,-4.7711,-4.758,-4.7265,-4.6708,-4.5596,-4.517,-4.5885,-4.3817,-4.269,-4.3321,-4.1465,-4.0576,-4.1392,-4.1413,-4.172,-4.2406,-4.2425,-4.2015,-4.1281,-4.0576,-3.9841,-3.9106,-3.8433,-3.8126,-3.8065,-3.7121,-3.6661,-3.6784,-3.8673,-4.008,-4.1055,-4.2385,-4.2642,-4.2202,-4.2343,-4.2031,-4.1588,-4.2315,-4.3042,-4.3769,0.0,0.0,-0.3845,-0.3858,0.0,0.0,0.0,0.0,-0.3875,-0.3861,-0.4398,-0.4674,-0.4661,-0.5093,0.0,-0.551,-0.5242,-0.5877,-0.7482,-0.8329,-0.9422,-1.0938,-1.2,-1.2976,-1.3742,-1.3797,-1.374,-1.3693,-1.374,-1.3655,-1.3466,-1.3788,-1.4194,-1.4788,-1.5899,-1.6851,-1.794,-1.8225,-1.9022,-1.9799,-1.9977,-2.0116,-2.019,-2.0348,-2.0416,0.0,0.0,0.0,0.0,0.0,0.0,0.0,-2.33,-2.4226,-2.4769,-2.4573,-2.5381,-2.6389,-2.6623,-2.7469,-2.9011,-3.1761,-3.5486,-3.8972,-4.145,-4.2507,-4.3324,-4.4356,-4.5026,-4.5815,-4.6867,-4.686,-4.6616,-4.6395,-4.6207,-4.6018,-4.5879,-4.494,-4.4369,-4.4527,-4.3376,-4.2643,-4.2661,-4.1036,-4.0092,-4.0284,-3.9222,-3.8987,-3.9745,-3.9743,-4.0099,-4.0872,-4.0753,-4.0153,-3.9047,-3.8296,-3.7382,-3.6232,-3.5516,-3.5192,-3.5288,-3.7157,-3.8077,-3.8046,-3.759,-3.8366,-4.0013,-3.9401,-3.9716,-4.0563,-4.0161,-4.0258,-4.0666,-4.1491,-4.2631,-4.3737,0.0,0.0,0.0,0.0,0.0,0.0,0.0,0.0,-0.4872,-0.4872,-0.5147,-0.5418,-0.5418,-0.5624,0.0,0.0,-0.6262,-0.7025,-0.8385,-0.9252,-1.0281,-1.1663,-1.2732,-1.3423,-1.3561,-1.3551,-1.3495,-1.3391,-1.3296,-1.3343,-1.3532,-1.3759,-1.3967,-1.429,-1.61,-1.7138,-1.742,-1.8794,-1.9717,-2.0249,-2.035,-2.0553,-2.067,-2.0829,-2.0798,-2.0607,-2.0241,0.0,0.0,0.0,0.0,0.0,0.0,0.0,-2.4098,-2.4547,-2.521,-2.5894,-2.6476,-2.7302,-2.8765,-3.209,-3.5713,-3.8788,-4.02,-4.0896,-4.1423,-4.1937,-4.3698,-4.5331,-4.5962,-4.5843,-4.5572,-4.5371,-4.4169,-4.3271,-4.3271,-4.2093,-4.1171,-4.1008,-4.0625,-4.0098,-3.9698,-3.8796,-3.8309,-3.8309,-3.7945,-3.7872,-3.8339,-3.8881,-3.9408,-3.989,-3.973,-3.943,-3.876,-3.7725,-3.6983,-3.6606,-3.5967,-3.5677,-3.5648,-3.6268,-3.6484,-3.6454,-3.616,-3.6646,-3.7647,-3.7455,-3.7764,-3.8439,-3.8208,-3.8647,-3.9524,-4.0572,-4.1778,-4.2887,0.0,0.0,0.0,0.0,0.0,0.0,0.0,0.0,0.0,-0.5884,-0.6018,-0.6031,-0.6031,-0.6141,-0.6259,0.0,0.0,0.0,-0.9612,-1.0394,-1.1402,-1.2975,-1.34,-1.3495,-1.3183,-1.3315,-1.3287,-1.3069,-1.2899,-1.3136,-1.374,-1.3674,-1.3908,-1.4298,-1.6583,-1.7491,-1.764,-1.9528,-2.045,-2.0617,-2.0822,-2.0925,-2.0956,-2.1242,-2.1179,-2.0877,-2.0591,-2.067,-2.0979,-2.1278,0.0,0.0,0.0,0.0,-2.3043,-2.4303,-2.4742,-2.5147,-2.6152,-2.713,-2.8834,-3.2391,-3.5136,-3.7067,-3.7741,-3.86,-3.9285,-3.9876,-4.2021,-4.3919,-4.4177,-4.3979,-4.3718,-4.3537,-4.2129,-4.0995,-4.0792,-3.9658,-3.8686,-3.7986,-3.841,-3.8388,-3.7644,-3.7325,-3.7126,-3.7011,-3.6777,-3.6749,-3.7113,-3.7976,-3.8582,-3.8851,-3.8698,-3.8592,-3.8477,-3.7336,-3.6917,-3.7394,-3.6802,-3.6544,-3.6487,-3.4823,-3.4214,-3.4486,-3.4922,-3.5165,-3.5194,-3.5926,-3.6201,-3.6201,-3.6556,-3.7278,-3.8312,-3.9534,-4.0646,-4.1767,0.0,0.0,0.0,0.0,0.0,0.0,0.0,0.0,0.0,0.0,-0.635,-0.6766,-0.6766,-0.7175,-0.7884,-0.8714,-0.896,-0.9407,-1.0499,0.0,0.0,-1.3825,-1.358,-1.3485,-1.3608,-1.3466,-1.3287,-1.3069,-1.3041,-1.3353,-1.3958,-1.3599,-1.4091,-1.5112,-1.4888,-1.6204,-1.8596,-1.8185,-1.9063,-2.0822,-2.0925,-2.0925,-2.0925,-2.0972,-2.0956,-2.0909,-2.0861,-2.0877,-2.1011,-2.1963,-2.2045,0.0,0.0,0.0,-2.3319,-2.3531,-2.421,-2.504,-2.5612,-2.8098,-3.0949,-3.2863,-3.4544,-3.6161,-3.7617,-3.7783,-3.7814,-3.871,-4.0696,-4.2241,-4.2157,-4.2838,-4.2782,-4.08,-4.0659,-4.035,-3.9357,-3.9049,-3.8686,-3.8195,-3.8859,-3.8875,-3.7825,-3.7272,-3.6711,-3.6222,-3.5065,-3.4858,-3.609,-3.5703,-3.5986,-3.719,-3.6512,-3.5894,-3.5374,-3.521,-3.4908,-3.447,-3.4388,-3.4361,-3.4334,-3.3567,-3.3912,-3.5027,-3.4632,-3.4428,-3.4428,-3.4516,-3.4612,-3.467,-3.539,-3.635,-3.7416,-3.8212,-3.9617,-4.1005,0.0,0.0,0.0,0.0,0.0,0.0,0.0,0.0,0.0,0.0,0.0,-0.75,-0.75,-0.8187,-0.8787,-0.9207,-1.0158,-1.1083,-1.1902,-1.2374,-1.2812,-1.3476,-1.3419,-1.3372,-1.3343,-1.3249,-1.3107,-1.2899,-1.3228,-1.3848,-1.4607,-1.4781,-1.5105,-1.5584,-1.5839,-1.7002,-1.877,-1.8735,-1.9554,-2.0925,-2.0925,-2.0925,-2.0925,-2.0925,-2.0925,-2.0925,-2.1216,-2.1318,-2.1522,-2.2636,-2.2815,-2.274,-2.3311,0.0,0.0,0.0,-2.3565,-2.4068,-2.5555,-2.7334,-2.9311,-3.1448,-3.2925,-3.4021,-3.4626,-3.509,-3.5347,-3.5219,-3.6506,-3.8054,-3.9563,-3.9968,-3.9834,-3.9422,-3.8559,-3.7924,-3.809,-3.7098,-3.6387,-3.6551,-3.6443,-3.6276,-3.6294,-3.5228,-3.4816,-3.5306,-3.4089,-3.3769,-3.4733,-3.4765,-3.5036,-3.5668,-3.568,-3.5601,-3.533,-3.533,-3.5194,-3.495,-3.495,-3.476,-3.4329,-3.3837,-3.3724,-3.3996,-3.3381,-3.3101,-3.3101,-3.3101,-3.3101,-3.3129,-3.348,-3.4512,-3.5783,-3.6447,-3.774,-3.9195,0.0,0.0,0.0,0.0,0.0,0.0,0.0,0.0,0.0,0.0,0.0,-0.7872,-0.7872,0.0,0.0,0.0,-1.0867,-1.1927,-1.2862,-1.2937,-1.3013,-1.306,-1.3221,-1.3211,-1.2994,-1.3041,-1.305,-1.2904,-1.3347,-1.4188,-1.5411,-1.61,-1.6458,-1.6592,-1.7396,-1.8365,-1.9266,-1.9793,-2.0496,-2.129,-2.1036,-2.0925,-2.0925,-2.0925,-2.0925,-2.0925,-2.1318,-2.1623,-2.1827,-2.282,-2.3238,-2.3367,-2.3481,-2.3176,0.0,0.0,0.0,-2.3213,-2.5283,-2.6285,-2.7285,-2.9559,-3.0997,-3.1931,-3.2225,-3.2978,-3.3434,-3.2947,-3.3305,-3.4435,-3.6645,-3.7122,-3.7343,-3.7869,-3.677,-3.6058,-3.6868,-3.5252,-3.4166,-3.4477,-3.4069,-3.3866,-3.4079,-3.3463,-3.3329,-3.402,-3.3199,-3.2935,-3.3592,-3.4017,-3.4199,-3.4366,-3.4768,-3.4901,-3.4768,-3.4768,-3.4848,-3.4982,-3.5009,-3.4874,-3.4578,-3.3977,-3.3485,-3.3098,-3.2426,-3.2182,-3.2182,-3.2182,-3.2182,-3.2209,-3.2345,-3.332,-3.463,-3.5022,-3.623,-3.7663,0.0,0.0,0.0,0.0,0.0,0.0,0.0,0.0,0.0,0.0,0.0,-0.7872,-0.7872,-0.7994,-0.872,-1.0543,-1.0636,-1.1286,-1.2946,-1.288,-1.2871,-1.306,-1.3079,0.0,-1.2786,-1.2965,-1.3209,-1.3227,-1.3335,-1.4344,-1.6269,-1.6785,-1.7691,-1.8891,-1.8782,-1.9494,-2.0709,-2.067,-2.1324,-2.2323,-2.1322,-2.0925,-2.0925,-2.0925,-2.0925,-2.0925,-2.0925,-2.1216,-2.1827,-2.2316,-2.292,-2.3367,-2.3481,-2.3176,-2.2868,0.0,0.0,0.0,-2.4295,-2.524,-2.6309,-2.76,-2.8908,-3.0364,-3.215,-3.242,-3.2688,-3.3601,-3.3023,-3.2611,-3.3208,-3.5065,-3.631,-3.56,-3.5791,-3.5948,-3.5476,-3.4084,-3.2902,-3.2508,-3.3119,-3.2947,-3.1528,-3.2786,-3.3283,-3.2298,-3.2072,-3.2239,-3.2834,-3.2854,-3.2962,-3.3044,-3.307,-3.2813,-3.2326,-3.2326,-3.2529,-3.307,-3.3092,-3.3357,-3.3832,-3.3315,-3.3179,-3.3098,-3.2426,-3.2182,-3.2182,-3.2182,-3.2182,-3.2236,-3.2806,-3.3704,-3.463,-3.463,-3.5683,-3.6972,0.0,0.0,0.0,0.0,0.0,0.0,0.0,0.0,0.0,0.0,0.0,0.0,0.0,-0.8964,-1.0016,-1.0517,-1.1429,-1.2203,-1.2562,-1.2597,-1.2654,-1.2862,-1.2994,-1.3032,-1.2965,-1.3164,-1.3412,-1.3517,-1.4002,-1.5052,-1.6571,-1.7241,-1.799,-1.8829,-1.8565,-1.9312,-2.0809,-1.9821,-2.0405,-2.1767,-2.1163,-2.0925,-2.0925,-2.0925,-2.0925,-2.0925,-2.1318,-2.1725,-2.2333,-2.282,-2.3438,-2.3917,-2.3969,-2.3474,-2.272,-2.2153,-2.2205,-2.2678,-2.3621,-2.4291,-2.5026,-2.6309,-2.7785,-2.8985,-2.9363,-3.0405,-3.1381,-3.114,-3.0733,-3.0717,-3.153,-3.2787,-3.371,-3.339,-3.3529,-3.3603,-3.3518,-3.2734,-3.2176,-3.2435,-3.1991,-3.1772,-3.2093,-3.1988,-3.2248,-3.3115,-3.2298,-3.2306,-3.3283,-3.2617,-3.244,-3.288,-3.2577,-3.2294,-3.2063,-3.2063,-3.2166,-3.2397,-3.2432,-3.233,-3.2149,-3.1967,-3.1677,-3.131,-3.1101,-3.1681,-3.2752,-3.2752,-3.2969,-3.3322,-3.3539,-3.4077,-3.4749,-3.4749,-3.5347,-3.6163,0.0,0.0,0.0,0.0,0.0,0.0,0.0,0.0,0.0,0.0,0.0,0.0,0.0,0.0,-1.0477,-1.0902,-1.2135,-1.2776,-1.2559,-1.255,-1.2616,-1.2758,-1.3032,-1.3145,-1.3069,-1.3442,-1.3709,-1.4085,-1.4643,-1.5648,-1.6903,-1.7541,-1.8082,-1.8674,-1.8312,-1.9338,-2.1129,-2.0246,-2.0714,-2.2084,-2.1385,-2.1163,-2.129,-2.1528,-2.1481,-2.129,-2.182,-2.2328,-2.2706,-2.2972,-2.3538,-2.4134,-2.3987,-2.34,-2.2612,-2.1933,-2.2006,-2.2391,-2.2787,-2.3256,-2.3973,-2.5224,-2.6405,-2.7373,-2.7923,-2.9159,-3.0024,-3.0013,-2.9838,-2.9965,-3.0746,-3.1295,-3.1715,-3.2064,-3.2106,-3.2106,-3.2219,-3.1639,-3.1205,-3.1484,-3.0791,-3.0531,-3.1025,-3.0855,-3.1174,-3.2426,-3.1896,-3.1958,-3.2932,-3.2265,-3.1893,-3.1938,-3.1291,-3.0889,-3.0889,-3.0889,-3.0964,-3.1165,-3.1204,-3.1105,-3.0849,-3.088,-3.0676,-3.0317,-3.0317,-3.1109,-3.2421,-3.2648,-3.3073,-3.3611,-3.3792,-3.4221,-3.4814,-3.4597,-3.5031,-3.5683,0.0,0.0,0.0,0.0,0.0,0.0,0.0,0.0,0.0,-0.7877,0.0,0.0,0.0,0.0,0.0,-1.1854,-1.2605,-1.2994,-1.2786,-1.2776,-1.2776,-1.2776,-1.3173,-1.3287,-1.3079,-1.365,-1.422,-1.4891,-1.4976,-1.5888,-1.7455,-1.7455,-1.7877,-1.8613,-1.8094,-1.9344,-2.1652,-2.1744,-2.2443,-2.3403,-2.2005,-2.1655,-2.2053,-2.272,-2.2561,-2.2005,-2.2339,-2.279,-2.3066,-2.2689,-2.3273,-2.4115,-2.3694,-2.2997,-2.2263,-2.1878,-2.2025,-2.2245,0.0,0.0,0.0,-2.4355,-2.4735,-2.5523,-2.8152,-2.8544,-2.8815,-3.0448,-3.0493,-3.0319,-3.0799,-3.0493,-3.051,-3.1478,-3.1665,-3.1665,-3.1665,-3.0777,-3.0009,-2.955,-2.9466,-2.9123,-2.8156,-2.933,-3.0239,-3.0239,-3.0691,-3.1139,-3.1673,-3.1625,-3.1144,-3.0086,-2.9051,-2.8522,-2.8522,-2.8522,-2.8763,-2.9268,-2.9352,-2.9613,-3.0189,-3.0188,-3.0241,-3.0241,-3.0266,-3.0599,-3.111,-3.181,-3.2383,-3.3014,-3.3665,-3.4275,-3.4708,-3.414,-3.4654,-3.5548,0.0,0.0,0.0,0.0,0.0,0.0,-0.8356,-0.8236,-0.81,0.0,0.0,0.0,-0.9239,-1.0543,-1.1856,-1.3122,-1.3302,-1.3211,-1.2994,-1.2984,-1.2984,-1.2984,-1.3249,-1.3362,-1.3306,-1.4025,-1.46,-1.5128,-1.5389,-1.5939,-1.6911,-1.6706,-1.7276,-1.8453,-1.8491,-1.9529,-2.1174,-2.0086,-2.1011,-2.307,-2.191,-2.1814,-2.2339,-2.2275,-2.2132,-2.1973,-2.2069,-2.2724,-2.3494,-2.3391,-2.4085,-2.4904,-2.4207,-2.3437,-2.2703,-2.2282,-2.2245,-2.23,-2.219,0.0,0.0,0.0,0.0,0.0,-2.4908,-2.6128,-2.7572,-2.8837,-2.87,-2.8935,-3.0569,-2.9947,-2.9261,-2.96,-2.9847,-2.9959,-2.9691,-2.9371,-2.9276,-2.952,-2.9157,-2.9245,-3.003,-3.0158,-3.0303,-3.0674,-3.1227,-3.1337,-3.1139,-3.0754,-3.0037,-2.8979,-2.8667,-2.8522,-2.8522,-2.8522,-2.857,-2.8715,-2.873,-2.8809,-2.8955,-2.8943,-2.8973,-2.8973,-2.9365,-2.9854,-3.0425,-3.1592,-3.2584,-3.3488,-3.3654,-3.384,-3.4053,-3.4389,-3.4357,-3.434,0.0,0.0,-0.8508,-0.8579,0.0,-0.8388,-0.8416,-0.8356,-0.8269,0.0,0.0,0.0,-1.0645,-1.2358,-1.3509,-1.3958,-1.3684,-1.3466,-1.3334,-1.3249,-1.3202,-1.3202,-1.34,-1.3561,-1.3646,-1.441,-1.5108,-1.5526,-1.5886,-1.6405,-1.6863,-1.6694,-1.7004,-1.7767,-1.8148,-1.9158,-2.041,-1.9535,-2.045,-2.2529,-2.2069,-2.2132,-2.2513,-2.2752,-2.2656,-2.2418,-2.2561,-2.3382,-2.4299,-2.3623,-2.421,-2.5104,-2.4162,-2.3822,-2.3529,-2.2593,-2.2575,-2.2758,-2.241,-2.2447,-2.263,-2.2795,0.0,0.0,-2.4083,-2.482,-2.5819,-2.7579,-2.7552,-2.7627,-2.912,-2.8924,-2.8464,-2.8201,-2.8912,-2.9248,-2.8549,-2.8637,-2.8943,-2.9423,-2.9226,-2.9452,-3.0511,-3.0334,-3.0348,-3.0823,-3.0995,-3.102,-3.0894,-3.0405,-2.9797,-2.9196,-2.8739,-2.8522,-2.8522,-2.8522,-2.8522,-2.8522,-2.8522,-2.8522,-2.8522,-2.8739,-2.8835,-2.8859,-2.9388,-2.9941,-3.0507,-3.1215,-3.224,-3.33,-3.3556,-3.3725,-3.3725,-3.4147,-3.4063,-3.3802,0.0,0.0,-0.859,-0.8606,-0.8617,-0.86,-0.8513,-0.8486,-0.8443,0.0,-0.9349,-1.0877,-1.2817,-1.4123,-1.4808,-1.4411,-1.3996,-1.375,-1.3721,-1.3532,-1.3419,-1.3419,-1.3618,-1.3807,-1.4089,-1.4945,-1.5526,-1.6024,-1.6553,-1.6887,-1.7092,-1.7171,-1.7261,-1.7326,-1.7862,-1.8752,-1.9807,-1.9879,-2.0678,-2.1878,-2.2275,-2.2498,-2.2704,-2.3594,-2.3546,-2.3054,-2.3371,-2.4171,-2.5042,-2.3603,-2.4008,-2.4969,-2.4008,-2.4189,-2.4409,-2.2905,-2.2942,-2.3327,-2.2648,-2.274,-2.2994,-2.34,-2.274,0.0,-2.4431,-2.4162,-2.4132,-2.6403,-2.6597,-2.6476,-2.7057,-2.7626,-2.7821,-2.7097,-2.8292,-2.8964,-2.812,-2.8451,-2.9001,-2.9288,-2.931,-2.9483,-3.0024,-3.0024,-3.0177,-3.0568,-3.0157,-3.0165,-3.0621,-3.0185,-2.9893,-2.9906,-2.9027,-2.8522,-2.8522,-2.8522,-2.8522,-2.8522,-2.8522,-2.8546,-2.8619,-2.9076,-2.934,-2.9412,-2.9893,-3.0374,-3.0879,-3.0879,-3.1539,-3.2636,-3.3215,-3.3471,-3.3471,-3.3632,-3.3632,-3.3649,-0.6451,-0.7655,-0.8617,-0.8715,-0.8818,-0.8905,-0.8981,-0.891,-0.8872,-0.8948,-1.0646,-1.2384,-1.3899,-1.4656,-1.5073,-1.4837,-1.443,-1.4118,-1.3958,-1.375,-1.3627,-1.3627,-1.3835,-1.4125,-1.4461,-1.5571,-1.6178,-1.6369,-1.7055,-1.7249,-1.7092,-1.7641,-1.8079,-1.851,-1.932,-2.0044,-2.0705,-2.0992,-2.105,-2.1179,-2.1814,-2.2577,-2.3324,-2.3244,-2.3133,-2.3022,-2.3101,-2.3569,-2.4323,-2.4879,-2.5089,-2.5112,-2.5009,-2.4666,-2.4152,-2.3492,-2.3198,-2.3012,-2.3253,-2.3363,-2.3268,-2.303,-2.3382,0.0,-2.2612,-2.2963,-2.3767,-2.4598,-2.4633,-2.4996,-2.6552,-2.6886,-2.6764,-2.6303,-2.7329,-2.8082,-2.7819,-2.8452,-2.8781,-2.8655,-2.8288,-2.837,-2.927,-2.8941,-2.8737,-2.884,-2.8536,-2.8464,-2.8813,-2.8627,-2.8641,-2.8881,-2.8674,-2.8522,-2.8522,-2.8522,-2.8522,-2.8522,-2.8522,-2.8739,-2.9148,-2.9244,-2.9532,-2.9941,-3.0037,-3.0374,-3.0879,-3.0879,-3.1279,-3.1937,-3.2001,-3.2089,-3.2225,-3.3195,-3.3192,-3.2918,-0.6849,-0.7784,-0.8644,-0.8829,0.0,-0.9084,-0.9198,-0.922,-0.9523,-1.0161,-1.2381,-1.4198,-1.5059,-1.5496,-1.5498,-1.4978,-1.4648,-1.4383,-1.4175,-1.3967,-1.3797,-1.3693,-1.3797,-1.4256,-1.4963,-1.5582,-1.631,-1.6793,-1.7256,-1.7418,-1.7286,-1.76,-1.7843,-1.8007,-1.8742,-1.9356,-1.9911,-2.0345,-2.0763,-2.1242,-2.1941,-2.2434,-2.2768,-2.2942,-2.3022,-2.3022,-2.3022,-2.336,-2.4033,-2.5238,-2.5821,-2.5931,-2.5481,-2.5509,-2.5454,-2.4464,-2.4024,-2.3822,-2.3602,-2.3547,-2.3547,-2.3547,-2.3547,0.0,0.0,-2.2942,-2.3146,-2.4031,-2.3711,-2.3615,-2.4833,-2.5215,-2.5326,-2.514,-2.6309,-2.7082,-2.6628,-2.7582,-2.835,-2.8408,-2.8164,-2.8387,-2.9031,-2.889,-2.8589,-2.8146,-2.7959,-2.7756,-2.75,-2.7412,-2.7347,-2.7245,-2.7084,-2.7244,-2.7649,-2.7753,-2.8099,-2.8522,-2.8522,-2.8787,-2.9316,-2.9581,-2.9989,-3.047,-3.047,-3.0783,-3.124,-3.0975,-3.1192,-3.1673,-3.1673,-3.1673,-3.1809,-3.2723,-3.2762,-3.275,-0.7383,-0.8051,-0.8655,-0.8878,0.0,0.0,-0.9285,-0.9389,-1.0041,-1.167,-1.3744,-1.5397,-1.6037,-1.6178,-1.5999,-1.5404,-1.4912,-1.4629,-1.461,-1.4232,-1.3939,-1.3759,-1.375,-1.4246,-1.5165,-1.5508,-1.6112,-1.7032,-1.7339,-1.7479,-1.7479,-1.7664,-1.7518,-1.7412,-1.7914,-1.8426,-1.894,-1.9313,-2.0001,-2.1062,-2.1604,-2.1885,-2.2037,-2.2672,-2.2911,-2.2927,-2.299,-2.336,-2.3904,-2.5128,-2.5993,-2.6406,-2.57,-2.6206,-2.6774,-2.5326,-2.4941,-2.4849,-2.4097,-2.4005,-2.4134,-2.4152,-2.3895,-2.3694,0.0,0.0,0.0,-2.3767,-2.3198,-2.2703,-2.3217,-2.3579,-2.3862,-2.3699,-2.5102,-2.5918,-2.5145,-2.6251,-2.7317,-2.7772,-2.7811,-2.7949,-2.839,-2.843,-2.8133,-2.7419,-2.7361,-2.7049,-2.6423,-2.6277,-2.6157,-2.5889,-2.568,-2.5906,-2.6565,-2.6835,-2.7348,-2.8259,-2.8259,-2.8626,-2.9316,-2.9749,-3.0278,-3.0855,-3.0759,-3.1072,-3.1625,-3.1096,-3.1192,-3.1673,-3.1673,-3.1721,-3.1889,-3.2442,-3.2707,-3.2923,-0.7383,-0.8051,-0.8633,-0.8769,0.0,0.0,0.0,-0.9313,-1.0227,-1.2678,-1.3559,-1.4838,-1.6694,-1.6651,-1.6556,-1.6831,-1.5498,-1.4931,-1.564,-1.4638,-1.4005,-1.3977,-1.3977,-1.4144,-1.471,-1.5655,-1.6398,-1.6617,-1.7162,-1.7479,-1.7479,-1.8161,-1.8363,-1.8197,-1.8807,-1.9098,-1.9125,-1.8766,-1.8865,-1.9509,-1.958,-2.058,-2.2005,-2.2402,-2.2545,-2.2593,-2.2895,-2.3022,-2.3231,-2.4462,-2.4958,-2.5162,-2.5738,-2.6243,-2.6481,-2.5564,-2.5546,-2.5729,-2.5289,-2.5693,-2.5913,-2.45,-2.5179,-2.5637,-2.3565,0.0,-2.4244,-2.329,0.0,-2.3217,-2.2575,0.0,0.0,-2.2116,-2.3407,-2.4258,-2.3785,-2.4572,-2.5303,-2.5693,-2.5748,-2.5767,-2.5804,-2.5804,-2.5767,-2.5674,-2.5405,-2.5258,-2.5431,-2.5366,-2.547,-2.5771,-2.5911,-2.5894,-2.5652,-2.5819,-2.6423,-2.7348,-2.7348,-2.8035,-2.9292,-2.9364,-2.9941,-3.0855,-3.0374,-3.0735,-3.1625,-3.1096,-3.1192,-3.1673,-3.1673,-3.1961,-3.2466,-3.2996,-3.3477,-3.3958,-0.7383,-0.8051,-0.8649,-0.884,0.0,0.0,0.0,-1.0243,-1.1631,-1.3424,-1.4452,-1.57,-1.732,-1.6991,-1.6783,-1.7076,-1.6141,-1.5574,-1.5678,-1.4969,-1.4496,-1.4374,-1.4137,-1.445,-1.5216,-1.5634,-1.6222,-1.6754,-1.7197,-1.7406,-1.7249,-1.76,-1.7653,-1.7628,-1.7525,-1.7851,-1.8424,-1.8117,-1.8517,-1.9483,-1.9301,-2.02,-2.1644,-2.193,-2.2336,-2.2815,-2.2958,-2.3247,-2.3552,-2.3878,-2.4744,-2.5646,-2.5599,-2.6224,-2.6866,-2.6082,-2.5973,-2.5876,-2.5472,-2.5784,-2.6004,-2.5087,-2.5381,-2.5546,-2.4299,-2.4042,-2.3987,-2.3712,0.0,0.0,0.0,0.0,0.0,0.0,-2.3162,-2.3474,-2.3529,-2.3639,-2.4134,-2.5234,-2.5161,-2.5124,-2.5344,-2.5161,-2.5032,-2.5032,-2.4647,-2.4424,-2.4291,-2.4181,-2.4184,-2.4137,-2.4236,-2.452,-2.4861,-2.4955,-2.5757,-2.7185,-2.7185,-2.7953,-2.9292,-2.9292,-2.9701,-3.0398,-3.0182,-3.0518,-3.1192,-3.0975,-3.1192,-3.1697,-3.201,-3.2298,-3.2611,-3.3428,-3.3861,-3.4126,-0.7116,-0.7917,-0.8644,-0.8823,0.0,0.0,0.0,-1.0375,-1.1841,-1.3528,-1.4549,-1.5812,-1.7704,-1.7398,-1.7275,-1.7832,-1.7095,-1.65,-1.6254,-1.5583,-1.5044,-1.4733,-1.4317,-1.4576,-1.5458,-1.5592,-1.61,-1.68,-1.715,-1.7358,-1.7298,-1.7165,-1.7165,-1.7286,-1.6899,-1.7165,-1.7893,-1.7626,-1.8194,-1.9175,-1.8795,-1.9594,-2.1186,-2.1704,-2.2348,-2.3022,-2.3022,-2.3231,-2.3648,-2.3497,-2.4411,-2.5544,-2.5302,-2.5839,-2.6583,-2.614,-2.6188,-2.6136,-2.5839,-2.6078,-2.6279,-2.5546,-2.5454,-2.5362,-2.4757,-2.4317,-2.4097,-2.428,-2.4042,0.0,0.0,0.0,-2.3474,-2.3529,0.0,-2.3217,-2.3492,-2.3107,-2.3308,-2.4702,-2.4721,-2.4776,-2.5179,-2.4849,-2.4611,-2.4611,-2.4225,-2.3859,-2.3565,-2.3547,-2.3419,-2.303,-2.3187,-2.3458,-2.3929,-2.4142,-2.4955,-2.634,-2.667,-2.7451,-2.875,-2.8994,-2.9364,-2.9893,-3.0037,-3.0374,-3.0879,-3.1023,-3.1312,-3.1745,-3.2442,-3.2707,-3.2827,-3.3717,-3.4126,-3.4318,-0.6451,-0.7655,-0.859,-0.8595,-0.8698,-0.8818,-0.8948,-0.8981,-0.9959,-1.2809,-1.3313,-1.4586,-1.8041,-1.7955,-1.8276,-1.9703,-1.8513,-1.7757,-1.7955,-1.6623,-1.5555,-1.495,-1.4525,-1.4461,-1.5003,-1.5582,-1.6057,-1.6549,-1.6878,-1.7358,-1.7841,-1.7334,-1.7358,-1.7853,-1.7829,-1.7829,-1.7936,-1.7669,-1.7705,-1.7888,-1.7389,-1.8479,-2.0544,-2.1942,-2.272,-2.3022,-2.3022,-2.3006,-2.3119,-2.368,-2.3921,-2.4049,-2.4701,-2.5069,-2.5518,-2.571,-2.6229,-2.6864,-2.6646,-2.7123,-2.7325,-2.5766,-2.5656,-2.5637,-2.4445,-2.4757,-2.5216,-2.4831,-2.5344,-2.5637,-2.4886,-2.4739,-2.4464,0.0,-2.3529,0.0,0.0,-2.285,-2.2667,-2.3492,-2.3932,-2.4335,-2.4757,-2.4427,-2.417,-2.417,-2.3785,-2.3547,-2.3547,-2.3547,-2.3529,-2.3529,-2.3703,-2.3504,-2.2793,-2.3229,-2.3713,-2.4211,-2.5316,-2.634,-2.729,-2.8122,-2.8835,-2.934,-2.9869,-3.0374,-3.0903,-3.1432,-3.1649,-3.1769,-3.2851,-3.326,-3.3332,-3.3837,-3.4366,-3.4799,-0.6317,-0.725,-0.8051,-0.8456,-0.8622,-0.8747,-0.903,-0.9139,-0.9977,-1.2306,-1.2474,-1.3742,-1.7535,-1.7495,-1.7944,-1.9859,-1.9288,-1.8617,-1.8276,-1.7398,-1.6736,-1.6386,-1.5706,-1.5701,-1.6287,-1.6497,-1.6691,-1.7028,-1.7375,-1.7696,0.0,-1.7334,-1.737,-1.7853,-1.7334,-1.7286,-1.7599,-1.7334,-1.751,-1.7995,-1.8551,-1.9652,-2.1038,-2.166,-2.2332,-2.3022,-2.3022,-2.3022,-2.3022,-2.3247,-2.3585,-2.3954,-2.3958,-2.4411,-2.5001,-2.5345,-2.5909,-2.6632,-2.6939,-2.7563,-2.7856,-2.6518,-2.6279,-2.6059,-2.4849,-2.5179,-2.5582,-2.4922,-2.5637,-2.6133,-2.5326,-2.5179,-2.4996,0.0,-2.4134,-2.3767,0.0,-2.2923,-2.2942,-2.3474,-2.3657,-2.3914,-2.4317,-2.3987,-2.3749,-2.3749,-2.3382,-2.3176,-2.3529,-2.3547,-2.3657,-2.3932,-2.3888,-2.3802,-2.3522,-2.3423,-2.3781,-2.4466,-2.5096,-2.6214,-2.769,-2.7589,-2.8071,-2.8873,-2.9386,-2.9712,-3.001,-3.1168,-3.1889,-3.2298,-3.302,-3.3501,-3.3837,-3.4366,-3.4679,-3.4823,-0.6329,-0.725,-0.8051,-0.8456,-0.866,-0.878,-0.8976,-0.928,-1.0122,-1.1912,-1.2045,-1.3254,-1.6705,-1.7099,-1.7861,-1.9581,-1.9767,-1.9486,-1.8626,-1.8201,-1.7719,-1.7133,-1.6519,-1.6404,-1.6947,-1.712,-1.7325,-1.7417,-1.7966,-1.8251,-1.8155,-1.7624,-1.7599,-1.7998,-1.7491,-1.7406,-1.7624,-1.7648,-1.7793,-1.7906,-1.8669,-1.9448,-2.0296,-2.0585,-2.178,-2.3356,-2.2746,-2.2667,-2.3022,-2.3022,-2.3327,-2.3699,-2.3582,-2.404,-2.4675,-2.5366,-2.5881,-2.6522,-2.7191,-2.7875,-2.8132,-2.7068,-2.6793,-2.6518,-2.5436,-2.5821,-2.6206,-2.5564,-2.6151,-2.6628,-2.6114,-2.5784,-2.5454,0.0,0.0,-2.3822,0.0,-2.2774,-2.2957,-2.3308,-2.3584,-2.3804,-2.3932,-2.3694,-2.3419,-2.3125,-2.2868,-2.2811,-2.3308,-2.3327,-2.3584,-2.4134,-2.4091,-2.3888,-2.374,-2.3692,-2.3866,-2.4326,-2.4954,-2.5929,-2.7256,-2.7108,-2.7415,-2.8158,-2.9007,-2.9412,-2.9569,-3.1294,-3.2178,-3.2563,-3.3284,-3.3741,-3.4102,-3.4631,-3.4944,-3.5112,-0.6488,-0.7665,-0.8606,-0.8606,-0.8785,-0.8905,-0.8818,-0.9383,-1.0338,-1.1597,-1.2134,-1.3043,-1.5327,-1.6719,-1.7957,-1.8845,-2.0042,-2.0168,-1.9136,-1.9032,-1.8484,-1.7284,-1.7001,-1.6981,-1.7116,-1.7684,-1.7916,-1.7632,-1.8581,-1.8939,-1.8686,-1.8131,-1.8022,-1.8275,-1.8263,-1.8106,-1.7889,-1.8408,-1.8324,-1.7829,-1.7599,-1.794,-1.8542,-1.879,-2.0985,-2.3724,-2.22,-2.2199,-2.2893,-2.3022,-2.3244,-2.3514,-2.3546,-2.3769,-2.4258,-2.5543,-2.6182,-2.6641,-2.7549,-2.8095,-2.8223,-2.7435,-2.7215,-2.6995,-2.6206,-2.6646,-2.7123,-2.6701,-2.694,-2.7215,-2.716,-2.6499,-2.5821,0.0,0.0,-2.373,-2.2575,-2.274,-2.2902,-2.2921,-2.3675,-2.3969,-2.3584,-2.3529,-2.318,-2.2392,-2.2318,-2.2502,-2.2848,-2.2884,-2.3345,-2.4134,-2.4152,-2.3969,-2.3584,-2.3758,-2.3823,-2.371,-2.4874,-2.5513,-2.5875,-2.6704,-2.706,-2.7171,-2.8722,-2.9392,-2.9573,-3.1632,-3.2448,-3.2683,-3.3551,-3.3983,-3.4078,-3.4582,-3.5208,-3.5665,-0.6341,-0.765,-0.8856,-0.8856,-0.8758,-0.8823,-0.9242,-0.9459,-0.9998,-1.1083,-1.143,-1.2378,-1.4547,-1.4964,-1.6302,-1.8702,-1.9242,-1.9523,-1.9999,-1.9855,-1.9458,-1.8976,-1.8314,-1.8144,-1.8642,-1.8487,-1.8659,-1.8936,-1.8841,-1.8855,-1.8963,-1.8215,-1.7913,-1.7974,-1.7781,-1.7648,-1.7587,-1.7732,-1.7708,-1.7587,-1.772,-1.8439,-1.9469,-1.8307,-1.9575,-2.1933,-2.174,-2.1729,-2.2085,-2.278,-2.307,-2.3197,-2.3467,-2.361,-2.3837,-2.4911,-2.583,-2.6693,-2.7293,-2.8147,-2.8718,-2.8205,-2.7838,-2.749,-2.6976,-2.749,-2.7875,-2.7178,-2.7581,-2.7801,-2.6903,-2.6316,-2.5729,-2.5051,-2.4244,-2.3694,-2.3675,-2.351,-2.351,-2.3804,-2.3767,-2.3657,-2.3547,-2.3272,-2.2793,-2.2355,-2.2318,-2.2502,-2.2848,-2.314,-2.362,-2.4134,-2.4152,-2.4097,-2.4005,-2.3888,-2.3972,-2.4165,-2.4619,-2.5445,-2.6372,-2.6162,-2.6492,-2.7243,-2.8833,-2.9427,-2.9586,-3.1155,-3.2512,-3.3575,-3.3051,-3.3198,-3.3993,-3.5055,-3.5737,-3.6194,-0.6389,-0.7931,-0.9106,-0.9106,-0.9166,-0.9307,-0.9595,-0.9688,-0.997,-1.0666,-1.1058,-1.1754,-1.3011,-1.387,-1.5355,-1.7787,-1.8532,-1.9271,-2.0252,-2.0355,-2.01,-1.9618,-1.9061,-1.8741,-1.8827,-1.8683,-1.863,-1.8677,-1.8691,-1.884,-1.8891,0.0,-1.7817,-1.7696,-1.7551,-1.7479,-1.7491,-1.7612,-1.772,-1.7841,-1.7865,-1.8249,0.0,-1.7958,-1.847,-1.9668,-2.0252,-2.0716,-2.1174,-2.2085,-2.2534,-2.2704,-2.3368,-2.3642,-2.3949,-2.5008,-2.5847,-2.6643,-2.7393,-2.8318,-2.8938,-2.87,-2.8352,-2.7985,-2.7765,-2.7911,-2.804,-2.7765,-2.7783,-2.771,-2.7196,-2.6334,-2.5436,-2.4629,-2.3969,-2.362,-2.3859,-2.3694,-2.362,-2.3859,-2.384,-2.373,-2.3565,-2.3015,-2.2502,-2.2098,-2.2226,-2.2502,-2.2848,-2.3231,-2.373,-2.4134,-2.4335,-2.4335,-2.4152,-2.4313,-2.4282,-2.4388,-2.4697,-2.5256,-2.6019,-2.5995,-2.629,-2.6972,-2.8376,-2.9074,-2.9214,-3.0643,-3.1802,-3.2586,-3.2429,-3.2757,-3.3555,-3.4406,-3.4889,-3.5224,-0.6631,-0.8111,-0.934,-0.9307,-0.9715,-1.0025,-0.9965,-1.0085,-1.0302,-1.0628,-1.109,-1.1389,-1.1389,-1.2954,-1.4798,-1.6284,-1.7787,-1.907,-2.0018,-2.0449,-2.0478,-1.9751,-1.9448,-1.9042,-1.8494,-1.8523,-1.8381,-1.8058,-1.835,-1.8592,0.0,0.0,0.0,-1.7479,-1.7443,-1.743,-1.7455,-1.7744,-1.7974,-1.8131,-1.7986,-1.7768,-1.7563,-1.7829,-1.7768,-1.7657,-1.8466,-1.9372,-2.027,-2.1174,-2.171,-2.2311,-2.3115,-2.37,-2.4252,-2.5234,-2.5963,-2.6628,-2.7572,-2.8259,-2.8856,-2.8783,-2.8645,-2.8388,-2.8333,-2.8077,-2.793,-2.8242,-2.7746,-2.7325,-2.7563,-2.6334,-2.5069,-2.4354,-2.3932,-2.373,-2.3767,-2.373,-2.3712,-2.3712,-2.3932,0.0,-2.3584,-2.2905,-2.2318,-2.1933,-2.2263,-2.2648,-2.2921,-2.34,-2.3804,-2.4225,-2.4592,-2.4666,-2.439,-2.4702,-2.4804,-2.4771,-2.4914,-2.5191,-2.5506,-2.619,-2.6465,-2.6584,-2.8005,-2.8569,-2.8711,-3.0056,-3.0694,-3.0824,-3.1711,-3.2338,-3.2922,-3.3095,-3.3179,-3.3463,-0.7517,-0.8775,-0.9541,-0.934,-0.9786,-1.0264,-1.0536,-1.0846,-1.1112,-1.1275,-1.1716,-1.2015,-1.2015,-1.2295,-1.311,-1.461,-1.6292,-1.7747,-1.8954,-2.0007,-2.0526,-2.0384,-1.9684,-1.925,-1.9136,-1.8456,-1.8306,-1.8651,-1.8261,-1.8152,0.0,0.0,0.0,0.0,0.0,-1.7165,-1.7189,-1.7672,-1.7648,-1.7358,-1.7974,-1.8058,-1.7829,-1.8118,-1.8046,-1.7805,-1.8044,-1.8488,-1.9345,-2.027,-2.1103,-2.181,-2.2598,-2.3417,-2.43,-2.4939,-2.5619,-2.6244,-2.6415,-2.7297,-2.8051,-2.7712,-2.8074,-2.8297,-2.7948,-2.8095,-2.8205,-2.793,-2.7765,-2.749,-2.6903,-2.5748,-2.4831,-2.4702,-2.4611,-2.4684,-2.5014,-2.4776,-2.4574,-2.4574,-2.4024,-2.362,-2.3547,-2.3419,-2.3162,-2.2683,-2.3107,-2.3363,-2.3437,-2.3822,-2.4244,-2.4666,-2.4739,-2.5051,-2.5637,-2.5399,-2.5607,-2.6057,-2.6031,-2.6168,-2.6372,-2.6773,-2.6914,-2.7035,-2.8554,-2.9145,-2.9166,-2.9828,-3.035,-3.0641,-3.1162,-3.1662,-3.1968,-3.1156,-3.0983,-3.1761,-0.7564,-0.8735,-0.9628,-0.9234,-0.9935,-1.0527,-1.0366,-1.1109,-1.1645,-1.1395,-1.1563,-1.1705,-1.1705,-1.1982,-1.2733,-1.4234,-1.5099,-1.5982,-1.7466,-1.8143,-1.863,-1.9151,-1.8676,-1.8566,-1.8815,-1.8106,-1.804,-1.8624,-1.7716,-1.7655,0.0,-1.7732,-1.7406,-1.7274,0.0,-1.7165,-1.731,-1.7563,-1.7684,-1.7744,-1.8143,-1.8215,-1.8106,-1.8239,-1.8034,-1.7684,-1.7829,-1.8064,-1.8323,-1.9402,-2.0027,-2.0564,-2.1503,-2.2379,-2.3089,-2.39,-2.4811,-2.5588,-2.5968,-2.6813,-2.7366,-2.7295,-2.7434,-2.7597,-2.7597,-2.7682,-2.7765,-2.7765,-2.76,-2.7215,-2.6408,-2.5784,-2.5326,-2.5124,-2.5087,-2.4936,-2.4491,-2.4171,-2.3923,-2.3838,-2.3309,-2.3251,-2.3761,-2.3859,-2.3602,-2.2902,-2.3231,-2.3547,-2.3547,-2.3932,-2.4244,-2.4445,-2.4867,-2.5179,-2.5344,-2.5564,-2.5779,-2.5866,-2.5975,-2.6088,-2.6191,-2.6814,-2.7117,-2.7156,-2.8296,-2.8931,-2.9172,-2.9615,-2.9916,-3.0158,-3.0469,-3.079,-3.099,-3.0699,-3.1146,-3.2133,-0.7146,-0.8439,-0.9331,-0.8945,-0.9938,-1.061,-1.0347,-1.131,-1.2004,-1.1525,-1.1465,-1.1465,-1.1465,-1.1889,-1.2722,-1.3821,-1.4088,-1.4752,-1.5824,-1.6219,-1.6533,-1.7288,-1.7058,-1.7163,-1.7684,-1.7162,-1.7159,-1.757,-1.6995,-1.7125,-1.778,-1.7422,-1.7193,-1.7008,-1.7129,-1.7225,-1.7322,-1.743,-1.7696,-1.8046,-1.8155,-1.8203,-1.8215,-1.8275,-1.8022,-1.7684,-1.7889,-1.7829,-1.7815,-1.8791,-1.9283,-1.9469,-2.0468,-2.1293,-2.1979,-2.2686,-2.3641,-2.4508,-2.5051,-2.57,-2.6172,-2.6089,-2.6101,-2.6162,-2.6416,-2.6399,-2.6519,-2.6775,-2.6578,-2.6149,-2.5326,-2.5183,-2.5094,-2.4791,-2.4738,-2.4439,-2.355,-2.3123,-2.2871,-2.2804,-2.245,-2.2705,-2.3755,-2.3854,-2.3681,-2.3253,-2.3492,-2.3675,-2.3675,-2.3969,-2.4189,-2.428,-2.4996,-2.5307,-2.5161,-2.5784,-2.5986,-2.5748,-2.599,-2.6057,-2.6057,-2.6989,-2.7353,-2.7372,-2.8038,-2.8535,-2.8965,-2.9492,-2.9707,-2.9746,-3.0176,-3.0351,-3.0391,-3.0762,-3.146,-3.2363,-0.6452,-0.7393,-0.8339,-0.9031,-0.9711,-1.0352,-1.1271,-1.1862,-1.215,-1.2096,-1.2085,-1.2085,-1.2085,-1.214,-1.2129,-1.2201,-1.3474,-1.4152,-1.4388,-1.5319,-1.6046,-1.6049,-1.5564,-1.5462,-1.5241,-1.5556,-1.5501,-1.5434,-1.5924,-1.6266,-1.6275,-1.6457,-1.6634,-1.6754,-1.7237,-1.7201,-1.6803,-1.7286,-1.737,-1.7249,-1.772,-1.7913,-1.7937,-1.8191,-1.8263,-1.8227,-1.8239,-1.8239,-1.8251,-1.8641,-1.901,-1.935,-1.9758,-2.074,-2.1751,-2.2089,-2.2298,-2.2409,-2.2466,-2.2966,-2.3375,-2.3063,-2.3293,-2.3696,-2.3372,-2.3535,-2.3785,-2.3537,-2.3392,-2.3247,-2.2844,-2.2763,-2.2747,-2.2715,-2.2715,-2.2718,-2.3055,-2.2672,-2.232,-2.2001,-2.1666,-2.1745,-2.2552,-2.2636,-2.3003,-2.4042,-2.4079,-2.4097,-2.4097,-2.4134,-2.4335,-2.4702,-2.5142,-2.5711,-2.6408,-2.6499,-2.6683,-2.6995,-2.6955,-2.6877,-2.6877,-2.7561,-2.7795,-2.7902,-2.8155,-2.8535,-2.8984,-2.9805,-3.0137,-3.0176,-3.0644,-3.082,-3.084,-3.0879,-3.0995,-3.1112,-0.5507,-0.7174,-0.8906,-0.903,-0.9945,-1.0753,-1.0911,-1.1673,-1.2172,-1.2172,-1.2172,-1.2145,-1.2069,-1.2063,-1.2015,-1.1895,-1.2369,-1.2665,-1.2612,-1.2942,-1.3462,-1.4194,-1.3981,-1.4041,-1.4512,-1.4569,-1.4406,-1.4298,-1.4973,-1.5352,-1.5442,-1.5741,-1.6121,-1.648,-1.7193,-1.737,-1.7189,-1.7563,-1.7756,-1.7829,-1.8046,-1.8131,-1.8118,-1.8058,-1.8046,-1.8058,-1.8227,-1.83,-1.8336,-1.8601,-1.879,-1.9013,-1.93,-1.9962,-2.0722,-2.1128,-2.1464,-2.1866,-2.2062,-2.2355,-2.2438,-2.231,-2.2602,-2.281,-2.2483,-2.2955,-2.3262,-2.3012,-2.3048,-2.3244,-2.2988,-2.2895,-2.2768,-2.2768,-2.2768,-2.2592,-2.1941,-2.1501,-2.1106,-2.0846,-2.0363,-2.04,-2.1404,-2.1505,-2.2013,-2.3138,-2.3836,-2.4152,-2.4152,-2.4152,-2.4354,-2.4776,-2.5161,-2.5637,-2.6206,-2.6463,-2.6664,-2.683,-2.7013,-2.7142,-2.716,-2.7936,-2.8603,-2.8953,-2.9316,-2.9531,-2.9726,-3.0351,-3.0605,-3.0625,-3.082,-3.0898,-3.0898,-3.0898,-3.0898,-3.0898,-0.4326,-0.6213,-0.7972,-0.8696,-0.988,-1.077,-1.1167,-1.1794,-1.2161,-1.2123,-1.2118,-1.2085,-1.1998,-1.196,-1.1895,-1.1775,-1.1656,-1.1569,-1.1531,-1.1335,-1.1686,-1.2417,-1.2276,-1.2542,-1.3164,-1.3246,-1.3087,-1.2949,-1.3735,-1.4031,-1.4097,-1.4851,-1.5591,-1.6377,-1.7114,-1.7434,-1.7612,-1.7877,-1.8118,-1.8287,-1.8203,-1.8167,-1.8143,-1.7865,-1.7853,-1.8022,-1.8227,-1.8396,-1.8553,-1.8734,-1.8794,-1.8819,-1.8927,-1.9385,-1.9839,-2.0144,-2.0446,-2.0953,-2.1168,-2.1222,-2.1222,-2.1222,-2.1423,-2.141,-2.1227,-2.164,-2.202,-2.1936,-2.2154,-2.2342,-2.2342,-2.207,-2.1957,-2.1957,-2.1957,-2.1631,-2.0831,-2.0258,-1.9775,-1.9661,-1.9177,-1.924,-2.0277,-2.0364,-2.0877,-2.1912,-2.3038,-2.3854,-2.4152,-2.4262,-2.4482,-2.4776,-2.5271,-2.5674,-2.5949,-2.6499,-2.6756,-2.6756,-2.716,-2.7343,-2.7361,-2.8314,-2.901,-2.9478,-3.0019,-3.0195,-3.0234,-3.0703,-3.0898,-3.0898,-3.0898,-3.0898,-3.0898,-3.0898,-3.0898,-3.0898,-0.3306,-0.3696,-0.4832,-0.8531,-0.9126,-0.9883,-1.1789,-1.2172,-1.2129,-1.2009,-1.1993,-1.1987,-1.1987,-1.1889,-1.177,-1.165,-1.1525,-1.1406,-1.1286,-1.1166,-1.1047,-1.0927,-1.0802,-1.0683,-1.0721,-1.1306,-1.1517,-1.0938,-1.1945,-1.2203,-1.202,-1.356,-1.5176,-1.6782,-1.7043,-1.7509,-1.7889,-1.8167,-1.8287,-1.8263,-1.7986,-1.7877,-1.7853,-1.7587,-1.7817,-1.8287,-1.83,-1.8625,-1.906,-1.9072,-1.9072,-1.9024,-1.877,-1.8867,-1.9072,-1.9072,-1.9072,-1.9072,-1.92,-1.9072,-1.9072,-1.9072,-1.92,-1.9127,-1.9099,-1.9162,-1.9212,-1.9685,-1.976,-1.98,-1.98,-1.9676,-1.9488,-1.9488,-1.9488,-1.9488,-1.9372,-1.9105,-1.8811,-1.8517,-1.8223,-1.8331,-1.9153,-1.9228,-1.9642,-2.0775,-2.1912,-2.3038,-2.4152,-2.4556,-2.4776,-2.4776,-2.5546,-2.5949,-2.5968,-2.6756,-2.7178,-2.7178,-2.7563,-2.7765,-2.7765,-2.8446,-2.8897,-2.9161,-2.9906,-3.0195,-3.0234,-3.0703,-3.0898,-3.0898,-3.0898,-3.0898,-3.0898,-3.0898,-3.0898,-3.0898,-0.0565,-0.283,-0.5289,-0.722,-0.894,-1.063,-1.1871,-1.2047,-1.2004,-1.1889,-1.1797,-1.1748,-1.1748,-1.1716,-1.1612,-1.1406,-1.1351,-1.1281,-1.1166,-1.1047,-1.0922,-1.0802,-1.0677,-1.052,-1.0318,-1.0521,-1.0429,-1.0053,-1.1053,-1.1573,-1.1605,-1.3354,-1.4332,-1.469,-1.6545,-1.7405,-1.7433,-1.8197,-1.8456,-1.8287,-1.8191,-1.8155,-1.8155,-1.807,-1.8143,-1.8312,-1.8493,-1.8674,-1.8843,-1.9012,-1.9072,-1.906,-1.8976,-1.9012,-1.9072,-1.9072,-1.9072,-1.9072,-1.9072,-1.9072,-1.9072,-1.9072,-1.9072,-1.9012,-1.886,-1.9175,-1.9699,-2.019,-2.0354,-2.0334,-2.0134,-1.9853,-1.9599,-1.9399,-1.9372,-1.9372,-1.9372,-1.8945,-1.8597,-1.8504,-1.8036,-1.7795,-1.8108,-1.8094,-1.8617,-1.9642,-2.0775,-2.1912,-2.2937,-2.4134,-2.4904,-2.5179,-2.5693,-2.6096,-2.6389,-2.6921,-2.7178,-2.7196,-2.7875,-2.8449,-2.8941,-2.9175,-2.9524,-2.9988,-3.0238,-3.0413,-3.0684,-3.082,-3.0898,-3.0898,-3.0898,-3.0898,-3.0898,-3.0898,-3.0898,-3.0898,0.0954,-0.1333,-0.3801,-0.6246,-0.8134,-0.9804,-1.1573,-1.1922,-1.1884,-1.1764,-1.1683,-1.1618,-1.1574,-1.1525,-1.1438,-1.1286,-1.1188,-1.1112,-1.1036,-1.0878,-1.077,-1.0737,-1.0536,-1.0373,-1.0275,-1.0182,-1.0003,-0.9731,-1.0257,-1.0593,-1.1149,-1.2216,-1.3294,-1.4105,-1.6053,-1.7301,-1.7725,-1.8554,-1.8686,-1.8432,-1.8336,-1.8227,-1.8131,-1.8131,-1.8203,-1.8312,-1.8481,-1.8662,-1.8855,-1.9024,-1.9072,-1.9072,-1.9072,-1.9072,-1.9072,-1.9072,-1.9072,-1.9072,-1.9072,-1.9072,-1.9072,-1.9072,-1.9072,-1.9036,-1.8867,-1.9323,-1.9751,-2.0322,-2.0506,-2.0465,-2.0294,-2.0,-1.9706,-1.9412,-1.9372,-1.9332,-1.9212,-1.8784,-1.849,-1.849,-1.8063,-1.7796,-1.7916,-1.7929,-1.8197,-1.8696,-2.0361,-2.1522,-2.2112,-2.3941,-2.5179,-2.5582,-2.5986,-2.6389,-2.6811,-2.7196,-2.7471,-2.7636,-2.8297,-2.8855,-2.9331,-2.945,-2.9804,-3.0274,-3.0392,-3.0626,-3.0898,-3.0898,-3.0898,-3.0898,-3.0898,-3.0898,-3.0898,-3.0898,-3.0898,-3.0898,0.1142,0.0953,-0.0759,-0.5626,-0.6556,-0.7838,-1.1273,-1.1808,-1.1764,-1.1639,-1.1618,-1.1569,-1.1455,-1.1324,-1.1248,-1.1248,-1.1047,-1.0916,-1.0905,-1.0688,-1.0601,-1.071,-1.0384,-1.0253,-1.0356,-1.0139,-0.9954,-0.9824,-0.9492,-0.9632,-1.036,-1.048,-1.1978,-1.4583,-1.5508,-1.6737,-1.8256,-1.8641,-1.8752,-1.8601,-1.836,-1.8118,-1.7901,-1.7925,-1.8094,-1.8324,-1.8348,-1.8662,-1.9084,-1.9096,-1.912,-1.9132,-1.9132,-1.912,-1.9096,-1.9084,-1.9072,-1.9072,-1.9072,-1.9072,-1.9072,-1.9072,-1.9072,-1.9072,-1.9072,-1.9328,-1.9711,-1.9979,-2.0155,-2.0244,-2.0172,-2.0013,-1.9733,-1.9412,-1.9372,-1.9265,-1.8998,-1.8704,-1.8517,-1.8517,-1.8263,-1.8183,-1.8464,-1.849,-1.837,-1.8103,-2.0342,-2.1676,-2.1481,-2.3948,-2.5619,-2.5986,-2.6444,-2.6848,-2.7215,-2.7618,-2.8022,-2.8443,-2.881,-2.8975,-2.8975,-2.9331,-2.9587,-2.9979,-3.0313,-3.0567,-3.0937,-3.0937,-3.0937,-3.0937,-3.0898,-3.0918,-3.0937,-3.0898,-3.0898,-3.0898,0.2614,0.151,-0.0,-0.2788,-0.5218,-0.7824,-1.118,-1.1688,-1.1634,-1.1514,-1.1417,-1.1346,-1.1319,-1.1128,-1.1003,-1.1003,-1.0954,-1.0878,-1.0786,-1.0639,-1.053,-1.0471,-1.0297,-1.0172,-1.0106,-1.0052,-0.9916,-0.9709,-0.9622,-0.9606,-0.9644,-1.015,-1.0935,-1.172,-1.3118,-1.4503,-1.6014,-1.6413,-1.7213,-1.8058,-1.7998,-1.8058,-1.8215,-1.842,-1.8541,-1.8613,-1.8819,-1.8976,-1.9108,-1.9301,-1.9519,-1.97,-1.97,-1.9543,-1.9338,-1.9132,-1.9072,-1.9072,-1.9072,-1.9072,-1.9072,-1.9072,-1.9072,-1.9072,-1.9072,-1.9328,-1.9584,-1.9711,-2.017,-2.0354,-1.9846,-1.9932,-1.996,-1.9452,-1.9372,-1.9345,-1.9265,-1.9011,-1.8824,-1.8824,-1.8571,-1.841,-1.8477,-1.849,-1.8464,-1.8397,-1.9728,-2.0595,-2.0883,-2.3426,-2.5448,-2.6426,-2.7123,-2.7526,-2.7618,-2.804,-2.8443,-2.8847,-2.8938,-2.8975,-2.8975,-2.9094,-2.9517,-3.0054,-3.0414,-3.0773,-3.1011,-3.1249,-3.1367,-3.1328,-3.1016,-3.1094,-3.1328,-3.1016,-3.0898,-3.0937,0.2983,0.2445,0.0942,-0.1482,-0.3326,-0.6069,-1.0881,-1.1525,-1.1455,-1.1384,-1.1313,-1.1253,-1.1199,-1.1031,-1.0922,-1.0922,-1.0867,-1.0786,-1.0661,-1.0541,-1.0449,-1.0389,-1.0215,-1.0112,-1.0106,-1.0047,-0.9905,-0.9671,-0.9671,-0.9546,-0.9302,-0.9683,-1.0187,-1.0799,-1.1942,-1.3092,-1.4376,-1.5684,-1.6721,-1.727,-1.8042,-1.8336,-1.8481,-1.8505,-1.865,-1.8879,-1.9024,-1.9229,-1.947,-1.9615,-1.976,-1.9881,-1.9881,-1.9784,-1.9627,-1.9483,-1.935,-1.9289,-1.941,-1.9446,-1.9422,-1.9289,-1.9253,-1.9217,-1.9096,-1.92,-1.9456,-1.9571,-1.9839,-2.0055,-1.9736,-1.9876,-1.98,-1.9466,-1.9372,-1.9319,-1.9185,-1.9025,-1.8918,-1.8918,-1.8784,-1.8798,-1.9065,-1.9092,-1.9038,-1.8905,-2.0118,-2.0867,-2.0911,-2.3731,-2.5544,-2.6056,-2.7209,-2.7856,-2.804,-2.8462,-2.8773,-2.8975,-2.8975,-2.8975,-2.8975,-2.8975,-2.9453,-3.0083,-3.0238,-3.0496,-3.1026,-3.119,-3.123,-3.123,-3.1191,-3.1328,-3.1504,-3.1484,-3.1484,-3.1504,0.2983,0.2994,0.2054,-0.0553,-0.1461,-0.3616,-0.8952,-1.0817,-1.145,-1.1253,-1.1232,-1.1183,-1.1085,-1.0965,-1.0889,-1.0889,-1.0797,-1.0683,-1.0563,-1.0449,-1.0378,-1.0362,-1.0139,-1.0068,-1.0172,-1.0074,-0.9916,-0.9693,-0.9677,-0.9552,-0.9329,-0.9177,-0.9536,-1.0524,-1.1047,-1.1847,-1.2933,-1.5196,-1.6257,-1.656,-1.7794,-1.8506,-1.8782,-1.8553,-1.877,-1.9193,-1.9193,-1.9519,-1.9941,-1.9941,-1.9977,-2.0002,-2.0002,-1.9977,-1.9953,-1.9989,-1.9808,-1.9627,-1.9833,-1.9881,-1.9833,-1.9591,-1.9531,-1.947,-1.9253,-1.9193,-1.9309,-1.9517,-1.9646,-1.9599,-1.9678,-1.9659,-1.9585,-1.9402,-1.9399,-1.9279,-1.9025,-1.8985,-1.9011,-1.9052,-1.9052,-1.9265,-1.9813,-1.9867,-1.976,-1.9519,-2.0648,-2.1248,-2.1104,-2.3853,-2.5459,-2.5286,-2.7043,-2.8132,-2.848,-2.881,-2.8975,-2.8975,-2.9048,-2.9048,-2.8975,-2.9048,-2.9425,-3.0158,-3.0043,-3.0477,-3.1079,-3.1091,-3.1172,-3.1211,-3.1426,-3.1562,-3.1641,-3.1894,-3.2012,-3.207,0.2898,0.2935,0.2767,0.2353,-0.0,-0.1789,-0.1769,-0.7359,-1.1519,-1.1156,-1.1063,-1.0987,-1.0954,-1.084,-1.0764,-1.0764,-1.0748,-1.0683,-1.0563,-1.0449,-1.034,-1.0237,-1.0095,-1.003,-1.0047,-1.003,-0.9949,-0.9813,-0.9715,-0.9595,-0.9454,-0.9128,-0.9035,-0.9405,-0.9308,-1.0134,-1.1723,-1.1993,-1.375,-1.6452,-1.655,-1.7703,-1.9338,-1.9301,-1.9483,-1.976,-1.976,-1.9953,-2.0219,-2.0219,-2.0364,-2.0545,-2.0545,-2.04,-2.0255,-2.0484,-2.0364,-2.011,-1.9941,-1.9881,-1.9881,-1.9833,-1.982,-1.9808,-1.9772,-1.976,-1.97,-1.9589,-1.9801,-1.977,-1.9337,-1.942,-1.965,-1.9324,-1.9415,-1.9359,-1.9305,-1.9292,-1.9386,-1.9639,-1.9666,-1.98,-2.0134,-2.016,-2.0147,-2.0107,-2.0254,-2.0375,-2.0334,-2.2074,-2.358,-2.473,-2.7375,-2.8828,-2.8902,-2.8957,-2.8975,-2.8993,-2.9324,-2.9305,-2.8993,-2.9324,-2.9709,-3.0236,-3.0408,-3.0982,-3.1732,-3.1922,-3.2254,-3.2441,-3.1777,-3.1738,-3.1992,-3.1328,-3.1309,-3.168,0.2874,0.2908,0.2928,0.3085,0.1261,-0.0,-0.0,-0.2969,-0.6061,-0.7925,-0.9773,-1.0922,-1.0846,-1.0775,-1.0737,-1.0737,-1.0737,-1.0661,-1.0476,-1.0416,-1.0302,-1.0112,-1.0052,-1.0019,-1.0019,-0.9954,-0.9862,-0.9748,-0.9628,-0.9508,-0.9383,-0.9155,-0.9079,-0.9128,-0.8948,-0.924,-1.0122,-1.1138,-1.2427,-1.3989,-1.5714,-1.7195,-1.8438,-1.9102,-1.9603,-2.0098,-2.0098,-2.0267,-2.0484,-2.0484,-2.0569,-2.0665,-2.0665,-2.0593,-2.0509,-2.0629,-2.0581,-2.046,-2.034,-2.0303,-2.0279,-2.0134,-2.0098,-2.0062,-1.9917,-1.9881,-1.9845,-1.9724,-1.971,-1.9609,-1.9345,-1.9175,-1.9216,-1.9451,-1.9299,-1.9296,-1.9573,-1.9599,-1.9653,-1.9786,-1.9933,-2.0147,-2.0441,-2.0468,-2.0468,-2.0468,-2.0468,-2.0468,-2.0468,-2.1789,-2.2911,-2.3703,-2.7177,-2.8975,-2.8975,-2.8975,-2.8975,-2.8975,-2.9159,-2.9159,-2.8993,-2.9397,-2.98,-3.0204,-3.0556,-3.1046,-3.1546,-3.1818,-3.195,-3.2196,-3.2144,-3.2187,-3.2168,-3.2226,-3.2226,-3.2266,0.2859,0.2886,0.2906,0.2909,0.2338,0.1421,0.0176,-0.0,-0.103,-0.3915,-0.6802,-0.8991,-1.0602,-1.0753,-1.0742,-1.0737,-1.071,-1.0606,-1.04,-1.0362,-1.0248,-1.003,-0.9992,-0.9992,-1.0019,-0.9873,-0.9769,-0.9709,-0.9557,-0.9438,-0.9345,-0.9198,-0.9133,-0.9128,-0.9008,-0.8899,-0.8955,-1.041,-1.1344,-1.1902,-1.4422,-1.6155,-1.7389,-1.841,-1.9291,-2.0207,-2.0327,-2.046,-2.0581,-2.0581,-2.0617,-2.0653,-2.0593,-2.0617,-2.0665,-2.0665,-2.0665,-2.0665,-2.0665,-2.0665,-2.0617,-2.0412,-2.0364,-2.0315,-2.011,-2.0074,-2.005,-1.9989,-1.976,-1.9613,-1.9475,-1.9111,-1.8963,-1.9511,-1.9257,-1.926,-1.9773,-1.9853,-1.992,-2.0,-2.0201,-2.0454,-2.0748,-2.0775,-2.0775,-2.0775,-2.0775,-2.0775,-2.0775,-2.174,-2.2457,-2.3062,-2.6641,-2.8737,-2.8975,-2.8975,-2.8975,-2.8975,-2.9177,-2.9214,-2.914,-2.9635,-3.0039,-3.0332,-3.0581,-3.0946,-3.1444,-3.1607,-3.1703,-3.1988,-3.2467,-3.2598,-3.2383,-3.293,-3.2988,-3.2832,0.2831,0.2856,0.2876,0.2876,0.2829,0.2091,0.0348,-0.0,-0.0169,-0.0336,-0.0673,-0.336,-0.9918,-1.0764,-1.0753,-1.0737,-1.0634,-1.052,-1.0394,-1.028,-1.0161,-1.0025,-0.9911,-0.9905,-1.0019,-0.9796,-0.9726,-0.9824,-0.9595,-0.9481,-0.947,-0.9242,-0.9133,-0.9128,-0.9008,-0.8948,-0.8938,-0.9087,-1.0178,-1.1797,-1.2064,-1.4249,-1.7297,-1.7612,-1.8688,-1.9977,-2.046,-2.0496,-2.0303,-2.0303,-2.046,-2.0629,-2.0388,-2.0472,-2.0665,-2.0665,-2.0665,-2.0665,-2.0665,-2.0665,-2.0665,-2.0641,-2.0641,-2.0641,-2.0617,-2.0605,-2.0545,-2.0303,-2.0038,-1.9772,-1.9495,-1.9255,-1.9051,-1.917,-1.9459,-1.9719,-1.984,-2.0027,-2.0307,-2.0575,-2.0628,-2.0762,-2.1042,-2.1082,-2.1082,-2.1082,-2.1082,-2.1082,-2.1082,-2.1195,-2.1825,-2.3076,-2.579,-2.7762,-2.8993,-2.8975,-2.8975,-2.8993,-2.9745,-2.991,-2.9562,-3.0332,-3.0717,-3.0754,-3.0736,-3.1228,-3.1873,-3.1835,-3.22,-3.2796,-3.245,-3.2525,-3.2715,-3.2383,-3.248,-3.2793,0.28,0.2825,0.2667,0.2134,0.246,0.2256,0.0345,-0.0,-0.0,-0.0,-0.0,-0.1007,-0.3692,-0.806,-1.0759,-1.0753,-1.0634,-1.0509,-1.0394,-1.0269,-1.015,-1.0025,-0.9905,-0.9856,-0.9905,-0.9677,-0.9579,-0.9622,-0.9454,-0.9372,-0.9372,-0.928,-0.9204,-0.9133,-0.916,-0.909,-0.8954,-0.8954,-0.9319,-1.0048,-1.1028,-1.3051,-1.5443,-1.6748,-1.8317,-1.9941,-2.0291,-2.0364,-2.0303,-2.046,-2.0593,-2.0653,-2.0557,-2.0593,-2.0702,-2.0859,-2.104,-2.1172,-2.1172,-2.104,-2.0907,-2.0907,-2.0907,-2.0907,-2.0907,-2.0786,-2.0641,-2.0545,-2.0315,-2.0098,-1.9989,-1.9528,-1.9193,-1.9649,-1.9598,-1.9646,-1.9968,-2.0318,-2.0548,-2.0655,-2.0842,-2.0989,-2.1096,-2.1109,-2.1109,-2.1109,-2.1109,-2.1109,-2.1109,-2.1109,-2.1727,-2.3076,-2.4054,-2.5652,-2.7762,-2.8853,-2.9342,-2.936,-2.9929,-3.0112,-2.9984,-3.0534,-3.0791,-3.0809,-3.1047,-3.1377,-3.1653,-3.1782,-3.2166,-3.2657,-3.2631,-3.2777,-3.2812,-3.291,-3.2871,-3.2832,0.2769,0.2793,0.2638,0.1582,0.1743,0.1554,0.0171,-0.0,-0.0,-0.0,-0.0,-0.0,-0.0,-0.4363,-0.8219,-1.0372,-1.0585,-1.046,-1.0335,-1.0215,-1.0106,-1.0025,-0.9905,-0.9835,-0.9835,-0.9606,-0.9487,-0.9487,-0.9362,-0.9302,-0.9302,-0.9302,-0.9264,-0.9193,-0.9269,-0.9215,-0.9063,-0.9024,-0.8959,-0.901,-1.009,-1.1821,-1.4074,-1.5548,-1.7593,-1.9768,-2.0303,-2.0448,-2.0533,-2.0641,-2.0726,-2.0774,-2.069,-2.0786,-2.0967,-2.1233,-2.139,-2.1498,-2.1583,-2.1462,-2.1293,-2.1209,-2.1197,-2.1197,-2.1197,-2.0979,-2.0798,-2.0798,-2.0521,-2.0279,-2.0279,-1.976,-1.9492,-1.9862,-1.9776,-1.9811,-2.0302,-2.0565,-2.0815,-2.0815,-2.0989,-2.1109,-2.1109,-2.1109,-2.1109,-2.1109,-2.1109,-2.1109,-2.1109,-2.1109,-2.1475,-2.2466,-2.2827,-2.4239,-2.6583,-2.8184,-2.9197,-2.958,-3.013,-3.0387,-3.0406,-3.0791,-3.0974,-3.0992,-3.1267,-3.1377,-3.1377,-3.1653,-3.191,-3.2294,-3.2676,-3.2738,-3.2902,-3.332,-3.3242,-3.3027,0.2737,0.2762,0.2609,0.1565,0.069,-0.0,-0.0,-0.0,-0.0,-0.0,-0.0,-0.0,-0.0,-0.0,-0.284,-0.9927,-1.0481,-1.0351,-1.021,-1.009,-1.0019,-1.0019,-0.99,-0.9835,-0.9835,-0.9606,-0.9487,-0.9487,-0.9362,-0.9302,-0.9302,-0.9302,-0.9302,-0.9302,-0.9302,-0.9302,-0.9296,-0.9182,-0.9133,-0.9122,-0.9003,-1.0593,-1.3327,-1.4138,-1.6323,-1.9198,-2.0292,-2.0834,-2.1016,-2.0762,-2.0847,-2.1016,-2.0762,-2.1052,-2.1535,-2.18,-2.1691,-2.1547,-2.18,-2.1873,-2.1812,-2.1547,-2.1486,-2.1486,-2.1486,-2.1257,-2.1064,-2.1064,-2.0641,-2.0279,-2.0279,-2.0074,-1.9929,-1.9924,-2.0266,-2.0554,-2.0527,-2.0869,-2.1109,-2.1122,-2.1122,-2.1122,-2.1122,-2.1122,-2.1122,-2.1122,-2.1109,-2.1109,-2.1122,-2.1109,-2.1109,-2.1122,-2.2341,-2.3973,-2.5705,-2.6951,-2.8324,-2.9599,-3.0406,-3.0791,-3.0809,-3.1194,-3.1377,-3.1377,-3.1377,-3.1377,-3.1377,-3.1377,-3.1653,-3.191,-3.2294,-3.2549,-3.2931,-3.3292,-3.3418,-3.3418,0.2737,0.2746,0.2579,0.1547,0.0682,-0.0,-0.0,-0.0,-0.0,-0.0,-0.0,-0.0,-0.0,-0.0,-0.2819,-0.9788,-1.0422,-1.0401,-1.0101,-1.0047,-1.0019,-1.0019,-0.9829,-0.972,-0.972,-0.9481,-0.9356,-0.9356,-0.9323,-0.9302,-0.9302,-0.9302,-0.9264,-0.9188,-0.9269,-0.9258,-0.9182,-0.915,-0.9133,-0.9122,-0.9003,-1.0184,-1.2239,-1.3191,-1.5357,-1.8067,-1.9438,-2.0403,-2.1076,-2.1197,-2.1293,-2.1341,-2.1257,-2.1474,-2.1764,-2.1848,-2.1945,-2.2042,-2.2126,-2.2138,-2.2078,-2.1824,-2.1752,-2.1752,-2.1752,-2.139,-2.1064,-2.1064,-2.0931,-2.0774,-2.0593,-2.0484,-2.0352,-2.0221,-2.0281,-2.0517,-2.0822,-2.1071,-2.1463,-2.1724,-2.1724,-2.1724,-2.1724,-2.1724,-2.1724,-2.1724,-2.1537,-2.151,-2.171,-2.1336,-2.1296,-2.171,-2.1896,-2.2822,-2.4555,-2.6832,-2.887,-3.0442,-3.0956,-3.1194,-3.1212,-3.1322,-3.1377,-3.1377,-3.1377,-3.1377,-3.1377,-3.1377,-3.1653,-3.191,-3.2038,-3.2422,-3.2912,-3.3038,-3.3165,-3.3418,0.272,0.272,0.238,0.1529,0.0676,-0.0,-0.0,-0.0,-0.0,-0.0,-0.0,-0.0,-0.0,-0.0,-0.1658,-0.5921,-0.7561,-0.8702,-0.9896,-1.0036,-1.003,-1.0019,-0.984,-0.9715,-0.9671,-0.9525,-0.94,-0.9302,-0.9302,-0.9302,-0.9302,-0.9302,-0.9269,-0.9204,-0.9275,-0.9264,-0.9198,-0.9198,-0.9198,-0.9193,-0.9122,-0.993,-1.1454,-1.2358,-1.4318,-1.6754,-1.8368,-1.9678,-2.0654,-2.1462,-2.1631,-2.1631,-2.1631,-2.1812,-2.2029,-2.2029,-2.2138,-2.2259,-2.2259,-2.2259,-2.2223,-2.2066,-2.2029,-2.1993,-2.1897,-2.1535,-2.1197,-2.1076,-2.1064,-2.0979,-2.0714,-2.075,-2.0738,-2.0472,-2.0478,-2.0563,-2.0831,-2.113,-2.145,-2.1714,-2.1846,-2.1991,-2.1991,-2.1991,-2.1991,-2.1991,-2.1817,-2.1804,-2.1977,-2.1643,-2.1617,-2.1977,-2.1817,-2.2511,-2.4247,-2.5923,-2.7838,-3.0012,-3.092,-3.1377,-3.1377,-3.1377,-3.1377,-3.1377,-3.1377,-3.1377,-3.1377,-3.1377,-3.1506,-3.1782,-3.1782,-3.2166,-3.2549,-3.2676,-3.2912,-3.3165,0.2688,0.2688,0.2352,0.1512,0.0504,-0.0,-0.0,-0.0,-0.0,-0.0,-0.0,-0.0,-0.0,-0.0,-0.0,-0.0,-0.2857,-0.5799,-0.8939,-0.9729,-1.0041,-1.0025,-0.9916,-0.9802,-0.9688,-0.9666,-0.9546,-0.9318,-0.9307,-0.9302,-0.9302,-0.9302,-0.9302,-0.9302,-0.9302,-0.9302,-0.9307,-0.9313,-0.9313,-0.9307,-0.9313,-0.9896,-1.0887,-1.145,-1.3108,-1.5138,-1.7145,-1.8644,-1.993,-2.1378,-2.1909,-2.1909,-2.1909,-2.2066,-2.2259,-2.2259,-2.2259,-2.2259,-2.2259,-2.2259,-2.2259,-2.2259,-2.2259,-2.2198,-2.1957,-2.1704,-2.1438,-2.1185,-2.1136,-2.104,-2.0611,-2.0919,-2.1003,-2.0575,-2.0598,-2.0848,-2.0848,-2.1162,-2.1395,-2.1528,-2.1793,-2.2058,-2.2071,-2.2058,-2.2058,-2.2058,-2.2044,-2.2031,-2.2058,-2.2017,-2.2004,-2.2058,-2.2031,-2.2814,-2.4451,-2.4569,-2.6021,-2.8768,-3.0424,-3.1249,-3.1377,-3.1414,-3.1414,-3.1377,-3.1414,-3.1414,-3.1377,-3.1377,-3.1377,-3.1377,-3.1782,-3.191,-3.1929,-3.2294,-3.2549,-3.2804,0.2657,0.2658,0.2327,0.1496,0.0499,-0.0,-0.0,-0.0,-0.0,-0.0,-0.0,-0.0,-0.0,-0.0,-0.0,-0.0,-0.0632,-0.141,-0.2191,-0.7053,-1.0047,-1.0041,-1.0003,-0.9927,-0.9802,-0.9622,-0.9503,-0.9449,-0.9351,-0.9302,-0.9302,-0.9302,-0.9302,-0.9302,-0.9302,-0.9302,-0.9307,-0.9405,-0.9389,-0.9313,-0.941,-0.9595,-0.9883,-1.1015,-1.2213,-1.3544,-1.5308,-1.7413,-1.9639,-2.1578,-2.2174,-2.2174,-2.2174,-2.2211,-2.2259,-2.2259,-2.2259,-2.2259,-2.2259,-2.2259,-2.2259,-2.2259,-2.2259,-2.2247,-2.2186,-2.1969,-2.1764,-2.1704,-2.1691,-2.1245,-1.948,-2.0472,-2.0793,-1.9189,-1.9912,-2.0857,-2.1121,-2.1208,-2.1445,-2.1991,-2.2128,-2.24,-2.2672,-2.2672,-2.2672,-2.2672,-2.2458,-2.2418,-2.2659,-2.2231,-2.2191,-2.2659,-2.2445,-2.2593,-2.3297,-2.4367,-2.6362,-2.9145,-2.9622,-3.0325,-3.1396,-3.1726,-3.1689,-3.1396,-3.1726,-3.1689,-3.1377,-3.1377,-3.1377,-3.1377,-3.1506,-3.1653,-3.191,-3.191,-3.2166,-3.2549,0.2628,0.265,0.2332,0.1492,0.0497,-0.0,-0.0,-0.0,-0.0,-0.0,-0.0,-0.0,-0.0,-0.0,-0.0,-0.0,-0.0,-0.0,-0.0,-0.3286,-0.658,-0.9891,-1.0036,-0.9998,-0.9927,-0.9748,-0.9601,-0.9487,-0.9421,-0.9362,-0.9302,-0.9302,-0.9302,-0.9302,-0.9302,-0.9302,-0.9307,-0.9372,-0.9362,-0.9307,-0.9372,-0.9432,-0.9634,-1.0216,-1.0965,-1.1947,-1.3604,-1.6286,-1.9348,-2.0725,-2.1648,-2.2259,-2.2259,-2.2343,-2.2428,-2.2295,-2.1881,-2.1488,-2.2145,-2.1742,-2.1488,-2.2133,-2.2355,-2.238,-2.2126,-2.1969,-2.1836,-2.1716,-2.1788,-2.1301,-1.9293,-1.9715,-2.005,-1.8953,-1.9215,-1.9993,-2.0986,-2.1155,-2.1346,-2.176,-2.2035,-2.2448,-2.2859,-2.2859,-2.2859,-2.2859,-2.2712,-2.2699,-2.2859,-2.2565,-2.2619,-2.3073,-2.2926,-2.2993,-2.3287,-2.3832,-2.5315,-2.7629,-2.8943,-3.0329,-3.1689,-3.2093,-3.2056,-3.1689,-3.1909,-3.1763,-3.1377,-3.1377,-3.1377,-3.1377,-3.1377,-3.1506,-3.1653,-3.1653,-3.191,-3.2166,0.26,0.2635,0.233,0.1484,0.0659,-0.0,-0.0,-0.0,-0.0,-0.0,-0.0,-0.0,-0.0,-0.0,-0.0,-0.0,-0.0,-0.0,-0.0,-0.0,-0.2507,-0.802,-0.9427,-1.0041,-1.0025,-0.9921,-0.9753,-0.9519,-0.9497,-0.9421,-0.9302,-0.9302,-0.9302,-0.9302,-0.9302,-0.9302,-0.9307,-0.9329,-0.9323,-0.9307,-0.9329,-0.941,-0.9514,-0.9497,-0.9944,-1.0627,-1.196,-1.5068,-1.8431,-1.9197,-2.0274,-2.1499,-2.1499,-2.1674,-2.1837,-2.1928,-2.0939,-2.0134,-2.1522,-2.0939,-2.007,-2.114,-2.172,-2.1767,-2.1198,-2.1514,-2.1885,-2.1716,-2.1666,-2.0955,-1.9073,-1.8885,-1.878,-1.8217,-1.8443,-1.902,-2.0427,-2.0938,-2.1081,-2.1207,-2.1897,-2.2448,-2.2722,-2.2859,-2.2859,-2.2859,-2.2913,-2.2926,-2.2859,-2.2913,-2.306,-2.3313,-2.3327,-2.3474,-2.3768,-2.3527,-2.4203,-2.5959,-2.8205,-3.0118,-3.1715,-3.2095,-3.2211,-3.2111,-3.2184,-3.1983,-3.1579,-3.1506,-3.1488,-3.1469,-3.1396,-3.1377,-3.1377,-3.1377,-3.1525,-3.191,0.2567,0.2572,0.2255,0.1446,0.0643,-0.0,-0.0,-0.0,-0.0,-0.0,-0.0,-0.0,-0.0,-0.0,-0.0,-0.0,-0.0,-0.0,-0.0,-0.0,-0.0472,-0.1271,-0.693,-1.0047,-1.0041,-1.0014,-0.9878,-0.9644,-0.9541,-0.9421,-0.9302,-0.9302,-0.9302,-0.9302,-0.9302,-0.9302,-0.9313,-0.9416,-0.94,-0.9313,-0.9421,-0.9536,-0.9633,-0.953,-0.9699,-1.0136,-1.0638,-1.2658,-1.5234,-1.7074,-1.7834,-1.7986,-1.7986,-1.8143,-1.8618,-2.0124,-1.9214,-1.8348,-2.0227,-1.9224,-1.7912,-1.8231,-1.8289,-1.8299,-1.8241,-2.0233,-2.2259,-2.2452,-2.1268,-1.9543,-1.7803,-1.7346,-1.6796,-1.4967,-1.6903,-1.8681,-1.8768,-1.9982,-2.0943,-2.1207,-2.1897,-2.231,-2.2448,-2.2722,-2.2859,-2.2859,-2.3113,-2.3153,-2.2873,-2.3113,-2.3287,-2.3327,-2.3327,-2.3474,-2.3768,-2.3728,-2.4424,-2.5974,-2.6617,-2.8253,-3.058,-3.0977,-3.1643,-3.2533,-3.29,-3.2826,-3.2404,-3.2056,-3.1928,-3.1891,-3.1524,-3.1377,-3.1377,-3.1377,-3.1377,-3.1506,0.2537,0.2562,0.2418,0.2081,0.08,-0.0,-0.0,-0.0,-0.0,-0.0,-0.0,-0.0,-0.0,-0.0,-0.0,-0.0,-0.0,-0.0,-0.0,-0.0,-0.0,-0.0,-0.6448,-1.0063,-1.0047,-1.0041,-0.9943,-0.9764,-0.9644,-0.9525,-0.9405,-0.9334,-0.9302,-0.9302,-0.9302,-0.9302,-0.9307,-0.9362,-0.9394,-0.941,-0.9465,-0.9557,-0.9671,-0.9677,-0.978,-0.9921,-1.0395,-1.1965,-1.4168,-1.5234,-1.6465,-1.7398,-1.752,-1.77,-1.8017,-1.8641,-1.7789,-1.6933,-1.8475,-1.7789,-1.6643,-1.7557,-1.7798,-1.7882,-1.7882,-1.8973,-1.9769,-1.9864,-1.9244,-1.799,-1.6365,-1.5955,-1.553,-1.4619,-1.545,-1.673,-1.8524,-1.9149,-1.9947,-2.1346,-2.176,-2.2173,-2.2585,-2.2881,-2.3126,-2.3126,-2.3407,-2.3514,-2.338,-2.35,-2.3647,-2.3808,-2.3821,-2.3955,-2.4249,-2.4088,-2.4377,-2.5235,-2.5194,-2.7079,-3.072,-3.1097,-3.1911,-3.2955,-3.3138,-3.2991,-3.2588,-3.2404,-3.2331,-3.2313,-3.2129,-3.2056,-3.2056,-3.2056,-3.2056,-3.2056]},{"header":{"parameterUnit":"m.s-1","parameterCategory":1,"la1":30.6,"la2":28.766,"lo1":-90.7593,"lo2":-88.6598,"dy":0.0162,"dx":0.0183,"nx":116,"ny":114,"refTime":"2024-03-20T12:00:00:Z","depth":0,"parameterNumber":3,"parameterNumberName":"V-component_of_WINDS"},"data":[0.0,0.0,0.0,0.0,0.0,0.0,0.0,0.0,0.0,0.0,0.0,0.0,0.0,0.0,0.0,0.0,0.0,0.0,0.0,0.0,0.0,0.0,0.0,0.0,0.0,0.0,0.0,0.0,0.0,0.0,0.0,0.0,0.0,0.0,0.0,0.0,0.0,0.0,0.0,0.0,0.0,0.0,0.0,0.0,0.0,0.0,0.0,0.0,0.0,0.0,0.0,0.0,0.0,0.0,0.0,0.0,0.0,0.0,0.0,0.0,0.0,0.0,0.0,0.0,0.0,0.0,0.0,0.0,0.0,0.0,0.0,0.0,0.0,0.0,0.0,0.0,0.0,0.0,0.0,0.0,0.0,0.0,0.0,0.0,0.0,0.0,0.0,0.0,0.0,0.0,0.0,0.0,0.0,0.0,0.0,0.0,0.0,0.0,0.0,0.0,0.0,0.0,0.0,0.0,0.0,0.0,0.0,0.0,0.0,0.0,0.0,0.0,0.0,0.0,0.0,0.0,0.0,0.0,0.0,0.0,0.0,0.0,0.0,0.0,0.0,0.0,0.0,0.0,0.0,0.0,0.0,0.0,0.0,0.0,0.0,0.0,0.0,0.0,0.0,0.0,0.0,0.0,0.0,0.0,0.0,0.0,0.0,0.0,0.0,0.0,0.0,0.0,0.0,0.0,0.0,0.0,0.0,0.0,0.0,0.0,0.0,0.0,0.0,0.0,0.0,0.0,0.0,0.0,0.0,0.0,0.0,0.0,0.0,0.0,0.0,0.0,0.0,0.0,0.0,0.0,0.0,0.0,0.0,0.0,0.0,0.0,0.0,0.0,0.0,0.0,0.0,0.0,0.0,0.0,0.0,0.0,0.0,0.0,0.0,0.0,0.0,0.0,0.0,0.0,0.0,0.0,0.0,0.0,0.0,0.0,0.0,0.0,0.0,0.0,0.0,0.0,0.0,0.0,0.0,0.0,0.0,0.0,0.0,0.0,0.0,0.0,0.0,0.0,0.0,0.0,0.0,0.0,0.0,0.0,0.0,0.0,0.0,0.0,0.0,0.0,0.0,0.0,0.0,0.0,0.0,0.0,0.0,0.0,0.0,0.0,0.0,0.0,0.0,0.0,0.0,0.0,0.0,0.0,0.0,0.0,0.0,0.0,0.0,0.0,0.0,0.0,0.0,0.0,0.0,0.0,0.0,0.0,0.0,0.0,0.0,0.0,0.0,0.0,0.0,0.0,0.0,0.0,0.0,0.0,0.0,0.0,0.0,0.0,0.0,0.0,0.0,0.0,0.0,0.0,0.0,0.0,0.0,0.0,0.0,0.0,0.0,0.0,0.0,0.0,0.0,0.0,0.0,0.0,0.0,0.0,0.0,0.0,0.0,0.0,0.0,0.0,0.0,0.0,0.0,0.0,0.0,0.0,0.0,0.0,0.0,0.0,0.0,0.0,0.0,0.0,0.0,0.0,0.0,0.0,0.0,0.0,0.0,0.0,0.0,0.0,0.0,0.0,0.0,0.0,0.0,0.0,0.0,0.0,0.0,0.0,0.0,0.0,0.0,0.0,0.0,0.0,0.0,0.0,0.0,0.0,0.0,0.0,0.0,0.0,0.0,0.0,0.0,0.0,0.0,0.0,0.0,0.0,0.0,0.0,0.0,0.0,0.0,0.0,0.0,0.0,0.0,0.0,0.0,0.0,0.0,0.0,0.0,0.0,0.0,0.0,0.0,0.0,0.0,0.0,0.0,0.0,0.0,0.0,0.0,0.0,0.0,0.0,0.0,0.0,0.0,0.0,0.0,0.0,0.0,0.0,0.0,0.0,0.0,0.0,0.0,0.0,0.0,0.0,0.0,0.0,0.0,0.0,0.0,0.0,0.0,0.0,0.0,0.0,0.0,0.0,0.0,0.0,0.0,0.0,0.0,0.0,0.0,0.0,0.0,0.0,0.0,0.0,0.0,0.0,0.0,0.0,0.0,0.0,0.0,0.0,0.0,0.0,0.0,0.0,0.0,0.0,0.0,0.0,0.0,0.0,0.0,0.0,0.0,0.0,0.0,0.0,0.0,0.0,0.0,0.0,0.0,0.0,0.0,0.0,0.0,0.0,0.0,0.0,0.0,0.0,0.0,0.0,0.0,0.0,0.0,0.0,0.0,0.0,0.0,0.0,0.0,0.0,0.0,0.0,0.0,0.0,0.0,0.0,0.0,0.0,0.0,0.0,0.0,0.0,0.0,0.0,0.0,0.0,0.0,0.0,0.0,0.0,0.0,0.0,0.0,0.0,0.0,0.0,0.0,0.0,0.0,0.0,0.0,0.0,0.0,0.0,0.0,0.0,0.0,0.0,0.0,0.0,0.0,0.0,0.0,0.0,0.0,0.0,0.0,0.0,0.0,0.0,0.0,0.0,0.0,0.0,0.0,0.0,0.0,0.0,0.0,0.0,0.0,0.0,0.0,0.0,0.0,0.0,0.0,0.0,0.0,0.0,0.0,0.0,0.0,0.0,0.0,0.0,0.0,0.0,0.0,0.0,0.0,0.0,0.0,0.0,0.0,0.0,0.0,0.0,0.0,0.0,0.0,0.0,0.0,0.0,0.0,0.0,0.0,0.0,0.0,0.0,0.0,0.0,0.0,0.0,0.0,0.0,0.0,0.0,0.0,0.0,0.0,0.0,0.0,0.0,0.0,0.0,0.0,0.0,0.0,0.0,0.0,0.0,0.0,0.0,0.0,0.0,0.0,0.0,0.0,0.0,0.0,0.0,0.0,0.0,0.0,0.0,0.0,0.0,0.0,0.0,0.0,0.0,0.0,0.0,0.0,0.0,0.0,0.0,0.0,0.0,0.0,0.0,0.0,0.0,0.0,0.0,0.0,0.0,0.0,0.0,0.0,0.0,0.0,0.0,0.0,0.0,0.0,0.0,0.0,0.0,0.0,0.0,0.0,0.0,0.0,0.0,0.0,0.0,0.0,0.0,0.0,0.0,0.0,0.0,0.0,0.0,0.0,0.0,0.0,0.0,0.0,0.0,0.0,0.0,0.0,0.0,0.0,0.0,0.0,0.0,0.0,0.0,0.0,0.0,0.0,0.0,0.0,0.0,0.0,0.0,0.0,0.0,0.0,0.0,0.0,0.0,0.0,0.0,0.0,0.0,0.0,0.0,0.0,0.0,0.0,0.0,0.0,0.0,0.0,0.0,0.0,0.0,0.0,0.0,0.0,0.0,0.0,0.0,0.0,0.0,0.0,0.0,0.0,0.0,0.0,0.0,0.0,0.0,0.0,0.0,0.0,0.0,0.0,0.0,0.0,0.0,0.0,0.0,0.0,0.0,0.0,0.0,0.0,0.0,0.0,0.0,0.0,0.0,0.0,0.0,0.0,0.0,0.0,0.0,0.0,0.0,0.0,0.0,0.0,0.0,0.0,0.0,0.0,0.0,0.0,0.0,0.0,0.0,0.0,0.0,0.0,0.0,0.0,0.0,0.0,0.0,0.0,0.0,0.0,0.0,0.0,0.0,0.0,0.0,0.0,0.0,0.0,0.0,0.0,0.0,0.0,0.0,0.0,0.0,0.0,0.0,0.0,0.0,0.0,0.0,0.0,0.0,0.0,0.0,0.0,0.0,0.0,0.0,0.0,0.0,0.0,0.0,0.0,0.0,0.0,0.0,0.0,0.0,0.0,0.0,0.0,0.0,0.0,0.0,0.0,0.0,0.0,0.0,0.0,0.0,0.0,0.0,0.0,0.0,0.0,0.0,0.0,0.0,0.0,0.0,0.0,0.0,0.0,0.0,0.0,0.0,0.0,0.0,0.0,0.0,0.0,0.0,0.0,0.0,0.0,0.0,0.0,0.0,0.0,0.0,0.0,0.0,0.0,0.0,0.0,0.0,0.0,0.0,0.0,0.0,0.0,0.0,0.0,0.0,0.0,0.0,0.0,0.0,0.0,0.0,0.0,0.0,0.0,0.0,0.0,0.0,0.0,0.0,0.0,0.0,0.0,0.0,0.0,0.0,0.0,0.0,0.0,0.0,0.0,0.0,0.0,0.0,0.0,0.0,0.0,0.0,0.0,0.0,0.0,0.0,0.0,0.0,0.0,0.0,0.0,0.0,0.0,0.0,0.0,0.0,0.0,0.0,0.0,0.0,0.0,0.0,0.0,0.0,0.0,0.0,0.0,0.0,0.0,0.0,0.0,0.0,0.0,0.0,0.0,0.0,0.0,0.0,0.0,0.0,0.0,0.0,0.0,0.0,0.0,0.0,0.0,0.0,0.0,0.0,0.0,0.0,0.0,0.0,0.0,0.0,0.0,0.0,0.0,0.0,0.0,0.0,0.0,0.0,0.0,0.0,0.0,0.0,0.0,0.0,0.0,0.0,0.0,0.0,0.0,0.0,0.0,0.0,0.0,0.0,0.0,0.0,0.0,0.0,0.0,0.0,0.0,0.0,0.0,0.0,0.0,0.0,0.0,0.0,0.0,0.0,0.0,0.0,0.0,0.0,0.0,0.0,0.0,0.0,0.0,0.0,0.0,0.0,0.0,0.0,0.0,0.0,0.0,0.0,0.0,0.0,0.0,0.0,0.0,0.0,0.0,0.0,0.0,0.0,0.0,0.0,0.0,0.0,0.0,0.0,0.0,0.0,0.0,0.0,0.0,0.0,0.0,0.0,0.0,0.0,0.0,0.0,0.0,0.0,0.0,0.0,0.0,0.0,0.0,0.0,0.0,0.0,0.0,0.0,0.0,0.0,0.0,0.0,0.0,0.0,0.0,0.0,0.0,0.0,0.0,0.0,0.0,0.0,0.0,0.0,0.0,0.0,0.0,0.0,0.0,0.0,0.0,0.0,0.0,0.0,0.0,0.0,0.0,0.0,0.0,0.0,0.0,0.0,0.0,0.0,0.0,0.0,0.0,0.0,0.0,0.0,0.0,0.0,0.0,0.0,0.0,0.0,0.0,0.0,0.0,0.0,0.0,0.0,0.0,0.0,0.0,0.0,0.0,0.0,0.0,0.0,0.0,0.0,0.0,0.0,0.0,0.0,0.0,0.0,0.0,0.0,0.0,0.0,0.0,0.0,0.0,0.0,0.0,0.0,0.0,0.0,0.0,0.0,0.0,0.0,0.0,0.0,0.0,0.0,0.0,0.0,0.0,0.0,0.0,0.0,0.0,0.0,0.0,0.0,0.0,0.0,0.0,0.0,0.0,0.0,0.0,0.0,0.0,0.0,0.0,0.0,0.0,0.0,0.0,0.0,0.0,0.0,0.0,0.0,0.0,0.0,0.0,0.0,0.0,0.0,0.0,0.0,0.0,0.0,0.0,0.0,0.0,0.0,0.0,0.0,0.0,0.0,0.0,0.0,0.0,0.0,0.0,0.0,0.0,0.0,0.0,0.0,0.0,0.0,0.0,0.0,0.0,0.0,0.0,0.0,0.0,0.0,0.0,0.0,0.0,0.0,0.0,0.0,0.0,0.0,0.0,0.0,0.0,0.0,0.0,0.0,0.0,0.0,0.0,0.0,0.0,0.0,0.0,0.0,0.0,0.0,0.0,0.0,0.0,0.0,0.0,0.0,0.0,0.0,0.0,0.0,0.0,0.0,0.0,0.0,0.0,0.0,0.0,0.0,0.0,0.0,0.0,0.0,0.0,0.0,0.0,0.0,0.0,0.0,0.0,0.0,0.0,0.0,0.0,0.0,0.0,0.0,0.0,0.0,0.0,0.0,0.0,0.0,0.0,0.0,0.0,0.0,0.0,0.0,0.0,0.0,0.0,0.0,0.0,0.0,0.0,0.0,0.0,0.0,0.0,0.0,0.0,0.0,0.0,0.0,0.0,0.0,0.0,0.0,0.0,0.0,0.0,0.0,0.0,0.0,0.0,0.0,0.0,0.0,0.0,0.0,0.0,0.0,0.0,0.0,0.0,0.0,0.0,0.0,0.0,0.0,0.0,0.0,0.0,0.0,0.0,0.0,0.0,0.0,0.0,0.0,0.0,0.0,0.0,0.0,0.0,0.0,0.0,0.0,0.0,0.0,0.0,0.0,0.0,0.0,0.0,0.0,0.0,0.0,0.0,0.0,0.0,0.0,0.0,0.0,0.0,0.0,0.0,0.0,0.1612,0.1973,0.0,0.0,0.0,0.0,0.0,0.0,0.0,0.0,0.0,0.0,0.0,0.0,0.0,0.0,0.0,0.0,0.0,0.0,0.0,0.0,0.0,0.0,0.0,0.0,0.0,0.0,-3.5307,-3.5086,-3.4927,-3.4672,-3.4458,-3.4203,-3.3928,-3.3597,-3.3321,-3.2988,-3.2699,-3.257,-3.2056,-3.1548,-3.1055,-3.1055,-3.0778,-3.0309,0.0,0.0,0.0,0.0,0.0,0.0,0.0,0.0,0.0,0.0,0.0,0.0,0.0,0.0,0.0,0.0,0.0,0.0,0.0,0.0,0.0,0.0,0.0,0.0,0.0,0.0,0.0,0.0,0.0,0.0,0.0,0.0,0.0,0.0,0.0,0.0,0.0,0.0,0.0,0.0,0.0,0.0,0.0,0.0,0.0,0.0,0.0,0.0,0.0,0.0,0.0,0.0,0.0,0.0,0.0,0.0,0.0,0.0,0.0,0.0,0.0,0.0,0.0,0.0,0.0,0.0,0.0,0.0,0.0,0.0,0.1556,0.1821,0.0,0.0,0.0,0.0,0.0,0.0,0.0,0.0,0.0,0.0,0.0,0.0,0.0,0.0,0.0,0.0,0.0,0.0,0.0,0.0,0.0,0.0,0.0,-3.5516,-3.5391,-3.5364,-3.5069,-3.487,-3.4773,-3.4413,-3.4154,-3.4105,-3.3606,-3.3291,-3.3232,-3.257,-3.2197,-3.2232,-3.1682,-3.1086,-3.0507,-3.0685,-3.074,-3.0577,-2.9553,0.0,0.0,0.0,0.0,0.0,0.0,0.0,0.0,0.0,0.0,0.0,0.0,0.0,0.0,0.0,0.0,0.0,0.0,0.0,0.0,0.0,0.0,0.0,0.0,0.0,0.0,0.0,0.0,0.0,0.0,0.0,0.0,0.0,0.0,0.0,0.0,0.0,0.0,0.0,0.0,0.0,0.0,0.0,0.0,0.0,0.0,0.0,0.0,0.0,0.0,0.0,0.0,0.0,0.0,0.0,0.0,0.0,0.0,0.0,0.0,0.0,0.0,0.0,0.05,0.08,0.1495,0.1192,0.1281,0.1555,0.1531,0.1605,0.1869,0.2136,0.0,0.0,0.0,0.0,0.0,0.0,0.0,0.0,0.0,0.0,0.0,0.0,0.0,0.0,0.0,0.0,0.0,0.0,0.0,0.0,0.0,-3.5516,-3.535,-3.5162,-3.4999,-3.4713,-3.4321,-3.4227,-3.4117,-3.3887,-3.3494,-3.3136,-3.2858,-3.2196,-3.1877,-3.1873,-3.1839,-3.165,-3.1298,-3.2294,-3.2418,-3.1779,-2.9943,-2.9452,-2.995,0.0,0.0,0.0,0.0,0.0,0.0,0.0,0.0,0.0,0.0,0.0,0.0,0.0,0.0,0.0,0.0,0.0,0.0,0.0,0.0,0.0,0.0,0.0,0.0,0.0,0.0,0.0,0.0,0.0,0.0,0.0,0.0,0.0,0.0,0.0,0.0,0.0,0.0,0.0,0.0,0.0,-0.4968,-0.4789,0.0,0.0,0.0,0.0,0.0,0.0,0.0,0.0,0.0,0.0,0.0,0.0,0.0,0.0,0.0,0.0,0.0,0.0106,0.0321,0.0642,0.0949,0.1143,0.1454,0.1681,0.1677,0.0,0.1944,0.2067,0.0,0.0,0.0,0.0,0.0,0.0,0.0,0.0,0.0,0.0,0.0,0.0,0.0,0.0,0.0,0.0,0.0,0.0,0.0,0.0,0.0,-3.6279,-3.6599,-3.635,-3.7024,-3.6911,-3.5627,-3.5436,-3.4897,-3.3844,-3.3321,-3.2952,-3.2795,-3.1986,-3.156,-3.1604,-3.1574,-3.1671,-3.174,-3.2284,-3.2335,-3.2049,-3.0853,-3.0135,-2.9682,-2.861,0.0,0.0,0.0,0.0,0.0,0.0,0.0,0.0,0.0,0.0,0.0,0.0,0.0,0.0,0.0,0.0,0.0,0.0,0.0,0.0,0.0,0.0,0.0,0.0,0.0,0.0,0.0,0.0,0.0,0.0,0.0,0.0,0.0,0.0,0.0,0.0,0.0,0.0,0.0,-0.5694,-0.4749,-0.4369,-0.3708,-0.317,0.0,0.0,0.0,0.0,0.0,0.0,0.0,0.0,0.0,-0.0508,-0.0207,0.0,0.0,0.0,0.011,0.0223,0.0449,0.0672,0.1113,0.1326,0.1532,0.173,0.173,0.1825,0.1902,0.2219,0.2533,0.2849,0.0,0.0,0.0,0.0,0.4152,0.4377,0.0,0.0,0.0,0.0,0.0,0.0,0.0,0.0,0.0,0.0,0.0,0.0,-3.5763,-3.7064,-3.7775,-3.7461,-3.8426,-3.8338,-3.6636,-3.5919,-3.4979,-3.3735,-3.3014,-3.2666,-3.2666,-3.2113,-3.1724,-3.156,-3.2011,-3.2145,-3.2064,-3.245,-3.2514,-3.2439,-3.2394,-3.1611,-3.035,-2.9344,-2.7626,-2.555,0.0,0.0,0.0,0.0,0.0,0.0,0.0,0.0,0.0,0.0,0.0,0.0,0.0,0.0,0.0,0.0,0.0,0.0,0.0,0.0,0.0,0.0,0.0,0.0,0.0,0.0,0.0,0.0,0.0,0.0,0.0,0.0,0.0,0.0,0.0,0.0,0.0,-0.5144,-0.4656,-0.3904,-0.3512,-0.2991,0.0,0.0,0.0,0.0,0.0,0.0,-0.1023,-0.0625,-0.0425,-0.0217,-0.0111,0.0,0.0,0.0,0.0116,0.0469,0.0586,0.0935,0.1398,0.1514,0.1609,0.1795,0.1787,0.1793,0.1798,0.222,0.2629,0.2935,0.3402,0.3704,0.4036,0.4036,0.3996,0.416,0.0,0.0,0.0,0.0,0.0,0.0,0.0,0.0,0.0,0.0,0.0,-3.5801,-3.6315,-3.7642,-3.8267,-3.7798,-3.7856,-3.7451,-3.6397,-3.4543,-3.3393,-3.3321,-3.2702,-3.2335,-3.2335,-3.2951,-3.2861,-3.1963,-3.3597,-3.3681,-3.2222,-3.3583,-3.3867,-3.3396,-3.4655,-3.4379,-3.2972,-3.0573,-2.9085,-2.8176,-2.5619,0.0,0.0,0.0,0.0,0.0,0.0,0.0,0.0,0.0,0.0,0.0,0.0,0.0,0.0,0.0,0.0,0.0,0.0,0.0,0.0,0.0,0.0,0.0,0.0,0.0,0.0,0.0,0.0,0.0,0.0,0.0,0.0,0.0,0.0,0.0,0.0,0.0,0.0,-0.3814,-0.3613,0.0,0.0,0.0,0.0,-0.2476,-0.1154,-0.0318,-0.0212,0.0216,0.0553,0.0572,0.0233,0.0,0.0,0.0,0.0123,0.0492,0.0861,0.1099,0.1445,0.1806,0.1925,0.1921,0.1891,0.1864,0.1827,0.2202,0.2472,0.2527,0.2938,0.3175,0.3125,0.3125,0.3164,0.3316,0.0,0.0,0.0,0.0,0.0,0.0,0.0,0.0,-3.5788,-3.5757,-3.6063,-3.66,-3.73,-3.9489,-4.0801,-4.0472,-4.1249,-4.0806,-3.8368,-3.664,-3.5074,-3.3813,-3.282,-3.258,-3.3102,-3.2895,-3.3067,-3.3711,-3.3919,-3.3583,-3.2835,-3.334,-3.3284,-3.2766,-3.3244,-3.3176,-3.2708,-3.1381,-2.9504,-2.716,-2.4517,-2.2337,0.0,0.0,0.0,0.0,0.0,0.0,0.0,0.0,0.0,0.0,0.0,0.0,0.0,0.0,0.0,0.0,0.0,0.0,0.0,0.0,0.0,0.0,0.0,0.0,0.0,0.0,0.0,0.0,0.0,0.0,0.0,0.0,0.0,0.0,0.0,0.0,0.0,-0.4275,-0.3914,0.0,-0.3117,-0.2276,-0.1639,-0.1201,-0.056,0.0228,0.1268,0.1775,0.2172,0.256,0.2574,0.259,0.2483,0.2469,0.2708,0.2952,0.3323,0.3681,0.4029,0.4273,0.4492,0.4451,0.4425,0.3903,0.3137,0.3421,0.3095,0.2502,0.2974,0.3095,0.3082,0.3082,0.312,0.3172,0.0,0.0,0.0,0.0,0.0,0.0,0.0,0.0,-3.5715,-3.563,-3.6511,-3.7493,-3.8498,-4.1228,-4.2874,-4.2632,-4.3355,-4.2488,-3.9316,-3.7413,-3.5558,-3.3687,-3.3002,-3.296,-3.3556,-3.3513,-3.3984,-3.4874,-3.4366,-3.3841,-3.3182,-3.3002,-3.2869,-3.2736,-3.2792,-3.2767,-3.2663,-3.219,-3.0179,-2.712,-2.4722,-2.2766,-2.1032,0.0,0.0,0.0,0.0,0.0,0.0,0.0,0.0,0.0,0.0,0.0,0.0,0.0,0.0,0.0,0.0,0.0,0.0,0.0,0.0,0.0,0.0,0.0,0.0,0.0,0.0,0.0,0.0,0.0,0.0,0.0,0.0,0.0,0.0,-0.5261,-0.4974,-0.4193,-0.4032,-0.368,-0.2974,-0.1967,-0.1168,-0.07,0.0359,0.1585,0.2706,0.3262,0.3814,0.4215,0.4215,0.4068,0.403,0.4133,0.4235,0.4583,0.493,0.5287,0.5533,0.5774,0.5867,0.5931,0.5906,0.5364,0.4454,0.4651,0.4249,0.3543,0.3136,0.3089,0.307,0.3147,0.318,0.3226,0.0,0.0,0.0,0.0,0.0,0.0,0.0,-3.5831,-3.582,-3.5554,-3.7012,-3.8569,-3.991,-4.2636,-4.4288,-4.4079,-4.3697,-4.2139,-3.8915,-3.6483,-3.4505,-3.2905,-3.3218,-3.347,-3.367,-3.4972,-3.5578,-3.5286,-3.5169,-3.4491,-3.3161,-3.2687,-3.2779,-3.3302,-3.3445,-3.336,-3.3171,-3.2965,-3.126,-2.8471,-2.6433,-2.435,-2.2161,0.0,0.0,0.0,0.0,0.0,0.0,0.0,0.0,0.0,0.0,0.0,0.0,0.0,0.0,0.0,0.0,0.0,0.0,0.0,0.0,0.0,0.0,0.0,0.0,0.0,0.0,0.0,0.0,0.0,0.0,0.0,0.0,0.0,-0.4712,-0.5108,-0.4912,-0.363,-0.3828,-0.3725,-0.285,-0.1354,-0.0631,-0.1134,0.1787,0.3734,0.3863,0.4766,0.5314,0.5388,0.4729,0.4336,0.4204,0.4529,0.4846,0.5025,0.5324,0.5655,0.6018,0.6018,0.6018,0.6014,0.6051,0.5843,0.5739,0.5899,0.5927,0.5735,0.3757,0.304,0.3082,0.3239,0.336,0.3392,0.0,0.0,0.0,0.0,0.0,0.0,-3.5876,-3.5811,-3.5704,-3.5577,-3.7576,-3.9571,-4.0976,-4.3696,-4.5375,-4.5265,-4.4193,-4.2152,-3.9012,-3.6502,-3.4729,-3.3763,-3.3522,-3.4472,-3.6734,-3.5847,-3.5943,-3.7137,-3.5124,-3.3889,-3.3339,-3.3203,-3.27,-3.2035,-3.2431,-3.2548,-3.2416,-3.1736,-3.1172,-3.0477,-2.7063,-2.4969,-2.3519,0.0,0.0,0.0,0.0,0.0,0.0,0.0,0.0,0.0,0.0,0.0,0.0,0.0,0.0,0.0,0.0,0.0,0.0,0.0,0.0,0.0,0.0,0.0,0.0,0.0,0.0,0.0,0.0,0.0,0.0,0.0,-0.4876,-0.4916,-0.5075,-0.4923,-0.4461,-0.3505,-0.3449,-0.3025,-0.2079,-0.104,0.0,0.1039,0.2737,0.4574,0.6276,0.6727,0.7144,0.7495,0.736,0.7159,0.7005,0.7224,0.7531,0.7793,0.8127,0.8349,0.8714,0.8714,0.8714,0.8714,0.8678,0.8102,0.7143,0.7122,0.6517,0.5584,0.4552,0.4257,0.4271,0.3532,0.3332,0.3335,0.0,0.0,0.0,0.0,0.0,0.0,-3.5898,-3.5822,-3.585,-3.6074,-3.838,-4.0539,-4.203,-4.4166,-4.5456,-4.5433,-4.4058,-4.1838,-3.8627,-3.6353,-3.5115,-3.5002,-3.5081,-3.5967,-3.7885,-3.6721,-3.6668,-3.7887,-3.5844,-3.4611,-3.4198,-3.3913,-3.3425,-3.2687,-3.2407,-3.2365,-3.2423,-3.1845,-3.1292,-3.0728,-2.8302,-2.6714,-2.5408,-2.2666,-2.1669,-2.1683,-2.0828,-2.1002,-2.1542,-2.0045,0.0,0.0,0.0,0.0,0.0,0.0,0.0,0.0,0.0,0.0,0.0,0.0,0.0,0.0,0.0,0.0,0.0,0.0,0.0,0.0,0.0,0.0,0.0,0.0,-0.5122,-0.5082,-0.5028,-0.4836,-0.4148,-0.2806,-0.2903,-0.242,-0.0672,-0.0133,0.0929,0.2653,0.4113,0.5572,0.7294,0.7749,0.8158,0.8492,0.8486,0.8399,0.8209,0.8655,0.8818,0.894,0.9368,0.9579,0.9822,0.9822,0.9822,0.9822,0.9207,0.8852,0.8431,0.7769,0.7028,0.6139,0.0,0.0,0.0,0.0,0.3283,0.3278,0.0,0.0,0.0,0.0,0.0,0.0,-3.5937,-3.5898,-3.6074,-3.6629,-3.9092,-4.1319,-4.2594,-4.4115,-4.5069,-4.5107,-4.3604,-4.1361,-3.8383,-3.6453,-3.5884,-3.7,-3.7542,-3.8037,-3.8531,-3.7948,-3.784,-3.8249,-3.7048,-3.6149,-3.5679,-3.4953,-3.4577,-3.4405,-3.3006,-3.2553,-3.2847,-3.2385,-3.1417,-2.9989,-2.9334,-2.8377,-2.7066,-2.3763,-2.2899,-2.3299,-2.1293,-2.1116,-2.159,-2.0371,0.0,0.0,0.0,0.0,0.0,0.0,0.0,0.0,0.0,0.0,0.0,0.0,0.0,0.0,0.0,0.0,0.0,0.0,0.0,0.0,0.0,0.0,0.0,0.0,-0.5486,-0.4987,-0.4774,-0.47,-0.3768,-0.1703,-0.24,-0.2017,0.0941,0.1209,0.2016,0.3895,0.5644,0.6853,0.765,0.8184,0.0,0.0,0.0,0.853,0.8421,0.8951,0.9209,0.9081,0.9568,0.9741,0.9599,0.9619,0.9483,0.9329,0.8116,0.8233,0.8955,0.7746,0.7064,0.6732,0.5026,0.4249,0.412,0.3483,0.324,0.324,0.0,0.0,0.0,0.0,0.0,0.0,-3.5976,-3.5937,-3.593,-3.5988,-3.885,-4.0938,-4.1119,-4.3628,-4.5299,-4.5265,-4.3497,-4.1684,-4.0077,-3.8412,-3.8686,-4.1423,-4.0745,-4.094,-4.227,-4.0495,-3.9907,-4.0522,-3.8366,-3.7526,-3.7947,-3.6689,-3.5766,-3.522,-3.3675,-3.2886,-3.2745,-3.0767,-3.0226,-3.0381,-2.7435,-2.6186,-2.598,-2.4553,-2.387,-2.3602,-2.2575,-2.2771,-2.308,-2.0933,-2.0194,-2.0142,-1.8444,-1.7448,0.0,0.0,0.0,0.0,0.0,0.0,0.0,0.0,0.0,0.0,0.0,0.0,0.0,0.0,0.0,0.0,0.0,0.0,0.0,-0.5435,-0.5088,-0.4614,-0.4238,-0.3643,-0.2923,-0.1705,-0.2001,-0.121,0.1612,0.188,0.2952,0.5366,0.6577,0.765,0.8318,0.859,0.859,0.859,0.8851,0.8927,0.8807,0.9559,0.9729,0.9589,1.0076,0.0,0.8381,0.8483,0.7791,0.6634,0.6345,0.6438,0.6561,0.6164,0.5358,0.4571,0.4496,0.4113,0.3439,0.3311,0.3305,0.3297,0.0,0.0,0.0,0.0,0.0,0.0,-3.6016,-3.5976,-3.6092,-3.6467,-3.8385,-3.9855,-4.0192,-4.1582,-4.2458,-4.2409,-4.1338,-4.0726,-4.094,-4.1026,-4.2263,-4.4927,-4.3948,-4.4076,-4.5634,-4.3473,-4.2532,-4.2867,-4.1376,-4.023,-3.939,-3.8705,-3.7499,-3.5944,-3.4347,-3.3345,-3.2745,-3.0348,-2.9261,-2.8953,-2.6751,-2.5198,-2.4114,-2.388,-2.3626,-2.3241,-2.2697,-2.2594,-2.2366,-2.0732,-2.0226,-2.015,-1.9139,-1.8151,-1.7309,0.0,0.0,0.0,0.0,0.0,0.0,0.0,0.0,0.0,0.0,0.0,0.0,0.0,0.0,-0.6366,-0.5927,0.0,-0.59,-0.5703,-0.5155,-0.4587,-0.4014,-0.3406,-0.2544,-0.117,-0.1452,-0.0932,0.1596,0.214,0.2954,0.4428,0.577,0.6443,0.6439,0.7111,0.7512,0.7512,0.8318,0.8823,0.8766,0.8694,0.8632,0.857,0.8247,0.7806,0.699,0.7042,0.6629,0.5906,0.5279,0.5236,0.5762,0.4954,0.4325,0.3862,0.3583,0.3292,0.3114,0.3114,0.3199,0.3273,0.0,0.0,0.0,0.0,0.0,0.0,0.0,-3.5898,-3.6211,-3.6875,-3.7915,-3.8732,-3.917,-3.944,-3.9551,-3.931,-3.9611,-4.0475,-4.192,-4.3945,-4.597,-4.8049,-4.7311,-4.7397,-4.8623,-4.6498,-4.5293,-4.5256,-4.4555,-4.3231,-4.1337,-4.0867,-3.9556,-3.7514,-3.5536,-3.4197,-3.3179,-3.0712,-2.8999,-2.772,-2.6309,-2.452,-2.2717,-2.2695,-2.2618,-2.2518,-2.2059,-2.1571,-2.105,-2.0253,-1.9872,-1.9667,-1.9667,-1.8858,-1.7725,-1.6922,-1.6305,0.0,0.0,0.0,0.0,0.0,0.0,0.0,0.0,-0.7354,-0.6978,-0.7064,-0.6748,-0.6546,-0.6363,-0.6165,-0.5998,-0.5941,-0.5181,-0.4395,-0.3878,-0.3266,-0.2273,-0.0894,-0.1302,-0.0792,0.1323,0.2136,0.2685,0.3356,0.4565,0.4967,0.4294,0.5369,0.6038,0.6038,0.7245,0.7912,0.7912,0.7294,0.7121,0.7117,0.6385,0.5953,0.568,0.5698,0.5558,0.5141,0.4055,0.4114,0.4885,0.3755,0.3426,0.3482,0.2543,0.248,0.2829,0.2912,0.3076,0.3232,0.0,0.0,0.0,0.0,0.0,0.0,0.0,0.0,-3.6016,-3.6055,-3.7464,-3.8254,-3.7546,-3.8786,-3.9381,-3.8606,-4.1189,-4.3285,-4.4175,-4.6947,-4.9296,-5.1037,-5.0903,-5.0858,-5.1012,-4.9042,-4.7959,-4.7959,-4.6478,-4.561,-4.5313,-4.3348,-4.2029,-4.1259,-3.8065,-3.5938,-3.4622,-3.2175,-3.0143,-2.8264,-2.5148,-2.3744,-2.3317,-2.1438,-2.1278,-2.1884,-2.0783,-2.0448,-2.0427,-1.9672,-1.936,-1.933,-1.933,-1.9252,-1.8779,-1.7216,-1.6414,-1.5671,-1.3436,-1.1685,-1.0176,-0.9099,-0.8726,-0.8542,0.0,-0.8073,-0.7541,-0.7235,-0.7083,-0.68,-0.6105,-0.6125,-0.5941,-0.4961,-0.4346,-0.3817,-0.3213,-0.2476,-0.1982,-0.1862,-0.193,-0.1192,0.0938,0.1209,0.2148,0.4026,0.4294,0.4428,0.4294,0.4428,0.4562,0.4562,0.4961,0.5362,0.5767,0.5893,0.6152,0.6552,0.6406,0.5701,0.4464,0.4519,0.3828,0.2576,0.2285,0.2234,0.2294,0.2132,0.2095,0.2061,0.214,0.2433,0.2709,0.2835,0.3076,0.3232,0.0,0.0,0.0,0.0,0.0,0.0,0.0,0.0,0.0,-3.5898,-3.6596,-3.6899,-3.6548,-3.7089,-3.7352,-3.6988,-4.0053,-4.2732,-4.4487,-4.8156,-5.1205,-5.3298,-5.3135,-5.3417,-5.4368,-5.2899,-5.1887,-5.149,-5.0851,-4.958,-4.7725,-4.6892,-4.5458,-4.3681,-4.1811,-3.9928,-3.7931,-3.5488,-3.3221,-3.0931,-2.8208,-2.6002,-2.4183,-2.2127,-2.1092,-2.0639,-2.0247,-1.9434,0.0,-1.8478,-1.8354,-1.8339,-1.8628,-1.8323,-1.7624,-1.6522,-1.5951,-1.506,-1.2698,-1.1444,-1.052,-0.8808,-0.8466,-0.8614,-0.8235,-0.7917,-0.7565,-0.7066,-0.697,-0.6725,-0.6093,-0.6036,-0.5839,-0.4944,-0.4276,-0.3697,-0.3083,-0.2469,-0.1982,-0.1999,-0.1793,-0.1305,-0.0262,0.0925,0.1731,0.1746,0.2553,0.2687,0.1881,0.2553,0.2956,0.2956,0.4024,0.4559,0.4696,0.4431,0.4431,0.4565,0.4129,0.3574,0.3029,0.3021,0.2726,0.2037,0.2024,0.1996,0.1954,0.1906,0.1879,0.1862,0.1928,0.2222,0.2617,0.2872,0.3127,0.3278,0.0,0.0,0.0,0.0,0.0,0.0,0.0,0.0,0.0,0.0,-3.5976,-3.6016,-3.6016,-3.6133,-3.6277,-3.6246,-3.9168,-4.2074,-4.4528,-4.8547,-5.2044,-5.4735,-5.4986,-5.5671,-5.7079,-5.6022,-5.5178,-5.4597,-5.4339,-5.3005,-5.0721,-5.0545,-4.922,-4.6965,-4.5862,-4.4033,-4.1572,-3.9166,-3.648,-3.3585,-3.1369,-2.8612,-2.5615,-2.3597,-2.1848,-2.0309,-1.9382,-1.8228,-1.7116,-1.7124,-1.7065,-1.7035,-1.754,-1.7148,-1.6498,-1.5906,-1.506,-1.401,-1.2312,-1.1404,-1.0594,-0.9013,-0.8649,-0.8529,-0.8007,-0.7737,-0.7446,-0.6931,-0.6748,-0.6463,-0.6129,-0.5869,-0.5487,-0.4757,-0.4069,-0.347,-0.2839,-0.2354,-0.1993,-0.188,-0.1519,-0.1278,-0.0903,0.0524,0.1062,0.0134,0.094,0.1076,0.0,0.0941,0.1479,0.1479,0.2687,0.3356,0.3356,0.2946,0.2809,0.2942,0.2374,0.2097,0.2095,0.2074,0.2048,0.2019,0.2019,0.2003,0.1971,0.1911,0.1885,0.188,0.1932,0.2116,0.2529,0.2592,0.2964,0.3313,0.0,0.0,0.0,0.0,0.0,0.0,0.0,0.0,0.0,0.0,0.0,0.0,0.0,-3.668,-3.7148,-3.7148,-3.9575,-4.2187,-4.4738,-4.8162,-5.1636,-5.503,-5.6619,-5.779,-5.8635,-5.7562,-5.6977,-5.6874,-5.5744,-5.5123,-5.4995,-5.4016,-5.3011,-5.1967,-5.0013,-4.7704,-4.5151,-4.2982,-3.9621,-3.5538,-3.3669,-3.0979,-2.7788,-2.5522,-2.3496,-2.144,-1.8193,-1.6607,-1.5931,-1.5545,-1.5359,-1.543,-1.5739,-1.6049,-1.6195,-1.559,-1.4025,-1.2498,-1.271,-1.1293,-0.9879,-1.0228,-0.9389,-0.8367,-0.8059,-0.7738,-0.7413,-0.6962,-0.6644,-0.6275,-0.5846,-0.5249,-0.4577,-0.3976,-0.3339,-0.2761,-0.2105,-0.2,-0.1881,-0.161,-0.1236,-0.0876,-0.0515,-0.0397,-0.0268,0.0,0.0,0.0,0.0,0.0,0.0,0.0,0.0404,0.0807,0.1212,0.146,0.1847,0.211,0.2079,0.2065,0.2065,0.2064,0.2048,0.2019,0.2019,0.2003,0.1971,0.1911,0.1885,0.188,0.2159,0.2244,0.2125,0.187,0.2352,0.3313,0.0,0.0,0.0,0.0,0.0,0.0,0.0,0.0,0.0,0.0,0.0,0.0,0.0,0.0,0.0,0.0,-3.9996,-4.1984,-4.3976,-4.7344,-5.0273,-5.2563,-5.5348,-5.72,-5.8038,-5.8804,-5.9121,-5.8915,-5.9048,-5.8633,-5.7743,-5.7794,-5.7334,-5.6425,-5.528,-5.3349,-5.0816,-4.8763,-4.5561,-4.1636,-3.8296,-3.5142,-3.1958,-2.7661,-2.4661,-2.2512,0.0,-1.7515,-1.6598,-1.5764,-1.5462,-1.5375,-1.5273,-1.4933,-1.4414,-1.3762,-1.3222,-1.2697,-1.2237,-1.1857,-1.1376,-1.0153,-0.9746,-0.9334,-0.8128,-0.7662,-0.7209,-0.6428,-0.6089,-0.5673,-0.499,-0.47,-0.4265,-0.3262,-0.3026,-0.274,-0.2128,-0.1761,-0.1637,-0.1504,-0.102,-0.0643,-0.051,-0.0259,-0.0132,0.0,0.0,0.0,0.0,0.0,0.0,0.0,0.0272,0.0541,0.0664,0.1321,0.1574,0.1689,0.192,0.2024,0.2005,0.2005,0.2,0.1989,0.1969,0.1955,0.1941,0.1881,0.1391,0.0693,0.0679,0.0336,-0.0112,0.011,0.0645,0.1157,0.0,0.0,0.0,0.0,0.0,0.0,0.0,0.0,0.0,0.0,0.0,0.0,0.0,0.0,0.0,0.0,0.0,-4.1562,-4.3555,-4.5742,-4.8164,-5.0859,-5.308,-5.475,-5.5843,-5.6673,-5.7125,-5.7226,-5.8351,-5.8583,-5.8038,-5.8936,-5.9139,-5.8676,-5.7843,-5.62,-5.4024,-5.1904,-4.8495,-4.4153,-4.075,-3.7296,-3.3595,-2.9499,-2.6387,0.0,-2.1511,-1.958,-1.7929,-1.6381,-1.5529,-1.518,-1.4895,-1.4233,-1.3464,-1.3037,-1.3052,-1.3114,-1.2767,-1.2664,-1.2387,-1.1349,-1.0932,-1.0406,-0.9171,-0.8388,-0.7601,-0.6702,-0.5817,-0.5092,-0.44,-0.3959,-0.351,-0.279,-0.267,-0.2409,-0.1856,-0.1614,-0.1374,-0.1143,-0.0773,-0.0388,-0.0385,-0.0129,0.0,0.0,0.0,0.0,0.0,0.0,0.0,0.0,0.0272,0.054,0.0659,0.1305,0.1546,0.1652,0.1886,0.1994,0.1977,0.1966,0.196,0.1959,0.1445,0.1315,0.1193,0.0697,0.0115,-0.0573,-0.0676,-0.1009,-0.1453,-0.1327,-0.0985,-0.0539,0.0,0.0,0.0,0.0,0.0,0.0,0.0,0.0,0.0,0.0,0.0,0.0,0.0,0.0,0.0,0.0,0.0,0.0,-4.3398,-4.3633,-4.5547,-4.9687,-5.0039,-5.0859,-5.2383,-5.1719,-5.1701,-5.2416,-5.4168,-5.541,-5.6191,-5.7582,-5.8406,-5.8693,-5.762,-5.6224,-5.4616,-5.2289,-4.8301,-4.329,-4.1117,-3.738,-3.3014,-3.1144,-2.8497,-2.5669,-2.4526,-2.252,-1.9906,-1.7333,-1.5743,-1.4874,-1.4712,-1.4117,-1.3408,-1.3486,-1.3485,-1.3671,-1.4169,-1.3522,-1.2985,-1.3487,-1.2644,-1.1669,-1.1004,-0.9802,-0.8482,-0.7334,-0.5892,-0.4605,-0.4145,-0.327,-0.2609,-0.2549,-0.209,-0.1719,-0.1442,-0.133,-0.1107,-0.0513,-0.051,-0.0383,0.0,0.0,0.0,0.0,0.0,0.0,0.0,0.0,0.0,0.0,0.0271,0.0668,0.1053,0.1407,0.1627,0.1977,0.1977,0.1853,0.1852,0.1823,0.1689,0.1688,0.0473,0.0,-0.0117,-0.1271,-0.1722,-0.1834,-0.1918,-0.1905,-0.2015,-0.2576,-0.2463,-0.1667,0.0,0.0,0.0,0.0,0.0,0.0,0.0,0.0,0.0,0.0,0.0,0.0,0.0,0.0,0.0,0.0,0.0,0.0,-4.1638,-4.296,-4.421,-4.531,-4.7851,-4.9413,-4.9841,-5.1474,-5.2448,-5.2605,-5.4281,-5.5169,-5.5317,-5.6087,-5.6464,-5.6483,-5.5527,-5.4348,-5.2819,-5.0914,-4.797,-4.4409,-4.122,-3.8316,-3.5427,-3.2101,-2.9414,-2.7143,-2.563,-2.3559,-2.1217,-1.9012,-1.678,-1.5036,-1.4781,-1.4309,-1.3773,-1.3566,-1.3635,-1.3749,-1.3755,-1.3951,-1.3982,-1.2941,-1.276,-1.2533,-1.0681,-0.93,-0.7968,-0.6558,-0.5157,-0.3891,-0.2949,-0.2591,-0.2296,-0.2019,-0.1699,-0.144,-0.149,-0.0999,-0.0627,-0.0508,-0.0256,-0.0129,0.0,0.0,0.0,0.0,0.0,0.0,0.0,0.0,0.0,0.0,0.0271,0.0665,0.1038,0.1638,0.186,0.1977,0.0987,0.0493,0.0493,-0.0485,-0.0842,-0.0841,-0.1169,-0.1279,-0.141,-0.1733,-0.241,-0.321,-0.3198,-0.3737,-0.448,-0.4145,-0.3859,-0.3554,0.0,0.0,0.0,0.0,0.0,0.0,0.0,0.0,0.0,0.0,0.0,0.0,0.0,0.0,0.0,0.0,0.0,0.0,0.0,-4.1978,-4.2714,-4.3112,-4.4642,-4.566,-4.6049,-4.7054,-4.7796,-4.8199,-5.0249,-5.139,-5.1648,-5.3081,-5.3674,-5.3552,-5.3213,-5.213,-5.0478,-4.9118,-4.6572,0.0,0.0,-3.7793,-3.5253,-3.2458,-3.0254,-2.8344,-2.6815,-2.4707,-2.2352,-2.1172,-1.9033,-1.6804,-1.633,-1.5917,-1.5443,-1.5206,-1.5256,-1.5317,-1.5063,-1.5245,-1.5287,-1.4184,-1.3919,-1.3487,-1.1524,-0.9968,-0.8555,-0.7041,-0.5183,-0.3688,-0.3063,-0.2415,-0.1918,-0.1659,-0.143,-0.1283,-0.1229,-0.0738,-0.0371,-0.0254,-0.0129,0.0,0.0,0.0,0.0,0.0,0.0,0.0,0.0,-0.0552,-0.0823,-0.0817,-0.1342,-0.1314,-0.1021,-0.0374,0.0,0.0,-0.0616,-0.0863,-0.0861,-0.1564,-0.1787,-0.1903,-0.2302,-0.2623,-0.2645,-0.3193,-0.3862,-0.4428,-0.4428,-0.4859,-0.5382,-0.5043,-0.4871,-0.4886,0.0,0.0,0.0,0.0,0.0,0.0,0.0,0.0,0.0,0.0,0.0,0.0,0.0,0.0,0.0,0.0,0.0,0.0,0.0,0.0,-4.1576,-4.2204,-4.1501,-4.1468,-4.2218,-4.1585,-4.1654,-4.2396,-4.4904,-4.6404,-4.6991,-4.933,-5.0231,-4.9963,-5.0396,-4.9518,-4.7678,-4.6945,-4.4565,-4.1063,-3.9265,-3.6819,-3.4071,0.0,-3.1207,-2.9525,-2.8061,-2.5868,-2.37,-2.3637,-2.174,-1.9366,-1.8624,-1.8115,-1.7814,-1.7409,-1.719,-1.7065,-1.6846,-1.674,-1.6583,-1.6033,-1.5423,-1.4618,-1.277,-1.1054,-0.9354,-0.7986,-0.5636,-0.3838,-0.3595,-0.2532,-0.1645,-0.1516,-0.1365,-0.1107,-0.0841,-0.0599,-0.0363,-0.0256,-0.0129,-0.013,-0.0526,-0.0396,-0.0401,-0.0551,-0.0551,-0.0553,-0.028,-0.1502,-0.2283,-0.2278,-0.3441,-0.3894,-0.3534,-0.2866,-0.2477,-0.2477,-0.2349,-0.2222,-0.2344,-0.2392,-0.236,-0.2474,-0.3418,-0.3821,-0.3942,-0.495,-0.5398,-0.5398,-0.551,-0.5613,-0.5605,-0.5712,-0.5922,-0.6097,0.0,0.0,0.0,0.0,0.0,0.0,0.0,0.0,0.0,0.0,-4.277,-4.2143,0.0,0.0,0.0,0.0,0.0,0.0,0.0,0.0,0.0,-4.1342,-4.1186,-4.1189,-4.1309,-4.1892,-4.224,-4.2399,-4.4181,-4.5101,-4.518,-4.625,-4.6314,-4.5603,-4.6031,-4.5589,-4.4524,-4.3743,-4.2617,-4.1172,-3.9111,-3.7283,-3.5677,-3.4331,0.0,0.0,-2.919,-2.7207,-2.5826,-2.6198,-2.4023,-2.119,-2.0806,-1.999,-1.8904,-1.7838,-1.7216,-1.6846,-1.6487,-1.657,-1.6677,-1.6056,-1.5927,-1.5329,-1.2883,-1.1344,-0.9719,-0.7279,-0.5668,-0.4335,-0.3233,-0.288,-0.2438,-0.1464,-0.1088,-0.0802,-0.062,-0.0247,-0.0494,-0.1514,-0.0633,-0.0896,-0.315,-0.2394,-0.2315,-0.3674,-0.361,-0.3034,-0.182,-0.3001,-0.3737,-0.3957,-0.3813,-0.3649,-0.3333,-0.2941,-0.2554,-0.23,-0.328,-0.3761,-0.3758,-0.474,-0.5156,-0.5148,-0.5215,-0.518,-0.5242,-0.5402,-0.5484,-0.5597,-0.628,-0.6566,-0.6604,-0.726,-0.7523,-0.7539,0.0,0.0,0.0,0.0,0.0,0.0,0.0,-4.4114,-4.5012,-4.6768,-4.6205,-4.5312,-4.4374,-4.3867,0.0,0.0,0.0,0.0,0.0,0.0,0.0,0.0,-4.2201,-4.224,-4.1771,-4.263,-4.3099,-4.3063,0.0,-4.4742,-4.4672,-4.5465,-4.531,-4.4405,-4.4798,-4.4235,-4.2974,-4.2201,-4.1403,-4.0467,-3.8654,-3.7376,-3.6441,-3.5318,0.0,0.0,-3.0038,-2.8583,-2.7584,-2.7926,-2.6662,-2.4886,-2.3672,-2.2601,-2.1573,-2.0524,-2.0083,-1.9834,-1.9606,-1.9451,-1.9078,-1.7922,-1.7105,-1.5935,-1.316,-1.1677,-1.0177,-0.7893,-0.656,-0.548,-0.4541,-0.3889,-0.3397,-0.2874,-0.2453,-0.2018,-0.1447,-0.1705,-0.197,-0.2158,-0.2325,-0.2892,-0.4292,-0.3787,-0.3707,-0.451,-0.5062,-0.4768,-0.3529,-0.4652,-0.5615,-0.6506,-0.628,-0.6126,-0.6046,-0.544,-0.5016,-0.4759,-0.4946,-0.5039,-0.5161,-0.5616,-0.5782,-0.5774,-0.5639,-0.5602,-0.5635,-0.6001,-0.6189,-0.6298,-0.7145,-0.7421,-0.7482,-0.7808,-0.8323,-0.8696,0.0,0.0,0.0,0.0,0.0,0.0,0.0,-4.5597,-4.6807,-4.954,-4.9735,-4.8798,-4.6612,-4.5441,-4.466,0.0,0.0,0.0,0.0,0.0,0.0,0.0,0.0,0.0,-4.2708,0.0,0.0,-4.3673,-4.439,0.0,0.0,0.0,0.0,0.0,-4.463,-4.3942,-4.2494,-4.1601,-4.0835,0.0,0.0,-3.7755,-3.7185,0.0,0.0,0.0,0.0,-3.0262,-2.9187,-2.9392,-2.8895,-2.7894,-2.6275,-2.5133,-2.4278,-2.3281,-2.2894,-2.2708,-2.2584,-2.2114,-2.1461,-2.0071,-1.8803,-1.6995,-1.3878,-1.2428,-1.1107,-0.8932,-0.7628,-0.6734,-0.6128,-0.505,-0.4292,-0.4196,-0.3817,-0.3252,-0.2584,-0.3229,-0.3679,-0.3228,-0.3973,-0.4723,-0.5474,-0.5345,-0.5237,-0.5447,-0.6397,-0.6521,-0.5624,-0.6437,-0.7425,-0.8666,-0.8486,-0.8475,-0.8526,-0.7685,-0.7317,-0.7145,-0.6404,-0.6092,-0.6047,-0.6128,-0.6168,-0.6163,-0.6182,-0.6255,-0.6368,-0.6955,-0.7138,-0.7241,-0.8045,-0.845,-0.845,-0.8562,-0.9106,-0.9728,0.0,0.0,0.0,0.0,0.0,0.0,0.0,-4.7471,-4.9657,-5.3093,-5.2819,-5.196,-5.0906,-4.9345,-4.7705,0.0,0.0,0.0,0.0,0.0,0.0,0.0,0.0,0.0,0.0,0.0,0.0,-4.3533,-4.4267,0.0,0.0,0.0,0.0,0.0,0.0,-4.4172,-4.3215,-4.1853,0.0,0.0,0.0,0.0,0.0,0.0,0.0,0.0,0.0,-3.2402,-3.0664,-3.1186,-2.9908,-2.8051,-2.7478,-2.6879,-2.6064,-2.4374,-2.34,-2.2806,-2.2707,-2.2482,-2.2154,-2.1771,-2.1135,-1.9517,-1.5617,-1.4102,-1.2699,-0.9966,-0.8546,-0.7628,-0.7061,-0.608,-0.4977,-0.3976,-0.3635,-0.3507,-0.3615,-0.3756,-0.4324,-0.5837,-0.5091,-0.5531,-0.8209,-0.7265,-0.7031,-0.8382,-0.8739,-0.866,-0.8246,-0.8439,-0.8665,-0.8916,-0.8894,-0.8756,-0.8357,-0.7922,-0.7542,-0.6956,-0.6464,-0.6206,-0.6051,-0.6927,-0.7235,-0.7352,-0.8079,-0.8379,-0.8367,-0.8482,-0.8427,-0.8543,-0.9327,-0.9781,-0.9781,-1.0593,-1.085,-1.0827,0.0,0.0,0.0,0.0,0.0,0.0,-4.6105,-4.7315,-4.9306,-5.278,-5.2936,-5.278,-5.2936,-5.1882,-4.9852,0.0,0.0,0.0,0.0,0.0,0.0,0.0,0.0,0.0,0.0,0.0,-4.5111,-4.5085,-4.5237,0.0,0.0,0.0,0.0,0.0,0.0,-4.4436,-4.4033,-4.2605,0.0,0.0,0.0,0.0,0.0,0.0,0.0,0.0,0.0,0.0,-3.2731,-3.2037,-3.0926,-2.9736,-2.8978,-2.8251,-2.7302,-2.5242,-2.4636,-2.4802,-2.5682,-2.54,-2.4859,-2.436,-2.2584,-2.0264,-1.7561,-1.5907,-1.4255,-1.1732,-1.0853,-1.0221,-0.8983,-0.7731,-0.6719,-0.6524,-0.563,-0.4847,-0.4457,-0.5248,-0.5928,-0.6141,-0.6558,-0.7379,-0.8713,-0.8326,-0.8203,-0.8809,-0.8997,-0.9405,-1.0291,-0.9515,-0.9014,-0.9063,-0.8992,-0.8847,-0.8776,-0.9181,-0.8877,-0.8179,-0.8513,-0.8331,-0.7796,-0.8161,-0.8227,-0.8227,-0.866,-0.8757,-0.8738,-0.9118,-0.9422,-0.9483,-1.0226,-1.0555,-1.0755,-1.1109,-1.1183,-1.111,0.0,0.0,0.0,0.0,0.0,-4.509,-4.6456,-4.7627,-4.9462,-5.2663,-5.3327,-5.36,-5.3951,-5.321,-5.1375,-4.8096,0.0,0.0,0.0,0.0,0.0,0.0,0.0,0.0,0.0,0.0,-4.6013,-4.5978,-4.6074,-4.5935,0.0,0.0,-4.5707,-4.5381,0.0,0.0,0.0,0.0,0.0,0.0,0.0,0.0,0.0,0.0,0.0,0.0,0.0,0.0,0.0,0.0,0.0,-3.103,-2.98,-2.8985,-2.8058,-2.6507,-2.6081,-2.6433,-2.7736,-2.7448,-2.6744,-2.6676,-2.4258,-2.1543,-1.9645,-1.7683,-1.5606,-1.3546,-1.2663,-1.2005,-1.0909,-0.9392,-0.8383,-0.8637,-0.7483,-0.6452,-0.6027,-0.6666,-0.6982,-0.6685,-0.7638,-0.841,-0.8807,-0.9319,-0.9793,-1.0246,-1.0385,-1.0868,-1.2136,-1.116,-1.0457,-1.0457,-1.0358,-1.0333,-1.0395,-1.0882,-1.0657,-0.9643,-1.0181,-0.9836,-0.9038,-0.9148,-0.9201,-0.9207,-0.9572,-0.9694,-0.9674,-1.0191,-1.0399,-1.0584,-1.1009,-1.1232,-1.1378,-1.1321,-1.1537,-1.1851,0.0,0.0,0.0,0.0,0.0,0.0,-4.7198,-4.8993,-5.1023,-5.3639,-5.4732,-5.4966,-5.4108,-5.321,-5.2312,-5.1414,0.0,0.0,0.0,0.0,0.0,0.0,0.0,0.0,0.0,0.0,-4.5852,-4.5718,-4.6515,-4.6364,-4.54,-4.6282,-4.6244,-4.5381,0.0,0.0,0.0,0.0,0.0,0.0,0.0,0.0,0.0,0.0,0.0,0.0,0.0,0.0,0.0,0.0,0.0,0.0,0.0,-2.8795,-2.8199,-2.8139,-2.7522,-2.716,-2.8112,-2.7725,-2.7215,-2.8338,-2.632,-2.3591,-2.1965,-1.9297,-1.6766,-1.5277,-1.3561,-1.2337,-1.2626,-1.0961,-0.9623,-0.9745,-0.8691,-0.7931,-0.8474,-0.7624,-0.7209,-0.7801,-0.7877,-0.8062,-0.8546,-1.0159,-1.1898,-1.3595,-1.3604,-1.3685,-1.3872,-1.388,-1.388,-1.388,-1.388,-1.3782,-1.3464,-1.3037,-1.2368,-1.1233,-1.0678,-0.9934,-0.9168,-0.9883,-1.0301,-1.0308,-1.1285,-1.1776,-1.1776,-1.1768,-1.1768,-1.1752,-1.1565,-1.1606,-1.1752,-1.1565,-1.2316,-1.3334,0.0,0.0,0.0,0.0,0.0,0.0,0.0,-4.6768,-4.8447,-5.0984,-5.157,-5.2546,-5.4654,-5.3561,-5.3053,-5.399,0.0,0.0,0.0,0.0,0.0,0.0,0.0,0.0,0.0,0.0,-4.6573,-4.6499,-4.7276,-4.7492,-4.7103,-4.6797,-4.6347,-4.5841,-4.4863,-4.4299,0.0,0.0,0.0,0.0,0.0,0.0,-4.1973,0.0,0.0,0.0,0.0,0.0,0.0,0.0,0.0,0.0,0.0,0.0,0.0,-2.9847,-2.8524,-2.7347,-2.7985,-2.7648,-2.7082,-2.7112,-2.5137,-2.2921,-2.2111,-2.0163,-1.8141,-1.7024,-1.5532,-1.4255,-1.3678,-1.1895,-1.0592,-1.0765,-0.9722,-0.8965,-0.9284,-0.9339,-0.9699,-1.0399,-1.1165,-1.1858,-1.1932,-1.2559,-1.3129,-1.3604,-1.3725,-1.439,-1.5443,-1.5443,-1.5017,-1.388,-1.388,-1.379,-1.3464,-1.4045,-1.3837,-1.275,-1.2826,-1.2432,-1.159,-1.1429,-1.1285,-1.1285,-1.1655,-1.1776,-1.1768,-1.1638,-1.2252,-1.3057,-1.2858,-1.3495,-1.4381,-1.4311,-1.4518,-1.4821,0.0,0.0,0.0,0.0,0.0,0.0,0.0,-4.6222,-4.7354,-4.8954,-4.9696,-5.1063,-5.3561,-5.2858,-5.3006,-5.5054,0.0,0.0,0.0,0.0,0.0,0.0,0.0,0.0,0.0,-4.6669,-4.7157,-4.7738,-4.8508,-4.8711,-4.834,-4.8111,-4.7327,-4.6051,-4.5235,-4.4549,0.0,0.0,0.0,0.0,0.0,0.0,-4.1421,0.0,0.0,0.0,0.0,0.0,0.0,0.0,0.0,0.0,0.0,0.0,0.0,0.0,-2.9548,-2.8241,-2.8442,-2.7924,-2.7401,-2.7536,-2.5401,-2.3247,-2.318,-2.0976,-1.8834,-1.8318,-1.6944,-1.5711,-1.513,-1.3341,-1.2065,-1.2224,-1.1007,-1.0153,-1.034,-1.0526,-1.1017,-1.1829,-1.2689,-1.3486,-1.4179,-1.4431,-1.4754,-1.5393,-1.5511,-1.6018,-1.7007,-1.7347,-1.6967,-1.5904,-1.5496,-1.5256,-1.4919,-1.5461,-1.5336,-1.4585,-1.4632,-1.4518,-1.401,-1.3472,-1.3204,-1.3204,-1.3204,-1.3204,0.0,-1.2976,-1.3438,-1.4232,-1.3924,-1.4405,-1.53,-1.53,-1.5649,-1.5952,0.0,0.0,0.0,0.0,0.0,0.0,0.0,0.0,-4.7506,-4.7584,-4.899,-5.0356,-5.1219,-5.1414,-5.245,-5.4835,0.0,0.0,0.0,0.0,0.0,0.0,0.0,0.0,0.0,-4.6971,-4.7721,-4.9188,-5.0068,-5.0099,-4.9366,-5.003,-4.8881,-4.6215,-4.5885,-4.511,0.0,0.0,0.0,0.0,-4.2056,-4.1469,0.0,0.0,0.0,0.0,0.0,0.0,0.0,0.0,0.0,0.0,0.0,0.0,0.0,0.0,0.0,0.0,0.0,-2.8525,-2.8062,-2.8923,-2.6645,-2.432,-2.4718,-2.187,0.0,-1.9188,-1.7853,-1.678,-1.678,-1.513,-1.3913,-1.4027,-1.2575,-1.1442,-1.1606,-1.1499,-1.1704,-1.2516,-1.2901,-1.39,-1.5575,-1.6011,-1.6907,-1.8369,-1.8541,-1.8541,-1.8519,-1.9255,-1.9546,-1.9154,-1.8329,-1.7806,-1.7588,-1.7118,-1.6882,-1.6853,-1.6265,-1.6134,-1.6342,-1.5893,-1.5569,-1.5569,-1.5569,-1.5569,-1.5558,-1.5216,-1.5109,-1.5171,-1.4729,-1.4776,-1.4961,-1.5084,-1.5873,-1.677,0.0,0.0,0.0,0.0,0.0,0.0,0.0,0.0,0.0,0.0,-4.8469,-4.945,-5.0308,-5.1605,-5.2889,0.0,0.0,0.0,0.0,0.0,0.0,0.0,0.0,0.0,0.0,-4.8276,-4.9056,-5.0106,-5.0941,-5.1505,-5.1926,-5.1166,-4.9711,-4.7645,-4.6688,-4.5259,0.0,0.0,0.0,0.0,-4.2103,-4.1525,0.0,0.0,0.0,0.0,-3.9952,-3.9592,0.0,0.0,0.0,0.0,0.0,0.0,0.0,0.0,-3.131,-3.0287,-3.0211,0.0,-2.748,-2.6287,-2.5415,-2.4687,0.0,-2.2597,-2.1225,-2.0957,-1.9075,-1.7496,-1.7496,-1.6308,-1.5088,-1.4244,-1.3915,-1.3508,-1.2819,-1.3754,-1.4703,-1.5319,-1.6306,-1.6768,-1.6739,-1.8101,-1.9163,-1.9128,-2.0095,-2.0527,-2.0184,-2.0379,-2.0352,-2.0079,-1.9401,-1.9157,-1.8969,-1.8641,-1.8459,-1.8311,-1.7434,-1.6949,-1.6808,-1.6172,-1.5795,-1.5569,-1.5569,-1.5569,-1.5569,-1.5515,-1.5959,-1.6586,-1.6457,-1.6903,-1.7576,-1.7687,-1.7811,-1.8007,0.0,0.0,0.0,0.0,0.0,0.0,0.0,0.0,0.0,0.0,0.0,0.0,0.0,0.0,0.0,0.0,0.0,0.0,0.0,0.0,0.0,0.0,0.0,-4.766,-4.8503,-4.9264,-5.0275,-5.1514,-5.2332,-5.2957,-5.3378,-5.231,-5.0523,-4.8123,-4.596,-4.4444,0.0,0.0,0.0,-4.2458,-4.2008,0.0,0.0,0.0,0.0,0.0,-4.0087,-3.9901,0.0,-3.954,-3.9028,-3.8222,0.0,0.0,0.0,0.0,-3.2694,-3.1804,-3.1473,-2.9859,-2.8024,-2.7392,-2.6377,-2.5372,-2.4895,-2.336,-2.1949,-2.1757,-2.0115,-1.8754,-1.9012,-1.8044,-1.7079,-1.6448,-1.6239,-1.5967,-1.5065,-1.5297,-1.5803,-1.6366,-1.7662,-1.8327,-1.8136,-1.9646,-2.0427,-2.0014,-2.0659,-2.0952,-2.08,-2.1188,-2.1254,-2.0824,-2.0762,-2.0398,-1.9524,-1.9242,-1.9202,-1.9536,-1.8775,-1.8557,-1.8544,-1.784,-1.7432,-1.7092,-1.699,-1.705,-1.7158,-1.6922,-1.7322,-1.7843,-1.7591,-1.8066,-1.9027,-1.9027,-1.9254,-1.9556,0.0,0.0,0.0,0.0,0.0,0.0,0.0,0.0,0.0,0.0,0.0,0.0,0.0,0.0,0.0,0.0,0.0,0.0,0.0,0.0,0.0,0.0,0.0,-4.8515,-4.9472,-5.0084,-5.1247,-5.2996,-5.3722,-5.418,-5.4295,-5.3569,-5.1423,-4.8091,-4.51,-4.3687,0.0,0.0,-4.2989,-4.2619,-4.1909,0.0,0.0,0.0,0.0,0.0,0.0,0.0,0.0,-3.9935,-3.9401,-3.8723,-3.7994,0.0,0.0,0.0,0.0,0.0,-3.2859,-3.1228,-2.9673,-2.9789,-2.8241,-2.6578,-2.6383,-2.4482,-2.2703,-2.2484,-2.1366,-2.0524,-2.0886,-2.0163,-1.9396,-1.9079,-1.8624,-1.813,-1.7559,-1.6907,-1.6633,-1.7133,-1.8175,-1.8994,-1.9316,-2.0634,-2.127,-2.095,-2.1095,-2.1227,-2.1188,-2.1692,-2.1905,-2.1603,-2.2204,-2.1775,-2.0249,-1.9601,-1.972,-2.0482,-2.0309,-2.0354,-2.0496,-1.9921,-1.964,-1.9346,-1.8919,-1.8986,-1.9456,-1.9195,-1.925,-1.9415,-1.8865,-1.9155,-2.0089,-1.9894,-2.0376,-2.1099,0.0,0.0,0.0,0.0,0.0,0.0,0.0,0.0,0.0,0.0,0.0,0.0,0.0,0.0,0.0,0.0,0.0,0.0,0.0,0.0,0.0,0.0,-5.0176,-4.9656,-5.1162,-5.0627,-5.1467,-5.3913,-5.4027,-5.4486,-5.5186,-5.5125,-5.2629,-4.8125,-4.625,-4.5004,-4.4199,-4.3432,-4.3602,-4.4235,-4.229,0.0,0.0,0.0,0.0,0.0,0.0,0.0,0.0,-3.9918,-3.9677,-3.9255,-3.859,0.0,0.0,0.0,0.0,0.0,-3.3828,-3.3594,-3.2647,-3.0362,-2.9372,-2.8743,-2.76,-2.6757,-2.5867,-2.4922,-2.3807,-2.2878,-2.2605,-2.2236,-2.1438,-1.9726,-1.8926,-1.8823,-1.9834,-1.9721,-1.9559,-1.9337,-1.9851,-1.9914,-1.9423,-2.1159,-2.2078,-2.1538,-2.2496,-2.3035,-2.2763,-2.2572,-2.2393,-2.2089,-2.3273,-2.356,-2.296,-2.1568,-2.1061,-2.1452,-2.2184,-2.2173,-2.1693,-2.1329,-2.1368,-2.1587,-2.0411,-2.0589,-2.1883,-2.1837,-2.1837,-2.1852,-2.1449,-2.1525,-2.1676,-2.0971,-2.1202,-2.1937,0.0,0.0,0.0,0.0,0.0,0.0,0.0,0.0,0.0,0.0,0.0,0.0,0.0,0.0,0.0,0.0,0.0,0.0,0.0,0.0,0.0,-5.3517,-5.1964,-5.1238,-5.1582,-5.162,-5.269,-5.4791,-5.5708,-5.6358,-5.6675,-5.4472,-5.1665,-4.8384,-4.6504,-4.5401,-4.4962,-4.4483,-4.4638,-4.5114,0.0,0.0,0.0,0.0,0.0,0.0,0.0,0.0,0.0,0.0,-3.9606,-3.9362,-3.8645,0.0,0.0,0.0,0.0,0.0,-3.4728,-3.4604,-3.4148,-3.2723,-3.1676,-3.0782,-3.0063,-2.862,-2.7114,-2.612,-2.4886,-2.3977,-2.3821,-2.4082,-2.4349,-2.4534,-2.3824,-2.3168,-2.3169,-2.2447,-2.1671,-2.0535,-2.098,-2.1186,-2.0584,-2.2708,-2.3588,-2.2523,-2.3613,-2.4377,-2.4224,-2.3764,-2.3882,-2.4428,-2.4629,-2.4565,-2.4416,-2.3295,-2.2991,-2.3213,-2.3406,-2.3168,-2.2519,-2.229,-2.2095,-2.1859,-2.1024,-2.123,-2.2148,-2.2148,-2.237,-2.2704,-2.2339,-2.263,-2.3211,-2.31,-2.3134,-2.3324,0.0,0.0,0.0,0.0,0.0,0.0,0.0,0.0,0.0,0.0,0.0,0.0,0.0,0.0,0.0,0.0,0.0,0.0,0.0,0.0,-5.4377,-5.4129,-5.3454,-5.2919,-5.2499,-5.3072,-5.4333,-5.6282,-5.7772,-5.8356,-5.7939,-5.4069,-5.1068,-4.8863,-4.6905,-4.5939,-4.5718,-4.5421,-4.5539,-4.5738,0.0,0.0,0.0,0.0,0.0,0.0,0.0,0.0,0.0,0.0,0.0,0.0,0.0,0.0,0.0,-3.6845,-3.6196,-3.5619,-3.5228,-3.5119,-3.5058,-3.4794,-3.3477,-3.2213,-3.2253,-3.039,-2.844,-2.7904,-2.6897,-2.6013,-2.5486,-2.5647,-2.654,-2.8501,-2.8076,-2.7364,-2.6672,-2.5758,-2.4529,-2.301,-2.3365,-2.3518,-2.3039,-2.4719,-2.5342,-2.41,-2.4949,-2.5513,-2.5432,-2.4972,-2.5156,-2.5929,-2.5691,-2.5423,-2.5138,-2.4876,-2.4663,-2.4387,-2.4425,-2.4049,-2.3496,-2.3289,-2.298,-2.2621,-2.203,-2.2055,-2.2633,-2.2732,-2.3161,-2.3723,-2.3442,-2.382,-2.4561,-2.4923,-2.4794,-2.4537,0.0,0.0,0.0,0.0,0.0,0.0,0.0,0.0,0.0,0.0,0.0,0.0,0.0,0.0,0.0,0.0,0.0,0.0,0.0,0.0,-5.4153,-5.4104,-5.4027,-5.4371,-5.5097,-5.5174,-5.6396,-5.8842,-5.9759,-5.9625,-5.8413,-5.5307,-5.2306,-4.9601,-4.8291,-4.7243,-4.6359,-4.5599,-4.5703,-4.6277,-4.4163,0.0,0.0,0.0,0.0,0.0,0.0,0.0,0.0,0.0,0.0,0.0,0.0,0.0,-3.8108,-3.7531,-3.6784,-3.5943,-3.5133,-3.5377,-3.5781,-3.5427,-3.3747,-3.2368,-3.3172,-3.2184,-3.1158,-3.1428,-3.1336,-3.0555,-2.8366,-2.6972,-2.6685,-2.8305,-2.8707,-2.9106,-3.0185,-2.997,-2.9509,-2.8841,-2.8127,-2.7589,-2.7148,-2.7,-2.6796,-2.6779,-2.6779,-2.673,-2.6372,-2.5997,-2.5469,-2.477,-2.5806,-2.5973,-2.5209,-2.6229,-2.5878,-2.3996,-2.5183,-2.5481,-2.5027,-2.4923,-2.5153,-2.5591,-2.3663,-2.3533,-2.4896,-2.5094,-2.5409,-2.5772,-2.5754,-2.5624,-2.5331,-2.5766,-2.5619,-2.5289,0.0,0.0,0.0,0.0,0.0,0.0,0.0,0.0,0.0,0.0,0.0,0.0,0.0,0.0,0.0,0.0,0.0,0.0,0.0,0.0,-5.4465,-5.4868,-5.4906,-5.5059,-5.5403,-5.5899,-5.7619,-6.0637,-6.0456,-5.9688,-5.8396,-5.5597,-5.2897,-5.0411,-4.9368,-4.8283,-4.7228,-4.6939,-4.6975,-4.7078,-4.5,-4.4107,0.0,0.0,0.0,0.0,0.0,0.0,0.0,0.0,-3.9342,-3.9288,-3.9288,-3.8843,-3.8222,-3.7911,-3.6773,-3.5492,-3.4928,-3.4658,-3.4589,-3.4729,-3.376,-3.3156,-3.4392,-3.326,-3.1763,-3.1307,-3.1825,-3.177,-2.988,-3.0055,-3.0391,-3.0289,-3.1613,-3.2555,-3.2247,-3.2208,-3.1456,-2.9744,-2.9118,-2.8323,-2.7366,-2.7815,-2.7847,-2.7021,-2.7516,-2.7552,-2.716,-2.7158,-2.6883,-2.6491,-2.7974,-2.8046,-2.6863,-2.7955,-2.7729,-2.6406,-2.6241,-2.6015,-2.5496,-2.5762,-2.5767,-2.5465,-2.4585,-2.4553,-2.5163,-2.5301,-2.5601,-2.5986,-2.6243,-2.6356,-2.6397,-2.612,-2.6199,-2.6378,0.0,0.0,0.0,0.0,0.0,0.0,0.0,0.0,0.0,0.0,0.0,0.0,0.0,0.0,0.0,0.0,0.0,0.0,-5.2862,-5.3572,-5.4172,-5.4562,-5.483,-5.525,-5.5759,-5.6561,-5.8356,-6.1182,-6.0798,-5.9741,-5.8084,-5.5621,-5.3524,-5.1708,-5.0149,-4.9135,-4.8424,-4.7916,-4.7409,-4.6825,-4.5666,-4.4671,0.0,0.0,0.0,0.0,0.0,0.0,0.0,0.0,-3.9415,-3.9288,-3.9288,-3.8952,-3.8502,-3.7995,-3.7023,-3.5887,-3.5003,-3.4498,-3.4345,-3.4351,-3.3968,-3.3824,-3.514,-3.4271,-3.3038,-3.2695,-3.2609,-3.2428,-3.1682,-3.2107,-3.2367,-3.1805,-3.3612,-3.4768,-3.3659,-3.3538,-3.293,-3.1153,-3.0268,-2.948,-2.8643,-2.9114,-2.9085,-2.84,-2.8937,-2.9003,-2.8578,-2.8601,-2.8548,-2.8269,-2.9367,-2.9451,-2.8178,-2.8977,-2.8849,-2.7891,-2.7303,-2.6794,-2.637,-2.6693,-2.6557,-2.6064,-2.5777,-2.5723,-2.6053,-2.6333,-2.6607,-2.7008,-2.7313,-2.7389,-2.7359,-2.6737,-2.6987,-2.7562,0.0,0.0,0.0,0.0,0.0,0.0,0.0,0.0,0.0,0.0,0.0,0.0,0.0,0.0,0.0,0.0,0.0,0.0,-5.2066,-5.2724,-5.2998,-5.2829,-5.3645,-5.4842,-5.6442,-5.7281,-5.8539,-6.0294,-6.0981,-5.9975,-5.743,-5.539,-5.4158,-5.3571,-5.0782,-4.9756,-4.9981,-4.8387,-4.6794,-4.5381,-4.6178,-4.4975,-4.2835,0.0,0.0,0.0,0.0,0.0,0.0,0.0,-3.9696,-3.9342,-3.9288,-3.9288,-3.9016,-3.7633,-3.7648,-3.7604,-3.5431,-3.5178,-3.537,-3.4601,-3.4311,-3.4454,-3.5276,-3.5235,-3.5295,-3.6218,-3.4385,-3.2913,-3.3978,-3.2913,-3.1922,-3.2273,-3.4316,-3.5423,-3.4289,-3.417,-3.3932,-3.3694,-3.216,-3.1351,-3.1998,-3.1025,-3.0566,-3.1018,-3.1169,-3.1062,-3.0665,-3.0643,-3.0209,-2.935,-2.9882,-2.9663,-2.8702,-2.9277,-2.9014,-2.796,-2.8326,-2.8234,-2.78,-2.78,-2.78,-2.78,-2.7345,-2.7437,-2.7925,-2.8369,-2.8814,-2.9228,-2.9228,-2.8858,-2.8404,-2.7971,-2.8193,-2.8504,0.0,0.0,0.0,0.0,0.0,0.0,0.0,0.0,0.0,0.0,0.0,0.0,0.0,0.0,0.0,0.0,0.0,0.0,-5.2972,-5.2492,-5.2368,-5.2791,-5.3595,-5.3989,-5.3849,-5.5722,-5.7832,-6.0076,-5.9741,-5.8539,-5.6543,-5.5958,-5.4797,-5.3259,-5.268,-5.1448,-4.9574,-4.826,-4.7042,-4.5983,-4.5658,-4.4957,-4.4145,0.0,0.0,0.0,0.0,0.0,0.0,0.0,0.0,0.0,-3.9415,-3.9566,-3.9666,-3.8635,-3.8092,-3.7578,-3.6268,-3.537,-3.4891,-3.5644,-3.6091,-3.6625,-3.769,-3.6168,-3.502,-3.6622,-3.6043,-3.5268,-3.5381,-3.5469,-3.5074,-3.38,-3.4939,-3.6005,-3.6003,-3.5646,-3.52,-3.4749,-3.366,-3.2663,-3.2078,-3.1487,-3.1123,-3.1251,-3.1003,-3.0665,-3.0187,-3.0927,-3.0756,-2.9445,-3.1361,-3.1692,-3.0351,-3.0788,-3.0543,-2.9425,-2.9215,-2.8601,-2.7891,-2.8126,-2.8104,-2.7891,-2.7963,-2.7537,-2.6858,-2.7315,-2.795,-2.8773,-2.8652,-2.888,-2.9128,-2.8848,-2.9321,-3.017,0.0,0.0,0.0,0.0,0.0,0.0,0.0,0.0,0.0,0.0,-5.5489,-5.5762,0.0,0.0,0.0,-5.5217,-5.3526,0.0,-5.284,-5.2239,-5.1987,-5.2234,-5.2717,-5.3034,-5.3122,-5.5189,-5.6801,-5.7939,-5.7856,-5.7066,-5.5678,-5.5678,-5.5265,-5.4521,-5.428,-5.2971,-5.0802,-4.892,-4.7391,-4.6302,-4.608,-4.5522,-4.4814,0.0,0.0,0.0,0.0,0.0,0.0,0.0,0.0,0.0,-4.0132,-3.9967,-3.9773,-3.8668,-3.8284,-3.793,-3.7112,-3.6497,-3.6289,-3.7037,-3.786,-3.8672,-3.9442,-3.7962,-3.6793,-3.7934,-3.7387,-3.6814,-3.6998,-3.7118,-3.6691,-3.5247,-3.5993,-3.6595,-3.6071,-3.558,-3.5199,-3.4674,-3.3563,-3.2627,-3.2104,-3.1516,-3.1197,-3.1396,-3.1166,-3.1027,-3.1031,-3.1621,-3.1669,-3.1084,-3.2534,-3.2742,-3.1644,-3.1669,-3.124,-3.0398,-2.9869,-2.9329,-2.8763,-2.8562,-2.8358,-2.8218,-2.8858,-2.8835,-2.8276,-2.8762,-2.9298,-2.9667,-2.9473,-2.9576,-2.9813,-2.9916,-3.0428,-3.1261,0.0,0.0,-5.4281,-5.5061,0.0,0.0,0.0,0.0,0.0,-5.5295,-5.5957,-5.6182,0.0,0.0,0.0,-5.5277,-5.368,-5.258,-5.2266,-5.2155,-5.1953,-5.1548,-5.1573,-5.2384,-5.3974,-5.5367,-5.5678,-5.492,-5.5678,-5.564,-5.4806,-5.4958,-5.5643,-5.6699,-5.5473,-5.4269,-5.2936,-4.9937,-4.7716,-4.6332,-4.6924,-4.6262,-4.5022,-4.6534,0.0,0.0,0.0,0.0,0.0,0.0,0.0,0.0,-4.1239,-4.0508,-3.9595,-3.8216,-3.833,-3.8721,-3.7982,-3.8225,-3.8777,-3.8705,-3.9679,-4.0761,-4.1085,-4.0559,-3.9939,-3.9728,-3.8591,-3.7811,-3.8768,-3.8115,-3.7244,-3.6666,-3.7204,-3.7154,-3.5144,-3.4728,-3.4498,-3.3935,-3.2673,-3.1923,-3.2129,-3.1399,-3.1159,-3.1619,-3.1817,-3.2131,-3.2485,-3.2647,-3.2889,-3.3281,-3.3446,-3.3271,-3.2689,-3.2131,-3.1549,-3.0967,-3.0434,-3.0191,-3.0143,-2.9133,-2.8643,-2.8739,-2.9809,-3.0477,-3.0937,-3.1507,-3.1553,-3.1228,-3.0905,-3.0537,-3.0216,-3.0744,-3.1272,-3.18,0.0,0.0,-5.4983,-5.5178,0.0,0.0,0.0,0.0,-5.5411,-5.5217,-5.5882,-5.6251,-5.6096,-5.543,0.0,-5.594,-5.4436,-5.3663,-5.4094,-5.3338,-5.2759,-5.2585,-5.3034,-5.405,-5.5632,-5.5337,-5.511,-5.492,-5.511,-5.4769,-5.401,-5.5299,-5.6405,-5.7181,-5.5908,-5.4689,-5.323,-4.9735,-4.7379,-4.6083,-4.6219,-4.5988,-4.5614,-4.5971,-4.5856,0.0,0.0,0.0,0.0,0.0,0.0,0.0,-4.1393,-4.0721,-4.0026,-3.9135,-3.9083,-3.9307,-3.9101,-3.923,-3.9566,-4.047,-4.1918,-4.3282,-4.3489,-4.3445,-4.2575,-4.0114,-4.0011,-4.0179,-3.9676,-3.932,-3.8943,-3.8415,-3.809,-3.7766,-3.7318,-3.6554,-3.577,-3.526,-3.4195,-3.3167,-3.244,-3.2495,-3.2611,-3.2621,-3.3351,-3.3445,-3.2909,-3.3944,-3.4248,-3.3692,-3.4806,-3.4904,-3.3794,-3.329,-3.2495,-3.1496,-3.101,-3.0727,-3.0676,-3.0089,-2.9749,-2.9725,-2.8974,-2.9439,-3.0565,-2.9691,-2.9793,-3.029,-2.9718,-2.9653,-2.9954,-3.0283,-3.0973,-3.1777,0.0,0.0,0.0,0.0,0.0,0.0,0.0,0.0,-5.5686,-5.5686,-5.6014,-5.6263,-5.6263,-5.585,0.0,0.0,-5.4957,-5.4274,-5.4476,-5.3146,-5.228,-5.2069,-5.3546,-5.4343,-5.4389,-5.4352,-5.4124,-5.3707,-5.3328,-5.3518,-5.4276,-5.5185,-5.6019,-5.6784,-5.5688,-5.4354,-5.2827,-4.9606,-4.7601,-4.6569,-4.6525,-4.6436,-4.6427,-4.6783,-4.6712,-4.6284,-4.5463,0.0,0.0,0.0,0.0,0.0,0.0,0.0,-4.0707,-3.9475,-3.9194,-3.9308,-3.9437,-3.9725,-4.0514,-4.2778,-4.3711,-4.4229,-4.4647,-4.4435,-4.346,-4.1032,-4.1287,-4.1538,-4.0308,-3.985,-3.9267,-3.8239,-3.7724,-3.745,-3.745,-3.7077,-3.6586,-3.6122,-3.5314,-3.455,-3.3756,-3.3428,-3.3155,-3.3155,-3.3571,-3.3654,-3.3181,-3.4399,-3.4865,-3.4372,-3.515,-3.5193,-3.4595,-3.3819,-3.33,-3.296,-3.2385,-3.2123,-3.2097,-3.0976,-3.0478,-3.0453,-3.0074,-3.0343,-3.1034,-3.0466,-3.0581,-3.0989,-3.0528,-3.0604,-3.0879,-3.0992,-3.134,-3.1879,0.0,0.0,0.0,0.0,0.0,0.0,0.0,0.0,0.0,-5.5981,-5.6084,-5.6201,-5.6201,-5.6071,-5.6019,0.0,0.0,0.0,-5.4511,-5.2855,-5.1967,-5.204,-5.3745,-5.4124,-5.2873,-5.3404,-5.329,-5.2419,-5.1736,-5.2684,-5.511,-5.4844,-5.5269,-5.6299,-5.5098,-5.3831,-5.2342,-4.9574,-4.7886,-4.7133,-4.7043,-4.6998,-4.7069,-4.7711,-4.7568,-4.689,-4.6248,-4.6427,-4.6845,-4.5893,0.0,0.0,0.0,0.0,-4.1358,-3.9854,-3.9214,-3.9095,-3.9512,-4.0221,-4.1564,-4.4788,-4.4972,-4.4569,-4.5177,-4.46,-4.3631,-4.2021,-4.2389,-4.2412,-4.0658,-4.0123,-3.9364,-3.768,-3.7272,-3.7075,-3.6891,-3.7144,-3.7034,-3.6522,-3.6133,-3.5641,-3.495,-3.4202,-3.3723,-3.3618,-3.37,-3.3674,-3.3564,-3.4647,-3.52,-3.5136,-3.5305,-3.5363,-3.5257,-3.4362,-3.4126,-3.4415,-3.402,-3.3781,-3.3728,-3.219,-3.1352,-3.1052,-3.1444,-3.1524,-3.155,-3.1785,-3.1887,-3.1887,-3.1778,-3.1838,-3.2006,-3.1871,-3.2043,-3.2194,0.0,0.0,0.0,0.0,0.0,0.0,0.0,0.0,0.0,0.0,-5.5733,-5.6117,-5.6117,-5.5436,-5.5221,-5.5808,-5.5017,-5.4744,-5.5301,0.0,0.0,-5.5451,-5.4465,-5.4086,-5.4579,-5.401,-5.329,-5.2419,-5.2305,-5.3556,-5.5981,-5.4541,-5.4981,-5.6894,-5.4608,-5.3417,-5.288,-4.9625,-4.7783,-4.7043,-4.6998,-4.6998,-4.6998,-4.7105,-4.7069,-4.6962,-4.6855,-4.689,-4.6916,-4.6305,-4.5703,0.0,0.0,0.0,-4.1427,-4.1172,-4.0093,-3.9117,-3.9818,-4.1074,-4.2794,-4.5025,-4.5428,-4.5257,-4.5229,-4.4631,-4.3885,-4.2992,-4.3073,-4.2611,-4.0356,-4.083,-4.0776,-3.8381,-3.8416,-3.8458,-3.7349,-3.7219,-3.7034,-3.6246,-3.6396,-3.6093,-3.4812,-3.5062,-3.5143,-3.4524,-3.4761,-3.4858,-3.4549,-3.5393,-3.5829,-3.5602,-3.6353,-3.6526,-3.5997,-3.583,-3.5523,-3.5077,-3.4994,-3.4966,-3.4938,-3.4158,-3.3036,-3.1677,-3.1182,-3.0999,-3.0999,-3.1078,-3.1029,-3.1081,-3.1448,-3.1598,-3.1675,-3.2064,-3.2513,-3.291,0.0,0.0,0.0,0.0,0.0,0.0,0.0,0.0,0.0,0.0,0.0,-5.6024,-5.6024,-5.5611,-5.548,-5.5768,-5.4809,-5.3872,-5.3136,-5.3069,-5.3366,-5.4048,-5.3821,-5.3631,-5.3518,-5.3139,-5.257,-5.1736,-5.1613,-5.3067,-5.5977,-5.5163,-5.5885,-5.7657,-5.434,-5.2717,-5.2279,-4.9127,-4.75,-4.6998,-4.6998,-4.6998,-4.6998,-4.6998,-4.6998,-4.6998,-4.6824,-4.6778,-4.6684,-4.6154,-4.576,-4.5361,-4.4542,0.0,0.0,0.0,-4.0611,-3.9859,-4.0502,-4.1493,-4.2848,-4.5122,-4.5317,-4.4943,-4.4922,-4.4312,-4.3455,-4.2346,-4.2743,-4.2636,-4.026,-3.9968,-3.966,-3.7903,-3.7727,-3.7924,-3.809,-3.7917,-3.7845,-3.785,-3.7247,-3.6754,-3.6294,-3.5537,-3.5121,-3.546,-3.561,-3.543,-3.5038,-3.6316,-3.6759,-3.5981,-3.6626,-3.6866,-3.6585,-3.6585,-3.6445,-3.6192,-3.6192,-3.5995,-3.5705,-3.504,-3.4168,-3.3118,-3.2518,-3.2245,-3.2245,-3.2245,-3.2245,-3.2273,-3.2472,-3.2751,-3.3223,-3.2961,-3.339,-3.3922,0.0,0.0,0.0,0.0,0.0,0.0,0.0,0.0,0.0,0.0,0.0,-5.6012,-5.6012,0.0,0.0,0.0,-5.4633,-5.3251,-5.1585,-5.1888,-5.2191,-5.2381,-5.3025,-5.2987,-5.2115,-5.2305,-5.186,-5.0809,-5.0694,-5.2491,-5.6045,-5.5688,-5.6926,-5.9325,-5.5174,-5.2961,-5.2223,-4.93,-4.7994,-4.7818,-4.7247,-4.6998,-4.6998,-4.6998,-4.6998,-4.6998,-4.6778,-4.6637,-4.6542,-4.602,-4.5854,-4.5613,-4.463,-4.3819,0.0,0.0,0.0,-4.0409,-4.0857,-4.1659,-4.2828,-4.4658,-4.5101,-4.4973,-4.4763,-4.4163,-4.3376,-4.2171,-4.2437,-4.2334,-4.0699,-4.0158,-3.9524,-3.8034,-3.7746,-3.7997,-3.8682,-3.864,-3.8618,-3.8969,-3.8339,-3.7944,-3.8015,-3.6518,-3.5898,-3.6642,-3.6389,-3.6101,-3.5866,-3.7123,-3.7486,-3.6532,-3.6959,-3.7101,-3.6959,-3.6959,-3.7044,-3.7187,-3.6892,-3.6589,-3.6278,-3.5339,-3.4674,-3.4125,-3.3578,-3.3326,-3.3326,-3.3326,-3.3326,-3.3354,-3.3494,-3.3907,-3.4479,-3.3968,-3.4231,-3.4815,0.0,0.0,0.0,0.0,0.0,0.0,0.0,0.0,0.0,0.0,0.0,-5.6012,-5.6012,-5.5995,-5.5847,-5.5531,-5.4718,-5.367,-5.2409,-5.1661,-5.1623,-5.2381,-5.2456,0.0,-5.1282,-5.2002,-5.1537,-4.9797,-4.9768,-5.2165,-5.6737,-5.5771,-5.7864,-6.2276,-5.7806,-5.5049,-5.3599,-5.0841,-4.9934,-5.0138,-4.789,-4.6998,-4.6998,-4.6998,-4.6998,-4.6998,-4.6998,-4.6824,-4.6542,-4.6266,-4.597,-4.5613,-4.463,-4.3819,-4.3009,0.0,0.0,0.0,-4.0635,-4.1799,-4.2932,-4.3323,-4.4943,-4.6093,-4.4865,-4.4622,-4.4378,-4.3592,-4.2458,-4.174,-4.2314,-4.2727,-4.2139,-3.9538,-3.9576,-3.9749,-3.9228,-3.9209,-3.9038,-3.84,-3.9469,-3.9968,-3.9108,-3.8728,-3.8457,-3.8322,-3.7386,-3.7087,-3.7605,-3.7794,-3.7752,-3.768,-3.7709,-3.7416,-3.6699,-3.6699,-3.7093,-3.7709,-3.6592,-3.6403,-3.6921,-3.5107,-3.4209,-3.4125,-3.3578,-3.3326,-3.3326,-3.3326,-3.3326,-3.3382,-3.3972,-3.4297,-3.4479,-3.4479,-3.4913,-3.5548,0.0,0.0,0.0,0.0,0.0,0.0,0.0,0.0,0.0,0.0,0.0,0.0,0.0,-5.5808,-5.5391,-5.4741,-5.32,-5.1825,-5.0854,-5.0523,-5.0751,-5.1585,-5.2115,-5.2267,-5.2002,-5.2798,-5.2332,-5.0447,-5.0922,-5.2494,-5.506,-5.51,-5.6625,-5.9268,-5.7138,-5.5692,-5.4565,-5.0969,-4.9261,-4.8889,-4.7533,-4.6998,-4.6998,-4.6998,-4.6998,-4.6998,-4.6778,-4.659,-4.6301,-4.602,-4.5752,-4.5459,-4.5079,-4.4147,-4.2955,-4.1664,-4.1326,-4.1336,-4.112,-4.1861,-4.2699,-4.2932,-4.4037,-4.4847,-4.3944,-4.4655,-4.5026,-4.3858,-4.3285,-4.2865,-4.2611,-4.2345,-4.1815,-4.0867,-4.0855,-4.0945,-4.0661,-4.0243,-4.0091,-4.0233,-4.0039,-3.9764,-3.9455,-3.8632,-3.8262,-3.8602,-3.8322,-3.8162,-3.8457,-3.8359,-3.815,-3.7824,-3.7311,-3.6987,-3.6722,-3.6722,-3.684,-3.7105,-3.6658,-3.6383,-3.6178,-3.5503,-3.5027,-3.4621,-3.439,-3.4123,-3.3916,-3.3916,-3.414,-3.4506,-3.4731,-3.5134,-3.5515,-3.5515,-3.5969,-3.648,0.0,0.0,0.0,0.0,0.0,0.0,0.0,0.0,0.0,0.0,0.0,0.0,0.0,0.0,-5.5186,-5.4188,-5.2563,-5.1244,-5.0372,-5.0334,-5.0599,-5.1168,-5.2267,-5.2722,-5.2419,-5.2929,-5.2537,-5.1224,-5.1067,-5.1993,-5.4019,-5.439,-5.5652,-5.7472,-5.6357,-5.5766,-5.5405,-5.2061,-5.0317,-4.9603,-4.8032,-4.7533,-4.7818,-4.8354,-4.8247,-4.7818,-4.7879,-4.7342,-4.6555,-4.6075,-4.5701,-4.5389,-4.5113,-4.4009,-4.2526,-4.125,-4.1388,-4.1891,-4.1321,-4.1954,-4.2807,-4.3036,-4.3514,-4.4019,-4.4042,-4.4687,-4.5147,-4.4496,-4.4237,-4.4009,-4.3706,-4.3074,-4.2278,-4.1225,-4.1093,-4.1093,-4.1054,-4.0862,-4.0851,-4.1031,-4.0676,-4.0333,-4.0251,-3.9493,-3.9191,-3.9688,-3.9564,-3.9464,-3.9421,-3.9315,-3.8862,-3.8063,-3.7127,-3.6649,-3.6649,-3.6649,-3.6738,-3.6977,-3.6535,-3.6259,-3.6119,-3.568,-3.5288,-3.4876,-3.4876,-3.4855,-3.4768,-3.4555,-3.4852,-3.5419,-3.53,-3.5592,-3.6051,-3.5826,-3.6276,-3.695,0.0,0.0,0.0,0.0,0.0,0.0,0.0,0.0,0.0,-5.6051,0.0,0.0,0.0,0.0,0.0,-5.4027,-5.3014,-5.2115,-5.1282,-5.1244,-5.1244,-5.1244,-5.2836,-5.329,-5.2456,-5.2311,-5.2159,-5.1931,-5.0156,-5.0775,-5.372,-5.372,-5.502,-5.7286,-5.5689,-5.5391,-5.6041,-5.4157,-5.3194,-5.2564,-4.9424,-4.8639,-4.9531,-5.103,-5.0673,-4.9424,-5.0174,-4.9153,-4.7292,-4.652,-4.5924,-4.5354,-4.4561,-4.3251,-4.1871,-4.1147,-4.1423,-4.1836,0.0,0.0,0.0,-4.3488,-4.3498,-4.3765,-4.5052,-4.4805,-4.4584,-4.5568,-4.5208,-4.4949,-4.5662,-4.5208,-4.3776,-4.0839,-4.0347,-4.0347,-4.0347,-4.1028,-4.1304,-4.0672,-4.1501,-4.1981,-4.1743,-4.1694,-4.162,-4.162,-4.1288,-4.095,-4.0539,-4.0478,-3.9862,-3.8508,-3.7184,-3.6507,-3.6507,-3.6507,-3.6815,-3.7461,-3.6246,-3.6084,-3.6622,-3.5502,-3.4942,-3.4942,-3.4971,-3.5355,-3.5946,-3.5328,-3.5495,-3.6029,-3.5475,-3.5648,-3.6099,-3.5508,-3.6043,-3.6972,0.0,0.0,0.0,0.0,0.0,0.0,-5.9455,-5.8604,-5.7637,0.0,0.0,0.0,-5.5961,-5.5531,-5.5186,-5.4658,-5.385,-5.2987,-5.2115,-5.2077,-5.2077,-5.2077,-5.3139,-5.3594,-5.3366,-5.3747,-5.3553,-5.2757,-5.154,-5.1332,-5.2048,-5.1416,-5.201,-5.3592,-5.3702,-5.3292,-5.2408,-5.0991,-5.104,-5.1815,-4.921,-4.8996,-5.0174,-5.0031,-4.971,-4.9353,-4.9567,-4.9011,-4.817,-4.7959,-4.7526,-4.6837,-4.5527,-4.4078,-4.2699,-4.1905,-4.1836,-4.194,-4.1733,0.0,0.0,0.0,0.0,0.0,-4.2496,-4.327,-4.4125,-4.4617,-4.4194,-4.4134,-4.5534,-4.4399,-4.2976,-4.2077,-4.2428,-4.2588,-4.2012,-4.2142,-4.2398,-4.2752,-4.2622,-4.2751,-4.3491,-4.3069,-4.268,-4.2414,-4.2009,-4.1585,-4.095,-3.972,-3.8446,-3.7092,-3.6692,-3.6507,-3.6507,-3.6507,-3.6569,-3.6753,-3.6444,-3.6381,-3.6565,-3.6224,-3.61,-3.61,-3.6587,-3.7197,-3.774,-3.6665,-3.6992,-3.8018,-3.7872,-3.7915,-3.7986,-3.7365,-3.7659,-3.8306,0.0,0.0,-6.0538,-6.1041,0.0,-5.9687,-5.988,-5.9455,-5.8836,0.0,0.0,0.0,-5.6744,-5.6916,-5.6814,-5.5981,-5.4882,-5.401,-5.348,-5.3139,-5.2949,-5.2949,-5.3745,-5.4389,-5.4731,-5.4252,-5.4021,-5.4146,-5.237,-5.1636,-5.1899,-5.1379,-5.1566,-5.234,-5.2333,-5.193,-5.1157,-4.9277,-4.937,-5.0602,-4.9567,-4.971,-5.0566,-5.1101,-5.0887,-5.0352,-5.0673,-5.0429,-4.982,-4.8975,-4.8557,-4.7969,-4.5683,-4.4803,-4.4251,-4.2492,-4.2457,-4.2802,-4.2147,-4.2216,-4.2561,-4.2871,0.0,0.0,-4.2566,-4.2774,-4.3183,-4.4351,-4.4092,-4.3998,-4.5271,-4.4327,-4.3415,-4.3633,-4.3681,-4.3362,-4.2326,-4.2456,-4.2909,-4.3622,-4.333,-4.346,-4.4393,-4.4136,-4.3746,-4.3413,-4.2857,-4.2113,-4.1185,-3.9446,-3.8138,-3.7369,-3.6784,-3.6507,-3.6507,-3.6507,-3.6507,-3.6507,-3.6507,-3.6507,-3.6507,-3.6784,-3.6907,-3.6938,-3.7615,-3.8323,-3.8872,-3.8205,-3.8422,-3.9162,-3.8943,-3.8797,-3.8797,-3.8427,-3.8501,-3.8885,0.0,0.0,-6.1118,-6.1234,-6.1311,-6.1195,-6.0576,-6.0383,-6.0074,0.0,-5.903,-5.8688,-5.8415,-5.9399,-5.9393,-5.7801,-5.6133,-5.5148,-5.5034,-5.4276,-5.3821,-5.3821,-5.4617,-5.5375,-5.5989,-5.435,-5.4146,-5.5425,-5.29,-5.1974,-5.2605,-5.2456,-5.2345,-5.2159,-5.115,-5.0831,-5.0933,-4.8591,-4.8129,-4.9139,-5.0031,-5.053,-5.0994,-5.2993,-5.2886,-5.1779,-5.2493,-5.2431,-5.163,-4.9764,-4.9223,-4.8742,-4.5632,-4.5492,-4.5906,-4.3078,-4.3147,-4.3871,-4.2595,-4.2768,-4.3473,-4.4009,-4.2768,0.0,-4.3849,-4.2925,-4.2223,-4.438,-4.4265,-4.4064,-4.4808,-4.4643,-4.4522,-4.4875,-4.441,-4.3553,-4.2284,-4.258,-4.3199,-4.4041,-4.4073,-4.4334,-4.5147,-4.5147,-4.495,-4.4685,-4.3878,-4.2682,-4.1194,-3.9517,-3.8608,-3.845,-3.7153,-3.6507,-3.6507,-3.6507,-3.6507,-3.6507,-3.6507,-3.6538,-3.663,-3.7215,-3.7554,-3.7646,-3.8262,-3.8877,-3.9524,-3.9524,-3.965,-3.9768,-3.9235,-3.9017,-3.9017,-3.9032,-3.9032,-3.9224,-6.1381,-6.1242,-6.1311,-6.2008,-6.2743,-6.3362,-6.3903,-6.34,-6.3129,-6.3671,-6.2775,-6.2257,-6.2696,-6.1641,-6.0454,-5.9506,-5.7876,-5.6626,-5.5981,-5.5148,-5.4655,-5.4655,-5.5489,-5.5617,-5.4925,-5.5676,-5.5503,-5.4387,-5.3684,-5.3088,-5.2605,-5.1599,-5.0701,-4.9838,-4.9362,-4.8692,-4.7904,-4.7992,-4.7839,-4.7568,-4.8996,-5.0709,-5.2386,-5.2208,-5.1958,-5.1708,-5.1886,-5.1718,-5.1282,-5.0449,-4.9776,-4.902,-4.7533,-4.6389,-4.5423,-4.4182,-4.363,-4.3508,-4.3733,-4.394,-4.3991,-4.3542,-4.3975,0.0,-4.2083,-4.2737,-4.3546,-4.3037,-4.2881,-4.3078,-4.3972,-4.409,-4.3889,-4.3347,-4.4597,-4.5602,-4.5396,-4.5094,-4.5395,-4.6533,-4.6162,-4.6296,-4.7531,-4.7228,-4.6895,-4.6832,-4.5227,-4.3415,-4.134,-4.0133,-3.9062,-3.8153,-3.7033,-3.6507,-3.6507,-3.6507,-3.6507,-3.6507,-3.6507,-3.6784,-3.7307,-3.743,-3.78,-3.8323,-3.8446,-3.8877,-3.9524,-3.9524,-3.9856,-4.0331,-4.0231,-4.0161,-4.0152,-4.0269,-4.0625,-4.1199,-6.1298,-6.1186,-6.1505,-6.282,0.0,-6.4638,-6.545,-6.5605,-6.568,-6.6019,-6.5997,-6.539,-6.3954,-6.3327,-6.2159,-6.0075,-5.8748,-5.7687,-5.6853,-5.6019,-5.5337,-5.492,-5.5337,-5.5624,-5.5842,-5.5714,-5.5505,-5.536,-5.4317,-5.3608,-5.32,-5.2602,-5.1819,-5.0851,-5.0126,-4.9138,-4.807,-4.7931,-4.7751,-4.7711,-4.9281,-5.0388,-5.1137,-5.153,-5.1708,-5.1708,-5.1708,-5.1556,-5.1246,-5.062,-5.0676,-5.0619,-4.8432,-4.7976,-4.7872,-4.601,-4.5182,-4.4803,-4.4389,-4.4285,-4.4285,-4.4285,-4.4285,0.0,0.0,-4.3147,-4.3304,-4.3802,-4.2997,-4.2603,-4.3892,-4.3673,-4.3428,-4.3986,-4.4663,-4.5522,-4.6826,-4.6361,-4.6262,-4.7278,-4.7105,-4.7245,-4.8316,-4.8082,-4.7579,-4.6843,-4.5402,-4.3779,-4.1945,-4.0832,-3.979,-3.891,-3.7971,-3.7326,-3.7027,-3.6997,-3.6785,-3.6507,-3.6507,-3.6846,-3.7523,-3.7861,-3.8385,-3.9,-3.9,-3.94,-3.9985,-3.9647,-3.9924,-4.0539,-4.0539,-4.0539,-4.0532,-4.0954,-4.1372,-4.173,-6.1236,-6.1152,-6.1582,-6.3168,0.0,0.0,-6.6069,-6.6804,-6.7183,-6.7039,-6.8318,-6.8045,-6.4924,-6.4888,-6.4168,-6.178,-5.9809,-5.8672,-5.8597,-5.7081,-5.5906,-5.5185,-5.5148,-5.5586,-5.6597,-5.545,-5.5278,-5.6145,-5.4577,-5.3794,-5.3794,-5.3569,-5.3124,-5.2418,-5.1298,-5.0285,-4.9341,-4.8104,-4.7991,-4.8729,-4.9984,-5.0032,-4.9495,-5.0923,-5.1458,-5.1494,-5.1637,-5.1556,-5.1263,-5.0675,-5.129,-5.1824,-4.8847,-4.9286,-5.0355,-4.7631,-4.6906,-4.6734,-4.532,-4.5147,-4.5389,-4.5423,-4.4941,-4.4561,0.0,0.0,0.0,-4.4699,-4.363,-4.2699,-4.3664,-4.3203,-4.3048,-4.4337,-4.4368,-4.4891,-4.6797,-4.6635,-4.6608,-4.7383,-4.745,-4.7686,-4.8197,-4.8265,-4.776,-4.6548,-4.5537,-4.4356,-4.2907,-4.1848,-4.0861,-4.0057,-3.9168,-3.8408,-3.7764,-3.7621,-3.7298,-3.6662,-3.6662,-3.6971,-3.7523,-3.8077,-3.8754,-3.9493,-3.937,-3.977,-4.0478,-3.9801,-3.9924,-4.0539,-4.0539,-4.0601,-4.0816,-4.1524,-4.1863,-4.214,-6.1236,-6.1152,-6.1427,-6.2394,0.0,0.0,0.0,-6.6263,-6.6444,-6.6776,-6.8953,-6.9807,-6.8221,-6.6783,-6.6404,-6.7504,-6.2159,-5.9885,-6.2728,-5.871,-5.6171,-5.6057,-5.6057,-5.5693,-5.4899,-5.5977,-5.5805,-5.4352,-5.4019,-5.3794,-5.3794,-5.2742,-5.2217,-5.2109,-5.0977,-5.041,-5.0149,-4.8571,-4.8826,-5.0168,-5.035,-4.9992,-4.9424,-5.0316,-5.0637,-5.0744,-5.1422,-5.1708,-5.1571,-5.0999,-5.0889,-5.0745,-4.918,-4.9355,-4.9804,-4.8079,-4.8045,-4.839,-4.7562,-4.8321,-4.8734,-4.6079,-4.7355,-4.8217,-4.432,0.0,-4.5596,-4.3802,0.0,-4.3664,-4.2457,0.0,0.0,-4.1595,-4.3563,-4.5146,-4.4734,-4.5731,-4.6845,-4.7567,-4.767,-4.7705,-4.7773,-4.7773,-4.7705,-4.7533,-4.679,-4.5802,-4.4495,-4.3495,-4.239,-4.1243,-4.009,-3.9121,-3.839,-3.8278,-3.7911,-3.7298,-3.7298,-3.7372,-3.7492,-3.7584,-3.8323,-3.9493,-3.8877,-3.9339,-4.0478,-3.9801,-3.9924,-4.0539,-4.0539,-4.0909,-4.1555,-4.2232,-4.2848,-4.3464,-6.1236,-6.1152,-6.1543,-6.2897,0.0,0.0,0.0,-6.8536,-6.9502,-6.9059,-7.0247,-7.0819,-7.0119,-6.8148,-6.7314,-6.8489,-6.4737,-6.2463,-6.288,-6.0037,-5.8142,-5.7649,-5.6702,-5.6381,-5.6786,-5.5902,-5.5205,-5.4801,-5.4131,-5.3571,-5.3088,-5.2602,-5.2379,-5.2305,-5.0895,-5.0409,-5.0618,-4.9441,-4.8875,-4.8835,-4.9956,-4.9683,-4.89,-5.0737,-5.137,-5.1244,-5.1565,-5.1607,-5.1383,-5.0628,-5.0733,-5.1158,-5.0788,-5.0645,-5.0528,-5.0102,-4.9366,-4.8665,-4.7907,-4.8493,-4.8907,-4.7182,-4.7734,-4.8045,-4.5699,-4.5216,-4.5113,-4.4596,0.0,0.0,0.0,0.0,0.0,0.0,-4.3561,-4.4147,-4.4251,-4.4458,-4.5389,-4.7458,-4.732,-4.7251,-4.7665,-4.732,-4.7079,-4.7079,-4.6355,-4.5455,-4.4506,-4.4076,-4.3405,-4.2445,-4.135,-4.0408,-3.9785,-3.9171,-3.8367,-3.7417,-3.7417,-3.7433,-3.7492,-3.7492,-3.8015,-3.8908,-3.8631,-3.9062,-3.9924,-3.9647,-3.9924,-4.057,-4.097,-4.134,-4.174,-4.2786,-4.334,-4.3679,-6.1268,-6.1169,-6.1505,-6.2781,0.0,0.0,0.0,-6.8397,-6.9823,-6.9596,-6.9948,-7.0594,-7.1674,-6.9778,-6.9285,-7.1521,-6.8565,-6.6177,-6.5192,-6.2501,-6.034,-5.9089,-5.7422,-5.6873,-5.7691,-5.5751,-5.4793,-5.495,-5.3982,-5.3423,-5.3237,-5.2828,-5.2828,-5.32,-5.2011,-5.1677,-5.1966,-5.1191,-5.0328,-4.9628,-5.0607,-5.0387,-4.9611,-5.1131,-5.1705,-5.1708,-5.1708,-5.1571,-5.1296,-5.0677,-5.0893,-5.1514,-5.159,-5.1542,-5.1338,-5.1302,-5.0575,-4.9677,-4.8596,-4.9045,-4.9424,-4.8045,-4.7872,-4.77,-4.6562,-4.5734,-4.532,-4.5665,-4.5216,0.0,0.0,0.0,-4.4147,-4.4251,0.0,-4.3664,-4.4182,-4.3457,-4.3837,-4.6458,-4.6493,-4.6596,-4.7355,-4.6734,-4.6286,-4.6286,-4.5561,-4.4872,-4.432,-4.4285,-4.4044,-4.3542,-4.2705,-4.1887,-4.1032,-4.018,-3.9171,-3.7969,-3.7738,-3.761,-3.7467,-3.7278,-3.7584,-3.8262,-3.8446,-3.8877,-3.9524,-3.9708,-4.0078,-4.0632,-4.1524,-4.1863,-4.2017,-4.3156,-4.3679,-4.3925,-6.1381,-6.1242,-6.1118,-6.1157,-6.1892,-6.2743,-6.3671,-6.3903,-6.4707,-6.6671,-6.6931,-6.8623,-7.3039,-7.2014,-7.3303,-7.9026,-7.425,-7.1218,-7.2014,-6.667,-6.2387,-5.9961,-5.8256,-5.6942,-5.5993,-5.5714,-5.509,-5.4128,-5.3125,-5.3423,-5.4909,-5.3348,-5.3423,-5.4946,-5.4871,-5.4871,-5.4795,-5.3978,-5.409,-5.4647,-5.3125,-5.2548,-5.249,-5.1072,-5.103,-5.1708,-5.1708,-5.1672,-5.1622,-5.1367,-5.1298,-5.1281,-5.0927,-5.14,-5.1745,-5.0732,-5.1476,-5.216,-5.0379,-5.1011,-5.139,-4.8459,-4.8252,-4.8217,-4.5975,-4.6562,-4.7424,-4.67,-4.7665,-4.8217,-4.6803,-4.6527,-4.601,0.0,-4.4251,0.0,0.0,-4.2975,-4.263,-4.4182,-4.501,-4.5768,-4.6562,-4.5941,-4.5458,-4.5458,-4.4734,-4.4285,-4.4285,-4.4285,-4.4251,-4.4251,-4.4113,-4.3289,-4.1763,-4.1478,-4.0661,-3.9315,-3.8613,-3.7969,-3.7389,-3.6816,-3.6907,-3.7554,-3.8231,-3.8877,-3.9554,-4.0232,-4.0509,-4.0662,-4.2048,-4.2571,-4.2663,-4.331,-4.3987,-4.4541,-6.1394,-6.1252,-6.1152,-6.1137,-6.135,-6.224,-6.4251,-6.5025,-6.6758,-7.0695,-7.0744,-7.2379,-7.7494,-7.6541,-7.6959,-8.0396,-7.7358,-7.4667,-7.3303,-6.9778,-6.7125,-6.5722,-6.2993,-6.1262,-6.0785,-5.8986,-5.7265,-5.5697,-5.4689,-5.4463,0.0,-5.3348,-5.346,-5.4946,-5.3348,-5.32,-5.4166,-5.3348,-5.2715,-5.2262,-5.2026,-5.2914,-5.41,-5.2293,-5.1669,-5.1708,-5.1708,-5.1708,-5.1708,-5.1607,-5.1454,-5.1369,-5.197,-5.1759,-5.1259,-5.1395,-5.1682,-5.1709,-5.0932,-5.1839,-5.239,-4.9873,-4.9424,-4.901,-4.6734,-4.7355,-4.8114,-4.6872,-4.8217,-4.9148,-4.7631,-4.7355,-4.701,0.0,-4.5389,-4.4699,0.0,-4.3113,-4.3147,-4.4147,-4.4492,-4.4975,-4.5734,-4.5113,-4.4665,-4.4665,-4.3975,-4.3819,-4.4251,-4.4285,-4.4492,-4.501,-4.4457,-4.3838,-4.3323,-4.204,-4.0983,-4.0121,-3.9776,-3.9048,-3.8112,-3.8858,-3.8994,-3.8842,-3.9532,-3.9971,-4.0188,-4.0436,-4.0816,-4.134,-4.2263,-4.2879,-4.331,-4.3987,-4.4387,-4.4572,-6.1511,-6.1252,-6.1152,-6.1137,-6.1621,-6.2472,-6.3864,-6.6031,-6.8751,-7.2148,-7.2957,-7.5168,-8.0312,-7.959,-7.9743,-8.2352,-8.0781,-7.8154,-7.4705,-7.2999,-7.1066,-6.8716,-6.6253,-6.459,-6.3803,-6.1732,-5.944,-5.6967,-5.655,-5.6172,-5.5874,-5.424,-5.4166,-5.5391,-5.3831,-5.3571,-5.424,-5.4314,-5.3567,-5.2375,-5.2357,-5.3072,-5.3924,-5.2935,-5.2582,-5.2457,-5.2001,-5.1822,-5.1708,-5.1708,-5.1785,-5.2003,-5.2656,-5.2448,-5.2023,-5.2298,-5.2481,-5.2335,-5.1682,-5.2425,-5.2908,-5.0907,-5.039,-4.9873,-4.7838,-4.8562,-4.9286,-4.8079,-4.9183,-5.008,-4.9114,-4.8493,-4.7872,0.0,0.0,-4.4803,0.0,-4.3059,-4.3404,-4.3837,-4.4354,-4.4768,-4.501,-4.4561,-4.4044,-4.3492,-4.3009,-4.3128,-4.3837,-4.3871,-4.4354,-4.5389,-4.4836,-4.4457,-4.4182,-4.2963,-4.197,-4.1298,-4.0921,-4.0311,-3.9473,-4.0189,-4.0264,-3.9843,-4.0293,-4.0482,-4.0513,-4.0783,-4.1186,-4.1678,-4.2602,-4.3187,-4.3648,-4.4326,-4.4726,-4.4941,-6.173,-6.132,-6.1234,-6.1234,-6.2511,-6.3362,-6.2743,-6.6766,-7.022,-7.121,-7.3497,-7.691,-8.17,-8.1267,-8.1842,-8.5006,-8.429,-8.1647,-7.6752,-7.6335,-7.4136,-6.9323,-6.8186,-6.6862,-6.5011,-6.3765,-6.1466,-5.8127,-5.8486,-5.8289,-5.7509,-5.58,-5.5466,-5.6246,-5.6209,-5.5726,-5.5057,-5.6655,-5.6395,-5.4871,-5.4166,-5.323,-5.2361,-5.306,-5.3617,-5.3917,-5.2618,-5.1982,-5.1722,-5.1708,-5.2208,-5.2814,-5.2886,-5.3385,-5.3851,-5.3253,-5.3682,-5.4022,-5.2641,-5.2839,-5.308,-5.1597,-5.1183,-5.0769,-4.9286,-5.0114,-5.1011,-5.0218,-5.0666,-5.1183,-5.108,-4.9838,-4.8562,0.0,0.0,-4.463,-4.2457,-4.2768,-4.3301,-4.3335,-4.4527,-4.5079,-4.4354,-4.4251,-4.3595,-4.2112,-4.1974,-4.2319,-4.3197,-4.3266,-4.3906,-4.5389,-4.5423,-4.5079,-4.4354,-4.4216,-4.3649,-4.2774,-4.2017,-4.1633,-4.1409,-4.0925,-4.0691,-4.0664,-4.0641,-4.0641,-4.0704,-4.141,-4.1718,-4.1832,-4.3137,-4.3692,-4.3815,-4.4463,-4.5064,-4.5649,-6.1628,-6.2305,-6.3013,-6.3013,-6.2317,-6.2781,-6.576,-6.7307,-7.0032,-7.5282,-7.764,-8.042,-8.4658,-8.4863,-8.4854,-8.5238,-8.5037,-8.373,-8.0965,-7.9632,-7.804,-7.6107,-7.3454,-7.1443,-7.0183,-6.6663,-6.4016,-6.2425,-5.9305,-5.8029,-5.8364,-5.606,-5.5131,-5.5317,-5.4723,-5.4314,-5.4128,-5.4574,-5.45,-5.4128,-5.4537,-5.4711,-5.4601,-5.3931,-5.4148,-5.4629,-5.281,-5.2137,-5.203,-5.1772,-5.1815,-5.2101,-5.2707,-5.3028,-5.3226,-5.3422,-5.3852,-5.4128,-5.3565,-5.3783,-5.4011,-5.3046,-5.2356,-5.1701,-5.0735,-5.1701,-5.2425,-5.1114,-5.1873,-5.2287,-5.0597,-4.9493,-4.839,-4.7113,-4.5596,-4.4561,-4.4527,-4.4216,-4.4216,-4.4768,-4.4699,-4.4492,-4.4285,-4.3768,-4.3093,-4.2043,-4.1974,-4.2319,-4.3197,-4.3749,-4.4423,-4.5389,-4.5423,-4.532,-4.5147,-4.4457,-4.3923,-4.3594,-4.3294,-4.2769,-4.2204,-4.3113,-4.3231,-4.2762,-4.2747,-4.2816,-4.2848,-4.3079,-4.3145,-4.3168,-4.4059,-4.507,-4.5939,-4.5479,-4.5741,-4.6326,-6.2094,-6.3451,-6.4793,-6.4793,-6.5218,-6.6224,-6.8274,-6.8932,-7.0943,-7.5895,-7.868,-8.1066,-8.3326,-8.5167,-8.5983,-8.5513,-8.5355,-8.431,-8.1989,-8.1641,-8.0618,-7.8685,-7.6449,-7.4475,-7.28,-6.9121,-6.6056,-6.3563,-6.0662,-5.8855,-5.8141,0.0,-5.4834,-5.4463,-5.4017,-5.3794,-5.3831,-5.4203,-5.4537,-5.4909,-5.4983,-5.4939,0.0,-5.4459,-5.4411,-5.4406,-5.3105,-5.259,-5.2408,-5.203,-5.2135,-5.253,-5.2794,-5.31,-5.3476,-5.3937,-5.419,-5.4326,-5.4346,-5.4399,-5.4425,-5.3977,-5.3322,-5.2632,-5.2218,-5.2494,-5.2735,-5.2218,-5.2252,-5.2114,-5.1149,-4.9528,-4.7838,-4.632,-4.5079,-4.4423,-4.4872,-4.4561,-4.4423,-4.4872,-4.4837,-4.463,-4.432,-4.3285,-4.2319,-4.1561,-4.1802,-4.2319,-4.3197,-4.3922,-4.463,-4.5389,-4.5768,-4.5768,-4.5423,-4.5249,-4.4955,-4.4453,-4.4326,-4.3965,-4.3518,-4.4575,-4.4855,-4.4449,-4.4542,-4.4556,-4.4558,-4.4586,-4.4585,-4.4646,-4.5674,-4.6781,-4.77,-4.7573,-4.7801,-4.804,-6.309,-6.4886,-6.6456,-6.6224,-6.9125,-7.133,-7.0905,-7.1756,-7.3303,-7.5624,-7.8912,-8.1039,-8.1039,-8.4165,-8.612,-8.5772,-8.5513,-8.4275,-8.1805,-8.2785,-8.2134,-7.9215,-7.8002,-7.6373,-7.4174,-7.0982,-6.7422,-6.3498,-6.1949,-5.9875,0.0,0.0,0.0,-5.3794,-5.3683,-5.3645,-5.372,-5.4611,-5.5317,-5.58,-5.5354,-5.4686,-5.4054,-5.4871,-5.4686,-5.3941,-5.3629,-5.3225,-5.2806,-5.2408,-5.2737,-5.3207,-5.3161,-5.3544,-5.4153,-5.4737,-5.4741,-5.4595,-5.4999,-5.4869,-5.4557,-5.4419,-5.3873,-5.3391,-5.3287,-5.2804,-5.2528,-5.3115,-5.2183,-5.139,-5.1839,-4.9528,-4.7148,-4.5803,-4.501,-4.463,-4.4699,-4.463,-4.4596,-4.4596,-4.501,0.0,-4.4354,-4.3078,-4.1974,-4.125,-4.1871,-4.2595,-4.3335,-4.4009,-4.4768,-4.5561,-4.6251,-4.6389,-4.5872,-4.6458,-4.6404,-4.5623,-4.5412,-4.5213,-4.5082,-4.5591,-4.5838,-4.5814,-4.5924,-4.5943,-4.5947,-4.6061,-4.6155,-4.635,-4.7684,-4.8627,-4.9271,-5.0,-5.0366,-5.0318,-6.4721,-6.6651,-6.7887,-6.6456,-6.9628,-7.3032,-7.4966,-7.7171,-7.9067,-8.0227,-8.336,-8.5488,-8.5488,-8.6119,-8.6433,-8.6153,-8.5811,-8.5322,-8.4622,-8.3335,-8.2323,-8.1755,-7.895,-7.7207,-7.6752,-7.1363,-6.7726,-6.6131,-6.1649,-5.8458,0.0,0.0,0.0,0.0,0.0,-5.2828,-5.2902,-5.4388,-5.4314,-5.3423,-5.5317,-5.5577,-5.4871,-5.5763,-5.554,-5.4797,-5.4719,-5.4075,-5.3151,-5.2806,-5.2562,-5.2654,-5.3891,-5.4179,-5.426,-5.5686,-5.5893,-5.5645,-5.5694,-5.5354,-5.4757,-5.4096,-5.3644,-5.3218,-5.2563,-5.2839,-5.3046,-5.2528,-5.2218,-5.1701,-5.0597,-4.8424,-4.67,-4.6458,-4.6286,-4.6424,-4.7044,-4.6596,-4.6217,-4.6217,-4.5182,-4.4423,-4.4285,-4.4044,-4.3561,-4.2886,-4.3457,-4.394,-4.4078,-4.4803,-4.5596,-4.6389,-4.6527,-4.7113,-4.8217,-4.7769,-4.7657,-4.7992,-4.7204,-4.6726,-4.6612,-4.6607,-4.6616,-4.6591,-4.6595,-4.6643,-4.6676,-4.7275,-4.7869,-4.8563,-4.9389,-5.0182,-5.0913,-5.1596,-5.2337,-5.26,-6.7704,-6.8665,-6.9611,-7.0137,-7.2999,-7.6111,-7.8734,-8.163,-8.2857,-8.1078,-8.2277,-8.3283,-8.3283,-8.5256,-8.6489,-8.6215,-8.5632,-8.5193,-8.4901,-8.3561,-8.2332,-8.133,-7.9315,-7.7334,-7.5463,-7.1291,-6.7918,-6.5489,-6.1279,-5.8201,0.0,-5.4574,-5.3571,-5.3162,0.0,-5.2828,-5.3274,-5.4054,-5.4426,-5.4611,-5.5837,-5.606,-5.5726,-5.6134,-5.5503,-5.4426,-5.4871,-5.4383,-5.3595,-5.3671,-5.3566,-5.3571,-5.4589,-5.4363,-5.4065,-5.563,-5.5401,-5.4874,-5.5688,-5.559,-5.5189,-5.4745,-5.3843,-5.3013,-5.3013,-5.2615,-5.2218,-5.2218,-5.1908,-5.1183,-4.9666,-4.8493,-4.7631,-4.7251,-4.7182,-4.7395,-4.8066,-4.7439,-4.6952,-4.7039,-4.5993,-4.5145,-4.4924,-4.4872,-4.4389,-4.3301,-4.3922,-4.4285,-4.4285,-4.501,-4.5596,-4.5975,-4.6769,-4.7355,-4.7665,-4.8079,-4.823,-4.8139,-4.7592,-4.7307,-4.725,-4.7393,-4.7446,-4.7513,-4.7799,-4.8149,-4.855,-4.9287,-4.9789,-5.0191,-5.0961,-5.1497,-5.1832,-5.264,-5.2876,-5.2694,-7.0969,-7.1299,-7.2094,-7.4189,-7.6781,-7.9254,-8.1336,-8.4481,-8.541,-8.2006,-8.1581,-8.1581,-8.1581,-8.4598,-8.6412,-8.6045,-8.5329,-8.4741,-8.4349,-8.3438,-8.2181,-8.0468,-7.9399,-7.7417,-7.4372,-7.1484,-6.8186,-6.4445,-6.1281,-5.8278,-5.5544,-5.4428,-5.3312,-5.2345,-5.2717,-5.3014,-5.3311,-5.3645,-5.4463,-5.554,-5.5874,-5.6023,-5.606,-5.6246,-5.5466,-5.4426,-5.5057,-5.4871,-5.4424,-5.4962,-5.4833,-5.4601,-5.5111,-5.4755,-5.4399,-5.5799,-5.5359,-5.4724,-5.5936,-5.607,-5.5808,-5.5631,-5.4415,-5.3344,-5.3567,-5.266,-5.1767,-5.1987,-5.1605,-5.0771,-4.9437,-4.9159,-4.8985,-4.8394,-4.829,-4.8486,-4.9097,-4.8479,-4.795,-4.7809,-4.7068,-4.6295,-4.5632,-4.5581,-4.501,-4.3733,-4.4182,-4.4527,-4.4527,-4.5079,-4.5492,-4.5665,-4.701,-4.7596,-4.732,-4.8493,-4.8872,-4.8424,-4.8117,-4.7992,-4.7992,-4.8192,-4.8345,-4.8379,-4.8809,-4.9424,-5.0168,-5.1082,-5.1454,-5.1522,-5.2266,-5.257,-5.2638,-5.3281,-5.3144,-5.2553,-7.3742,-7.5066,-7.6146,-7.6303,-7.9093,-8.1375,-8.149,-8.4405,-8.6455,-8.6068,-8.5991,-8.5991,-8.5991,-8.6377,-8.63,-8.5461,-8.5072,-8.4566,-8.3734,-8.2655,-8.1601,-8.0685,-7.9148,-7.7735,-7.6624,-7.241,-6.8502,-6.4909,-6.2132,-5.8159,-5.3232,-5.3829,-5.3161,-5.1565,-5.3051,-5.294,-5.1714,-5.32,-5.346,-5.3088,-5.4537,-5.5131,-5.5206,-5.5986,-5.6209,-5.6097,-5.6134,-5.6134,-5.6172,-5.6948,-5.6002,-5.4644,-5.5411,-5.5843,-5.6296,-5.717,-5.734,-5.7255,-5.7401,-5.7202,-5.6783,-5.6024,-5.5548,-5.4825,-5.3432,-5.3488,-5.3421,-5.1948,-5.1627,-5.1307,-5.0418,-5.024,-5.0204,-5.0133,-5.0133,-5.0432,-5.118,-5.0624,-4.9839,-4.9126,-4.8378,-4.7441,-4.6239,-4.6154,-4.5885,-4.5216,-4.5285,-4.532,-4.532,-4.5389,-4.5768,-4.6458,-4.7286,-4.8355,-4.9666,-4.9838,-5.0183,-5.0769,-4.9904,-4.9502,-4.9502,-4.9214,-4.9127,-4.9067,-4.9012,-4.9424,-5.0202,-5.1623,-5.2198,-5.2266,-5.3078,-5.3382,-5.3416,-5.3484,-5.3416,-5.3348,-7.8753,-7.8069,-7.8166,-8.0825,-8.0993,-8.1678,-8.4297,-8.5772,-8.661,-8.661,-8.661,-8.6416,-8.5875,-8.5836,-8.5488,-8.4637,-8.4016,-8.3498,-8.315,-8.1716,-8.0444,-7.9485,-7.8292,-7.6694,-7.4657,-7.2416,-6.926,-6.5168,-6.2971,-5.99,-5.6158,-5.4897,-5.3564,-5.2268,-5.3312,-5.346,-5.2902,-5.4054,-5.4648,-5.4871,-5.554,-5.58,-5.5763,-5.5577,-5.554,-5.5577,-5.6097,-5.632,-5.6432,-5.7249,-5.6982,-5.6413,-5.7265,-5.7162,-5.6932,-5.7657,-5.7408,-5.6963,-5.7473,-5.7486,-5.7328,-5.7,-5.6296,-5.541,-5.4278,-5.408,-5.3821,-5.2609,-5.238,-5.2208,-5.1937,-5.1422,-5.1137,-5.1137,-5.1137,-5.1343,-5.2006,-5.0962,-5.0027,-4.9712,-4.856,-4.7483,-4.6695,-4.6649,-4.6411,-4.5905,-4.5546,-4.5423,-4.5423,-4.5423,-4.5803,-4.6596,-4.732,-4.8217,-4.9286,-4.9769,-5.0149,-5.0459,-5.0538,-5.0513,-5.0548,-5.0659,-5.0555,-5.0401,-5.0777,-5.115,-5.1488,-5.257,-5.301,-5.3044,-5.3382,-5.3518,-5.3518,-5.3518,-5.3518,-5.3518,-8.2543,-8.1208,-8.0936,-8.4514,-8.348,-8.3212,-8.6272,-8.6662,-8.6532,-8.6261,-8.6223,-8.5991,-8.5372,-8.5101,-8.4637,-8.3786,-8.2935,-8.2316,-8.2045,-8.0653,-7.9379,-7.8398,-7.751,-7.5964,-7.3716,-7.2352,-6.976,-6.5848,-6.3932,-6.1385,-5.816,-5.5913,-5.4371,-5.3568,-5.428,-5.4465,-5.4203,-5.502,-5.5763,-5.6283,-5.6023,-5.5912,-5.5837,-5.4983,-5.4946,-5.5466,-5.6097,-5.6617,-5.71,-5.7658,-5.7843,-5.7918,-5.8252,-5.7937,-5.7617,-5.8091,-5.7737,-5.718,-5.7767,-5.7914,-5.7914,-5.7914,-5.7298,-5.651,-5.566,-5.5291,-5.4846,-5.3953,-5.3484,-5.3279,-5.3279,-5.263,-5.2042,-5.2042,-5.2042,-5.2221,-5.2545,-5.1427,-5.0526,-5.0235,-4.8998,-4.7922,-4.7196,-4.7115,-4.689,-4.6459,-4.5955,-4.5581,-4.5423,-4.563,-4.6044,-4.6596,-4.7527,-4.8286,-4.8803,-4.9838,-5.0321,-5.0321,-5.108,-5.1425,-5.1459,-5.161,-5.1537,-5.1315,-5.1995,-5.23,-5.2367,-5.3179,-5.3518,-5.3518,-5.3518,-5.3518,-5.3518,-5.3518,-5.3518,-5.3518,-8.4154,-8.4646,-8.5097,-8.6612,-8.6826,-8.6743,-8.6623,-8.661,-8.63,-8.5449,-8.5333,-8.5294,-8.5294,-8.4598,-8.3747,-8.2896,-8.2006,-8.1155,-8.0304,-7.9453,-7.8602,-7.7751,-7.6862,-7.6011,-7.5098,-7.2404,-6.9759,-6.7162,-6.5244,-6.2054,-5.7786,-5.6481,-5.5664,-5.5323,-5.6183,-5.5957,-5.5057,-5.5912,-5.6283,-5.6209,-5.5354,-5.502,-5.4946,-5.4128,-5.4834,-5.6283,-5.632,-5.7323,-5.8661,-5.8698,-5.8698,-5.8549,-5.7769,-5.8066,-5.8698,-5.8698,-5.8698,-5.8698,-5.8656,-5.8698,-5.8698,-5.8698,-5.8656,-5.8433,-5.7497,-5.727,-5.7006,-5.5975,-5.5037,-5.4399,-5.4399,-5.3696,-5.3182,-5.3182,-5.3182,-5.3182,-5.3225,-5.2491,-5.1683,-5.0875,-5.0068,-4.9029,-4.7705,-4.7591,-4.7421,-4.6936,-4.6459,-4.5955,-4.5423,-4.6182,-4.6596,-4.6596,-4.8045,-4.8803,-4.8838,-5.0321,-5.1114,-5.1114,-5.1839,-5.2218,-5.2218,-5.185,-5.16,-5.1541,-5.2061,-5.23,-5.2367,-5.3179,-5.3518,-5.3518,-5.3518,-5.3518,-5.3518,-5.3518,-5.3518,-5.3518,-8.6365,-8.6438,-8.6479,-8.6888,-8.6885,-8.6576,-8.5823,-8.572,-8.541,-8.4598,-8.394,-8.3592,-8.3592,-8.336,-8.2625,-8.1155,-8.0769,-8.0266,-7.9453,-7.8602,-7.7713,-7.6862,-7.5972,-7.485,-7.3419,-7.2561,-7.0838,-6.8287,-6.6945,-6.4001,-5.9703,-5.9016,-5.8022,-5.6803,-5.7227,-5.693,-5.6145,-5.6846,-5.6803,-5.6283,-5.5986,-5.5874,-5.5874,-5.5614,-5.5837,-5.6357,-5.6915,-5.7472,-5.7992,-5.8512,-5.8698,-5.8661,-5.8401,-5.8512,-5.8698,-5.8698,-5.8698,-5.8698,-5.8698,-5.8698,-5.8698,-5.8698,-5.8698,-5.8512,-5.7617,-5.7307,-5.7211,-5.7413,-5.6691,-5.5868,-5.5317,-5.4546,-5.3849,-5.3298,-5.3225,-5.3225,-5.3225,-5.205,-5.1096,-5.0839,-4.9554,-4.8561,-4.8111,-4.8075,-4.7875,-4.7421,-4.6936,-4.6459,-4.6005,-4.636,-4.6837,-4.7355,-4.8321,-4.9079,-4.9631,-5.0631,-5.1114,-5.1149,-5.2425,-5.3225,-5.3582,-5.3455,-5.3263,-5.3003,-5.3175,-5.3211,-5.3145,-5.3382,-5.3518,-5.3518,-5.3518,-5.3518,-5.3518,-5.3518,-5.3518,-5.3518,-8.7416,-8.7294,-8.7065,-8.6611,-8.6454,-8.6045,-8.5036,-8.483,-8.4559,-8.3708,-8.3128,-8.2664,-8.2355,-8.2006,-8.1387,-8.0304,-7.9608,-7.9067,-7.8525,-7.7403,-7.663,-7.6397,-7.4966,-7.3806,-7.3109,-7.2452,-7.1175,-6.9241,-6.7625,-6.5041,-6.1656,-6.1414,-6.059,-5.9323,-5.9392,-5.8878,-5.7976,-5.7962,-5.7509,-5.6729,-5.6432,-5.6097,-5.58,-5.58,-5.6023,-5.6357,-5.6878,-5.7435,-5.8029,-5.8549,-5.8698,-5.8698,-5.8698,-5.8698,-5.8698,-5.8698,-5.8698,-5.8698,-5.8698,-5.8698,-5.8698,-5.8698,-5.8698,-5.8586,-5.8066,-5.7751,-5.7771,-5.8194,-5.7508,-5.661,-5.5757,-5.495,-5.4142,-5.3335,-5.3225,-5.3115,-5.2784,-5.161,-5.0802,-5.0802,-4.9627,-4.8893,-4.9224,-4.926,-4.8995,-4.8389,-4.7967,-4.75,-4.6883,-4.6987,-4.7355,-4.8114,-4.8872,-4.9631,-5.0424,-5.1149,-5.1666,-5.1977,-5.3218,-5.3983,-5.4303,-5.4239,-5.4045,-5.3783,-5.3717,-5.3584,-5.3518,-5.3518,-5.3518,-5.3518,-5.3518,-5.3518,-5.3518,-5.3518,-5.3518,-5.3518,-8.7219,-8.7338,-8.7028,-8.5831,-8.5687,-8.5305,-8.4209,-8.4018,-8.3708,-8.2819,-8.2664,-8.2316,-8.1504,-8.0575,-8.0034,-8.0034,-7.8602,-7.7674,-7.7597,-7.6049,-7.543,-7.6204,-7.3883,-7.2955,-7.369,-7.2142,-7.0827,-6.9899,-6.7539,-6.5427,-6.3615,-6.3476,-6.3092,-6.2541,-6.2197,-6.1392,-6.0182,-5.9123,-5.8145,-5.7249,-5.6506,-5.5763,-5.5094,-5.5169,-5.5689,-5.6395,-5.6469,-5.7435,-5.8735,-5.8772,-5.8846,-5.8884,-5.8884,-5.8846,-5.8772,-5.8735,-5.8698,-5.8698,-5.8698,-5.8698,-5.8698,-5.8698,-5.8698,-5.8698,-5.8698,-5.8614,-5.8486,-5.8437,-5.7715,-5.6772,-5.5802,-5.4987,-5.4216,-5.3335,-5.3225,-5.2931,-5.2197,-5.1389,-5.0875,-5.0875,-5.0178,-4.9958,-5.0729,-5.0802,-5.0472,-4.9738,-4.9414,-4.8972,-4.8247,-4.8033,-4.8183,-4.8872,-4.9735,-5.0493,-5.1183,-5.1942,-5.2701,-5.3494,-5.4184,-5.4494,-5.4494,-5.4303,-5.4209,-5.4083,-5.3851,-5.3753,-5.3585,-5.3585,-5.3585,-5.3585,-5.3518,-5.3551,-5.3585,-5.3518,-5.3518,-5.3518,-8.5546,-8.651,-8.6875,-8.5149,-8.5309,-8.5149,-8.3513,-8.3167,-8.278,-8.1929,-8.1233,-8.073,-8.0536,-7.9183,-7.8293,-7.8293,-7.7945,-7.7403,-7.6746,-7.5701,-7.4928,-7.4502,-7.3264,-7.2375,-7.191,-7.1523,-7.0556,-6.9087,-6.8468,-6.7286,-6.5505,-6.4084,-6.3638,-6.4014,-6.2386,-6.0995,-5.9767,-5.8685,-5.7192,-5.5577,-5.5391,-5.5577,-5.606,-5.6692,-5.7063,-5.7286,-5.7918,-5.8401,-5.8809,-5.9404,-6.0072,-6.063,-6.063,-6.0147,-5.9515,-5.8884,-5.8698,-5.8698,-5.8698,-5.8698,-5.8698,-5.8698,-5.8698,-5.8698,-5.8698,-5.8614,-5.8529,-5.8486,-5.8164,-5.7479,-5.6043,-5.5515,-5.484,-5.3445,-5.3225,-5.3151,-5.2931,-5.2234,-5.172,-5.172,-5.1022,-5.0582,-5.0765,-5.0802,-5.0729,-5.0545,-5.0083,-5.0028,-5.0416,-5.0236,-4.9945,-4.97,-5.1011,-5.177,-5.1942,-5.2735,-5.3494,-5.4253,-5.4425,-5.4494,-5.4494,-5.4431,-5.4647,-5.5066,-5.4869,-5.4668,-5.4534,-5.4398,-5.4329,-5.4262,-5.3721,-5.3856,-5.4262,-5.3721,-5.3518,-5.3585,-8.5416,-8.6176,-8.6362,-8.4909,-8.4661,-8.4156,-8.2646,-8.2006,-8.1504,-8.1001,-8.0498,-8.0072,-7.9685,-7.8486,-7.7713,-7.7713,-7.7326,-7.6746,-7.5856,-7.5005,-7.4347,-7.3922,-7.2684,-7.1949,-7.191,-7.1485,-7.0479,-6.8816,-6.8816,-6.7926,-6.6185,-6.4788,-6.4315,-6.4532,-6.29,-6.1593,-6.0463,-5.9571,-5.8314,-5.693,-5.6362,-5.6432,-5.6878,-5.6952,-5.7398,-5.8103,-5.8549,-5.9181,-5.9924,-6.037,-6.0815,-6.1187,-6.1187,-6.089,-6.0407,-5.9961,-5.9552,-5.9367,-5.9738,-5.985,-5.9775,-5.9367,-5.9255,-5.9144,-5.8772,-5.8656,-5.8572,-5.8492,-5.8443,-5.7832,-5.6123,-5.5742,-5.5147,-5.3482,-5.3225,-5.3078,-5.2711,-5.227,-5.1977,-5.1977,-5.161,-5.1646,-5.238,-5.2454,-5.2307,-5.194,-5.1734,-5.1647,-5.1756,-5.1773,-5.1514,-5.0863,-5.1716,-5.239,-5.2735,-5.3529,-5.4115,-5.4494,-5.4494,-5.4494,-5.4494,-5.4494,-5.4815,-5.5407,-5.4832,-5.4734,-5.4839,-5.4296,-5.4093,-5.4093,-5.4025,-5.4262,-5.4566,-5.4532,-5.4532,-5.4566,-8.5416,-8.5729,-8.5561,-8.4529,-8.3698,-8.2812,-8.1738,-8.0802,-8.0202,-8.0072,-7.9918,-7.9569,-7.8873,-7.8022,-7.7481,-7.7481,-7.6823,-7.6011,-7.516,-7.4347,-7.3844,-7.3728,-7.2142,-7.164,-7.2375,-7.1678,-7.0556,-6.897,-6.8854,-6.7965,-6.6379,-6.5296,-6.477,-6.4617,-6.346,-6.2401,-6.1506,-6.0947,-6.0146,-5.9212,-5.82,-5.7813,-5.7806,-5.71,-5.7769,-5.9069,-5.9069,-6.0072,-6.1373,-6.1373,-6.1484,-6.1558,-6.1558,-6.1484,-6.141,-6.1521,-6.0964,-6.0407,-6.1038,-6.1187,-6.1038,-6.0295,-6.011,-5.9924,-5.9255,-5.9069,-5.899,-5.8757,-5.8714,-5.8153,-5.635,-5.5902,-5.5306,-5.3671,-5.3298,-5.2968,-5.227,-5.216,-5.2234,-5.2344,-5.2344,-5.2931,-5.4436,-5.4583,-5.4289,-5.3628,-5.379,-5.3598,-5.2898,-5.3262,-5.3077,-5.2423,-5.2507,-5.2908,-5.3563,-5.4184,-5.4494,-5.4494,-5.4632,-5.4632,-5.4494,-5.4632,-5.5051,-5.5544,-5.4761,-5.47,-5.5213,-5.4398,-5.3991,-5.4059,-5.4431,-5.4668,-5.4803,-5.5243,-5.5446,-5.5547,-8.2996,-8.405,-8.4525,-8.2935,-8.2461,-8.1972,-8.1074,-8.0092,-7.9443,-7.9376,-7.8718,-7.8177,-7.7945,-7.7132,-7.6591,-7.6591,-7.6475,-7.6011,-7.516,-7.4347,-7.3574,-7.2839,-7.1833,-7.1369,-7.1485,-7.1369,-7.0789,-6.9821,-6.9125,-6.8274,-6.7268,-6.4948,-6.429,-6.4868,-6.3225,-6.2227,-6.1748,-6.1697,-6.0768,-5.9323,-5.9174,-5.9288,-5.9515,-5.9404,-5.9961,-6.0815,-6.0815,-6.141,-6.2227,-6.2227,-6.2673,-6.323,-6.323,-6.2784,-6.2339,-6.3044,-6.2673,-6.1893,-6.1373,-6.1187,-6.1187,-6.1038,-6.1001,-6.0964,-6.0853,-6.0815,-6.063,-5.9844,-5.961,-5.9085,-5.7376,-5.6399,-5.5491,-5.457,-5.3708,-5.3188,-5.3041,-5.3004,-5.3261,-5.3959,-5.4032,-5.4399,-5.5317,-5.539,-5.5354,-5.5244,-5.5273,-5.5229,-5.5119,-5.5329,-5.5215,-5.4581,-5.4311,-5.4218,-5.4356,-5.446,-5.4494,-5.4529,-5.515,-5.5115,-5.4529,-5.515,-5.5874,-5.6567,-5.6297,-5.6473,-5.6952,-5.6711,-5.6433,-5.619,-5.504,-5.4972,-5.5412,-5.4262,-5.4228,-5.4871,-8.2293,-8.3269,-8.3855,-8.3146,-8.2568,-8.1875,-8.0937,-8.0023,-7.9221,-7.8703,-7.818,-7.7713,-7.7171,-7.6668,-7.6397,-7.6397,-7.6397,-7.5856,-7.4541,-7.4115,-7.3303,-7.1949,-7.1523,-7.1291,-7.1291,-7.0827,-7.017,-6.9357,-6.8506,-6.7655,-6.6766,-6.5141,-6.4599,-6.4948,-6.3671,-6.2761,-6.215,-6.2373,-6.177,-6.0593,-5.9685,-5.9966,-6.0781,-5.9673,-6.0333,-6.1856,-6.1856,-6.2376,-6.3044,-6.3044,-6.3305,-6.3602,-6.3602,-6.3379,-6.3119,-6.349,-6.3342,-6.297,-6.2599,-6.2487,-6.2413,-6.1967,-6.1856,-6.1744,-6.1298,-6.1187,-6.1076,-6.0704,-6.0215,-5.9467,-5.8238,-5.6895,-5.5808,-5.5312,-5.4123,-5.3377,-5.3775,-5.3849,-5.3995,-5.4363,-5.4766,-5.5354,-5.6161,-5.6235,-5.6235,-5.6235,-5.6235,-5.6235,-5.6235,-5.603,-5.6002,-5.6181,-5.5108,-5.4494,-5.4494,-5.4494,-5.4494,-5.4494,-5.4839,-5.4839,-5.4529,-5.5288,-5.6046,-5.6805,-5.6572,-5.6884,-5.7501,-5.6814,-5.6471,-5.6331,-5.5956,-5.575,-5.5716,-5.5818,-5.5818,-5.5886,-8.1864,-8.2645,-8.323,-8.3308,-8.2428,-8.1433,-8.0664,-7.9648,-7.8704,-7.7948,-7.775,-7.7409,-7.6653,-7.6514,-7.6436,-7.6397,-7.6204,-7.5469,-7.3999,-7.3728,-7.2916,-7.1369,-7.1098,-7.1098,-7.1291,-7.0247,-6.9512,-6.9087,-6.8003,-6.7152,-6.6495,-6.545,-6.4986,-6.4948,-6.4097,-6.3323,-6.2723,-6.3053,-6.2732,-6.1953,-6.0653,-6.0821,-6.1657,-6.0217,-6.072,-6.219,-6.2562,-6.297,-6.3342,-6.3342,-6.3453,-6.3565,-6.3379,-6.3453,-6.3602,-6.3602,-6.3602,-6.3602,-6.3602,-6.3602,-6.3453,-6.2822,-6.2673,-6.2524,-6.1893,-6.1781,-6.1707,-6.1521,-6.0815,-5.9918,-5.9059,-5.7534,-5.6265,-5.5871,-5.4759,-5.4013,-5.4326,-5.4546,-5.473,-5.495,-5.55,-5.6198,-5.7005,-5.7079,-5.7079,-5.7079,-5.7079,-5.7079,-5.7079,-5.6635,-5.6648,-5.708,-5.5543,-5.462,-5.4494,-5.4494,-5.4494,-5.4494,-5.4874,-5.4943,-5.4805,-5.5736,-5.6495,-5.7047,-5.6914,-5.7294,-5.7913,-5.7021,-5.661,-5.6539,-5.6806,-5.6461,-5.6089,-5.7036,-5.7137,-5.6867,-8.1083,-8.1786,-8.2371,-8.2371,-8.1005,-7.9855,-7.9804,-7.8398,-7.7304,-7.7108,-7.7067,-7.6958,-7.6626,-7.6591,-7.6514,-7.6397,-7.5662,-7.485,-7.396,-7.3148,-7.2297,-7.133,-7.0518,-7.0479,-7.1291,-6.9705,-6.9203,-6.9899,-6.8274,-6.7462,-6.7384,-6.576,-6.4986,-6.4948,-6.4097,-6.3671,-6.3594,-6.3651,-6.3367,-6.2887,-6.2797,-6.2337,-6.1845,-6.2447,-6.2092,-6.1484,-6.297,-6.3082,-6.2487,-6.2487,-6.297,-6.349,-6.2747,-6.3007,-6.3602,-6.3602,-6.3602,-6.3602,-6.3602,-6.3602,-6.3602,-6.3527,-6.3527,-6.3527,-6.3453,-6.3416,-6.323,-6.2487,-6.167,-6.0853,-5.9998,-5.8392,-5.6936,-5.6071,-5.5723,-5.53,-5.4509,-5.5023,-5.5794,-5.6528,-5.6675,-5.7042,-5.7813,-5.7923,-5.7923,-5.7923,-5.7923,-5.7923,-5.7923,-5.784,-5.7606,-5.7116,-5.5943,-5.5079,-5.4529,-5.4494,-5.4494,-5.4529,-5.5943,-5.6253,-5.5598,-5.7047,-5.7771,-5.784,-5.7805,-5.8118,-5.8702,-5.8633,-5.839,-5.7967,-5.7355,-5.6908,-5.6664,-5.6089,-5.6258,-5.6799,-8.0185,-8.0888,-8.148,-8.1495,-8.0509,-7.9538,-7.9023,-7.8437,-7.7773,-7.7187,-7.7031,-7.6946,-7.6864,-7.6687,-7.6552,-7.6514,-7.5662,-7.4773,-7.396,-7.3071,-7.222,-7.133,-7.0479,-7.0131,-7.0479,-6.8854,-6.8158,-6.8468,-6.7268,-6.6688,-6.6688,-6.6031,-6.5489,-6.4986,-6.518,-6.4677,-6.371,-6.371,-6.3302,-6.2557,-6.1757,-6.1402,-6.1368,-6.143,-6.1347,-6.1373,-6.245,-6.2673,-6.2487,-6.297,-6.3379,-6.3565,-6.3267,-6.3379,-6.3713,-6.4196,-6.4753,-6.5162,-6.5162,-6.4753,-6.4345,-6.4345,-6.4345,-6.4345,-6.4345,-6.3973,-6.3527,-6.323,-6.2524,-6.1856,-6.1521,-5.9658,-5.8206,-5.8301,-5.6916,-5.5865,-5.5999,-5.6206,-5.6455,-5.6748,-5.7262,-5.7666,-5.796,-5.7997,-5.7997,-5.7997,-5.7997,-5.7997,-5.7997,-5.7997,-5.7726,-5.7116,-5.6668,-5.5964,-5.5079,-5.5133,-5.5184,-5.5219,-5.6288,-5.6633,-5.6391,-5.7426,-5.7909,-5.7943,-5.8392,-5.8703,-5.8909,-5.884,-5.8631,-5.8314,-5.797,-5.7348,-5.6833,-5.7002,-5.6934,-5.6867,-7.9287,-7.999,-8.0582,-8.057,-7.9903,-7.9125,-7.8593,-7.8281,-7.789,-7.7265,-7.7109,-7.7031,-7.6992,-7.6829,-7.6591,-7.6211,-7.5314,-7.4425,-7.3535,-7.2684,-7.191,-7.133,-7.0479,-6.9976,-6.9976,-6.8352,-6.7501,-6.7501,-6.6611,-6.6185,-6.6185,-6.6185,-6.5915,-6.5412,-6.5953,-6.5566,-6.4483,-6.4213,-6.3748,-6.311,-6.1957,-6.1531,-6.1576,-6.122,-6.1355,-6.1757,-6.2487,-6.2933,-6.3193,-6.3527,-6.3788,-6.3936,-6.3676,-6.3973,-6.4531,-6.5348,-6.5831,-6.6165,-6.6425,-6.6054,-6.5534,-6.5274,-6.5236,-6.5236,-6.5236,-6.4568,-6.401,-6.401,-6.3156,-6.2413,-6.2413,-6.0815,-5.9547,-5.9795,-5.8258,-5.7131,-5.7332,-5.7279,-5.7189,-5.7189,-5.7666,-5.7997,-5.7997,-5.7997,-5.7997,-5.7997,-5.7997,-5.7997,-5.7997,-5.7997,-5.7821,-5.7401,-5.7216,-5.676,-5.6046,-5.5916,-5.579,-5.5632,-5.6667,-5.715,-5.7185,-5.7909,-5.8254,-5.8288,-5.8806,-5.9012,-5.9012,-5.8909,-5.8771,-5.8561,-5.8348,-5.7865,-5.7277,-5.7712,-5.7577,-5.7205,-7.839,-7.9092,-7.9684,-7.9672,-7.902,-7.8476,-7.8476,-7.7734,-7.7187,-7.7187,-7.7187,-7.7148,-7.6992,-7.6992,-7.6549,-7.5404,-7.4579,-7.3651,-7.2645,-7.1794,-7.1291,-7.1291,-7.044,-6.9976,-6.9976,-6.8352,-6.7501,-6.7501,-6.6611,-6.6185,-6.6185,-6.6185,-6.6185,-6.6185,-6.6185,-6.6185,-6.6147,-6.5334,-6.4986,-6.4909,-6.4058,-6.3299,-6.2701,-6.2483,-6.2554,-6.2795,-6.3394,-6.4122,-6.4679,-6.3899,-6.4159,-6.4679,-6.3899,-6.4791,-6.6277,-6.7094,-6.676,-6.6314,-6.7094,-6.7317,-6.7131,-6.6314,-6.6128,-6.6128,-6.6128,-6.5422,-6.4828,-6.4828,-6.3527,-6.2413,-6.2413,-6.1781,-6.0884,-5.998,-5.9701,-5.9272,-5.8371,-5.8125,-5.7997,-5.8033,-5.8033,-5.8033,-5.8033,-5.8033,-5.8033,-5.8033,-5.7997,-5.7997,-5.8033,-5.7997,-5.7997,-5.8033,-5.7449,-5.7169,-5.7397,-5.6823,-5.6195,-5.5667,-5.7185,-5.7909,-5.7943,-5.8668,-5.9012,-5.9012,-5.9012,-5.9012,-5.9012,-5.9012,-5.8909,-5.8771,-5.8561,-5.8419,-5.8205,-5.7954,-5.7881,-5.7881,-7.839,-7.8624,-7.8786,-7.8774,-7.8122,-7.7578,-7.7578,-7.6836,-7.6289,-7.6289,-7.6289,-7.6289,-7.6211,-7.6133,-7.5963,-7.5619,-7.4154,-7.2855,-7.1872,-7.1485,-7.1291,-7.1291,-6.9938,-6.9164,-6.9164,-6.7462,-6.6572,-6.6572,-6.634,-6.6185,-6.6185,-6.6185,-6.5915,-6.5373,-6.5953,-6.5876,-6.5334,-6.5102,-6.4986,-6.4909,-6.4058,-6.3406,-6.2962,-6.273,-6.2758,-6.3008,-6.3579,-6.422,-6.4865,-6.5236,-6.5534,-6.5682,-6.5422,-6.6091,-6.6982,-6.7243,-6.754,-6.7837,-6.8097,-6.8134,-6.7948,-6.7168,-6.6945,-6.6945,-6.6945,-6.5831,-6.4828,-6.4828,-6.4419,-6.3936,-6.3379,-6.3044,-6.2636,-6.1775,-6.1056,-6.0441,-6.0047,-5.9918,-5.9779,-5.9685,-5.9685,-5.9685,-5.9685,-5.9685,-5.9685,-5.9685,-5.9171,-5.9098,-5.9648,-5.8621,-5.851,-5.9648,-5.8956,-5.8687,-5.8916,-5.7871,-5.7276,-5.7253,-5.8219,-5.8668,-5.8702,-5.8909,-5.9012,-5.9012,-5.9012,-5.9012,-5.9012,-5.9012,-5.8909,-5.8771,-5.8701,-5.849,-5.8171,-5.8099,-5.8027,-5.7881,-7.7882,-7.7882,-7.7893,-7.7875,-7.7497,-7.707,-7.6758,-7.6523,-7.6289,-7.5937,-7.6211,-7.6406,-7.6406,-7.6328,-7.5997,-7.5236,-7.3479,-7.2172,-7.1545,-7.1407,-7.1369,-7.1291,-7.0015,-6.9125,-6.8816,-6.7771,-6.6882,-6.6185,-6.6185,-6.6185,-6.6185,-6.6185,-6.5953,-6.5489,-6.5992,-6.5915,-6.545,-6.545,-6.545,-6.5412,-6.4909,-6.4514,-6.4141,-6.3576,-6.3924,-6.4783,-6.4587,-6.5384,-6.6515,-6.6546,-6.6574,-6.6574,-6.6574,-6.7131,-6.78,-6.78,-6.8134,-6.8506,-6.8506,-6.8506,-6.8394,-6.7911,-6.78,-6.7688,-6.7391,-6.6277,-6.5236,-6.4865,-6.4828,-6.4568,-6.375,-6.3862,-6.3825,-6.3007,-6.2101,-6.1456,-6.1365,-6.0932,-6.0572,-6.0478,-6.043,-6.0419,-6.0419,-6.0419,-6.0419,-6.0419,-5.9942,-5.9905,-6.0382,-5.9465,-5.9391,-6.0382,-5.9942,-5.981,-6.0013,-5.9266,-5.8694,-5.8272,-5.8769,-5.9012,-5.9012,-5.9012,-5.9012,-5.9012,-5.9012,-5.9012,-5.9012,-5.9012,-5.8944,-5.884,-5.884,-5.8631,-5.8419,-5.8348,-5.8171,-5.8027,-7.6984,-7.6984,-7.6995,-7.6977,-7.7029,-7.6836,-7.6133,-7.6601,-7.6797,-7.6015,-7.6523,-7.6953,-7.6953,-7.6914,-7.6172,-7.4453,-7.2717,-7.168,-7.1514,-7.1489,-7.1446,-7.133,-7.0556,-6.9744,-6.8932,-6.8777,-6.7926,-6.6301,-6.6224,-6.6185,-6.6185,-6.6185,-6.6185,-6.6185,-6.6185,-6.6185,-6.6224,-6.6263,-6.6263,-6.6224,-6.6263,-6.6218,-6.5943,-6.4936,-6.5896,-6.7583,-6.6295,-6.7228,-6.8935,-6.7803,-6.7428,-6.7428,-6.7428,-6.7911,-6.8506,-6.8506,-6.8506,-6.8506,-6.8506,-6.8506,-6.8506,-6.8506,-6.8506,-6.832,-6.7577,-6.6797,-6.5979,-6.5199,-6.5051,-6.4753,-6.3907,-6.4382,-6.4642,-6.3795,-6.2925,-6.2308,-6.2308,-6.1459,-6.084,-6.0793,-6.0698,-6.0603,-6.0639,-6.0603,-6.0603,-6.0603,-6.0566,-6.0529,-6.0603,-6.0493,-6.0456,-6.0603,-6.0529,-6.0614,-6.09,-6.081,-6.0203,-5.8983,-5.9071,-5.9081,-5.9012,-5.9081,-5.9081,-5.9012,-5.9081,-5.9081,-5.9012,-5.9012,-5.9012,-5.9012,-5.884,-5.8771,-5.8805,-5.8561,-5.8419,-5.8277,-7.6086,-7.6125,-7.6175,-7.6157,-7.617,-7.6367,-7.6836,-7.6484,-7.6094,-7.5937,-7.5469,-7.5156,-7.5156,-7.4531,-7.3984,-7.3555,-7.2458,-7.1783,-7.1724,-7.1606,-7.1485,-7.1446,-7.1175,-7.0634,-6.9744,-6.8468,-6.7617,-6.723,-6.6533,-6.6185,-6.6185,-6.6185,-6.6185,-6.6185,-6.6185,-6.6185,-6.6224,-6.692,-6.6804,-6.6263,-6.6959,-6.7209,-6.7128,-6.6714,-6.7537,-6.8876,-6.8345,-6.8565,-6.9058,-6.8436,-6.8246,-6.8246,-6.8246,-6.8357,-6.8506,-6.8506,-6.8506,-6.8506,-6.8506,-6.8506,-6.8506,-6.8506,-6.8506,-6.8468,-6.8283,-6.7614,-6.6982,-6.6797,-6.676,-6.637,-6.524,-6.5426,-6.5448,-6.4266,-6.3637,-6.3251,-6.3123,-6.2928,-6.2724,-6.2535,-6.2487,-6.239,-6.2291,-6.2291,-6.2291,-6.2291,-6.1704,-6.1594,-6.2254,-6.108,-6.097,-6.2254,-6.1667,-6.1655,-6.2311,-6.1858,-6.0992,-5.9756,-5.9739,-5.9516,-5.9047,-5.9668,-5.9599,-5.9047,-5.9668,-5.9599,-5.9012,-5.9012,-5.9012,-5.9012,-5.8944,-5.8909,-5.8771,-5.8771,-5.8631,-5.8419,-7.5266,-7.5891,-7.6331,-7.5962,-7.5897,-7.6055,-7.6523,-7.6172,-7.5898,-7.5898,-7.5508,-7.5234,-7.5234,-7.4453,-7.375,-7.3359,-7.2422,-7.1875,-7.1797,-7.1682,-7.1612,-7.1507,-7.1407,-7.1137,-7.0634,-6.9357,-6.8313,-6.7501,-6.7036,-6.6611,-6.6185,-6.6185,-6.6185,-6.6185,-6.6185,-6.6185,-6.6224,-6.6688,-6.6611,-6.6224,-6.6688,-6.7114,-6.748,-6.7354,-6.8265,-6.9528,-6.9183,-6.9163,-6.9181,-6.8863,-6.866,-6.8506,-6.8506,-6.8766,-6.9026,-6.8617,-6.8873,-6.9201,-6.8666,-6.8958,-6.9201,-6.8628,-6.8803,-6.8877,-6.8097,-6.7614,-6.7205,-6.6834,-6.7057,-6.7049,-6.6191,-6.6555,-6.6618,-6.5557,-6.487,-6.4389,-6.4113,-6.3688,-6.3336,-6.3194,-6.3099,-6.2953,-6.2805,-6.2805,-6.2805,-6.2805,-6.2401,-6.2365,-6.2805,-6.1998,-6.2144,-6.3392,-6.2989,-6.3172,-6.398,-6.332,-6.2657,-6.2057,-6.1023,-6.0171,-5.9599,-6.0358,-6.0289,-5.9599,-6.0013,-5.9737,-5.9012,-5.9012,-5.9012,-5.9012,-5.9012,-5.8944,-5.8909,-5.8909,-5.8771,-5.8631,-7.4447,-7.5462,-7.6253,-7.5571,-7.5466,-7.5508,-7.5664,-7.5664,-7.5664,-7.5664,-7.5547,-7.5508,-7.5664,-7.4883,-7.4101,-7.3359,-7.25,-7.2031,-7.2031,-7.1914,-7.1792,-7.178,-7.1608,-7.1446,-7.133,-7.0595,-6.9396,-6.7733,-6.7578,-6.7036,-6.6185,-6.6185,-6.6185,-6.6185,-6.6185,-6.6185,-6.6224,-6.6379,-6.634,-6.6224,-6.6379,-6.6959,-6.7694,-6.7578,-6.858,-7.0058,-6.9605,-6.9399,-6.9391,-6.9223,-6.8997,-6.8707,-6.8707,-6.9266,-6.9788,-6.9022,-6.9573,-7.0217,-6.9313,-6.9573,-6.9992,-6.9145,-6.9415,-6.9565,-6.8269,-6.7719,-6.7354,-6.6834,-6.7178,-6.7485,-6.7067,-6.7526,-6.7717,-6.6819,-6.5946,-6.5253,-6.4786,-6.3965,-6.3465,-6.3382,-6.3147,-6.2953,-6.2855,-6.2805,-6.2805,-6.2805,-6.2952,-6.2989,-6.2805,-6.2952,-6.3356,-6.4053,-6.409,-6.4494,-6.5301,-6.464,-6.4307,-6.4251,-6.2612,-6.141,-6.0601,-6.1328,-6.1223,-6.0392,-6.053,-6.0151,-5.9392,-5.9254,-5.9219,-5.9185,-5.9047,-5.9012,-5.9012,-5.9012,-5.8978,-5.8771,-7.351,-7.3666,-7.3794,-7.3658,-7.363,-7.3906,-7.4648,-7.4765,-7.4765,-7.4765,-7.4101,-7.3945,-7.4687,-7.3984,-7.3437,-7.332,-7.25,-7.2305,-7.3047,-7.2265,-7.2108,-7.284,-7.1972,-7.1485,-7.1446,-7.1253,-7.0286,-6.8622,-6.7887,-6.7036,-6.6185,-6.6185,-6.6185,-6.6185,-6.6185,-6.6185,-6.6263,-6.6998,-6.6882,-6.6263,-6.7036,-6.7849,-6.8545,-6.781,-6.9009,-7.0999,-7.0135,-6.9997,-7.0162,-6.9777,-6.9587,-6.9548,-6.9548,-7.0153,-7.0715,-7.0179,-7.0475,-7.0947,-7.1125,-7.0512,-6.9889,-7.0493,-7.072,-7.0758,-7.0531,-6.9416,-6.8506,-6.91,-6.9024,-6.872,-6.8223,-6.83,-6.7995,-6.6821,-6.5954,-6.5148,-6.4391,-6.3861,-6.3511,-6.3382,-6.3147,-6.3002,-6.2953,-6.2855,-6.2805,-6.2805,-6.3503,-6.3613,-6.2842,-6.3503,-6.398,-6.409,-6.409,-6.4494,-6.5301,-6.5191,-6.4892,-6.4287,-6.4657,-6.3831,-6.201,-6.2816,-6.2439,-6.1185,-6.1875,-6.1737,-6.0944,-6.0289,-6.0047,-5.9978,-5.9288,-5.9012,-5.9012,-5.9012,-5.9012,-5.8944,-7.2651,-7.3354,-7.3867,-7.3369,-7.3316,-7.3594,-7.4453,-7.418,-7.4219,-7.5195,-7.457,-7.4375,-7.5234,-7.4531,-7.3633,-7.2656,-7.2656,-7.2695,-7.2578,-7.2148,-7.2031,-7.2344,-7.1899,-7.1601,-7.1485,-7.1446,-7.075,-6.9473,-6.8622,-6.7771,-6.692,-6.6417,-6.6185,-6.6185,-6.6185,-6.6185,-6.6224,-6.6611,-6.6843,-6.6959,-6.7346,-6.8003,-6.8816,-6.8854,-6.9589,-7.0595,-7.0606,-7.0555,-7.0425,-7.0162,-6.9923,-6.9778,-7.027,-7.0991,-7.1596,-7.1436,-7.2015,-7.2622,-7.2084,-7.2015,-7.2088,-7.175,-7.2053,-7.2394,-7.2394,-7.1429,-7.0686,-7.1024,-7.0588,-7.0192,-7.0187,-6.9801,-6.9337,-6.8776,-6.7593,-6.6482,-6.568,-6.4645,-6.3749,-6.3336,-6.3194,-6.3051,-6.2904,-6.3296,-6.3539,-6.3539,-6.431,-6.4604,-6.4237,-6.4567,-6.4971,-6.5411,-6.5448,-6.5815,-6.6623,-6.6182,-6.6076,-6.6172,-6.6062,-6.4973,-6.2986,-6.3758,-6.3311,-6.1979,-6.2324,-6.2048,-6.1289,-6.0944,-6.0806,-6.0771,-6.0427,-6.0289,-6.0289,-6.0289,-6.0289,-6.0289]}]]